[[{"header":{"parameterUnit":"m.s-1","parameterCategory":1,"la1":30.6,"la2":28.766,"lo1":-90.7593,"lo2":-88.6598,"dy":0.0162,"dx":0.0183,"nx":116,"ny":114,"refTime":"2023-04-07T00:00:00:Z","depth":0,"parameterNumber":2,"parameterNumberName":"U-component_of_WINDS"},"data":[0.0,0.0,0.0,0.0,0.0,0.0,0.0,0.0,0.0,0.0,0.0,0.0,0.0,0.0,0.0,0.0,0.0,0.0,0.0,0.0,0.0,0.0,0.0,0.0,0.0,0.0,0.0,0.0,0.0,0.0,0.0,0.0,0.0,0.0,0.0,0.0,0.0,0.0,0.0,0.0,0.0,0.0,0.0,0.0,0.0,0.0,0.0,0.0,0.0,0.0,0.0,0.0,0.0,0.0,0.0,0.0,0.0,0.0,0.0,0.0,0.0,0.0,0.0,0.0,0.0,0.0,0.0,0.0,0.0,0.0,0.0,0.0,0.0,0.0,0.0,0.0,0.0,0.0,0.0,0.0,0.0,0.0,0.0,0.0,0.0,0.0,0.0,0.0,0.0,0.0,0.0,0.0,0.0,0.0,0.0,0.0,0.0,0.0,0.0,0.0,0.0,0.0,0.0,0.0,0.0,0.0,0.0,0.0,0.0,0.0,0.0,0.0,0.0,0.0,0.0,0.0,0.0,0.0,0.0,0.0,0.0,0.0,0.0,0.0,0.0,0.0,0.0,0.0,0.0,0.0,0.0,0.0,0.0,0.0,0.0,0.0,0.0,0.0,0.0,0.0,0.0,0.0,0.0,0.0,0.0,0.0,0.0,0.0,0.0,0.0,0.0,0.0,0.0,0.0,0.0,0.0,0.0,0.0,0.0,0.0,0.0,0.0,0.0,0.0,0.0,0.0,0.0,0.0,0.0,0.0,0.0,0.0,0.0,0.0,0.0,0.0,0.0,0.0,0.0,0.0,0.0,0.0,0.0,0.0,0.0,0.0,0.0,0.0,0.0,0.0,0.0,0.0,0.0,0.0,0.0,0.0,0.0,0.0,0.0,0.0,0.0,0.0,0.0,0.0,0.0,0.0,0.0,0.0,0.0,0.0,0.0,0.0,0.0,0.0,0.0,0.0,0.0,0.0,0.0,0.0,0.0,0.0,0.0,0.0,0.0,0.0,0.0,0.0,0.0,0.0,0.0,0.0,0.0,0.0,0.0,0.0,0.0,0.0,0.0,0.0,0.0,0.0,0.0,0.0,0.0,0.0,0.0,0.0,0.0,0.0,0.0,0.0,0.0,0.0,0.0,0.0,0.0,0.0,0.0,0.0,0.0,0.0,0.0,0.0,0.0,0.0,0.0,0.0,0.0,0.0,0.0,0.0,0.0,0.0,0.0,0.0,0.0,0.0,0.0,0.0,0.0,0.0,0.0,0.0,0.0,0.0,0.0,0.0,0.0,0.0,0.0,0.0,0.0,0.0,0.0,0.0,0.0,0.0,0.0,0.0,0.0,0.0,0.0,0.0,0.0,0.0,0.0,0.0,0.0,0.0,0.0,0.0,0.0,0.0,0.0,0.0,0.0,0.0,0.0,0.0,0.0,0.0,0.0,0.0,0.0,0.0,0.0,0.0,0.0,0.0,0.0,0.0,0.0,0.0,0.0,0.0,0.0,0.0,0.0,0.0,0.0,0.0,0.0,0.0,0.0,0.0,0.0,0.0,0.0,0.0,0.0,0.0,0.0,0.0,0.0,0.0,0.0,0.0,0.0,0.0,0.0,0.0,0.0,0.0,0.0,0.0,0.0,0.0,0.0,0.0,0.0,0.0,0.0,0.0,0.0,0.0,0.0,0.0,0.0,0.0,0.0,0.0,0.0,0.0,0.0,0.0,0.0,0.0,0.0,0.0,0.0,0.0,0.0,0.0,0.0,0.0,0.0,0.0,0.0,0.0,0.0,0.0,0.0,0.0,0.0,0.0,0.0,0.0,0.0,0.0,0.0,0.0,0.0,0.0,0.0,0.0,0.0,0.0,0.0,0.0,0.0,0.0,0.0,0.0,0.0,0.0,0.0,0.0,0.0,0.0,0.0,0.0,0.0,0.0,0.0,0.0,0.0,0.0,0.0,0.0,0.0,0.0,0.0,0.0,0.0,0.0,0.0,0.0,0.0,0.0,0.0,0.0,0.0,0.0,0.0,0.0,0.0,0.0,0.0,0.0,0.0,0.0,0.0,0.0,0.0,0.0,0.0,0.0,0.0,0.0,0.0,0.0,0.0,0.0,0.0,0.0,0.0,0.0,0.0,0.0,0.0,0.0,0.0,0.0,0.0,0.0,0.0,0.0,0.0,0.0,0.0,0.0,0.0,0.0,0.0,0.0,0.0,0.0,0.0,0.0,0.0,0.0,0.0,0.0,0.0,0.0,0.0,0.0,0.0,0.0,0.0,0.0,0.0,0.0,0.0,0.0,0.0,0.0,0.0,0.0,0.0,0.0,0.0,0.0,0.0,0.0,0.0,0.0,0.0,0.0,0.0,0.0,0.0,0.0,0.0,0.0,0.0,0.0,0.0,0.0,0.0,0.0,0.0,0.0,0.0,0.0,0.0,0.0,0.0,0.0,0.0,0.0,0.0,0.0,0.0,0.0,0.0,0.0,0.0,0.0,0.0,0.0,0.0,0.0,0.0,0.0,0.0,0.0,0.0,0.0,0.0,0.0,0.0,0.0,0.0,0.0,0.0,0.0,0.0,0.0,0.0,0.0,0.0,0.0,0.0,0.0,0.0,0.0,0.0,0.0,0.0,0.0,0.0,0.0,0.0,0.0,0.0,0.0,0.0,0.0,0.0,0.0,0.0,0.0,0.0,0.0,0.0,0.0,0.0,0.0,0.0,0.0,0.0,0.0,0.0,0.0,0.0,0.0,0.0,0.0,0.0,0.0,0.0,0.0,0.0,0.0,0.0,0.0,0.0,0.0,0.0,0.0,0.0,0.0,0.0,0.0,0.0,0.0,0.0,0.0,0.0,0.0,0.0,0.0,0.0,0.0,0.0,0.0,0.0,0.0,0.0,0.0,0.0,0.0,0.0,0.0,0.0,0.0,0.0,0.0,0.0,0.0,0.0,0.0,0.0,0.0,0.0,0.0,0.0,0.0,0.0,0.0,0.0,0.0,0.0,0.0,0.0,0.0,0.0,0.0,0.0,0.0,0.0,0.0,0.0,0.0,0.0,0.0,0.0,0.0,0.0,0.0,0.0,0.0,0.0,0.0,0.0,0.0,0.0,0.0,0.0,0.0,0.0,0.0,0.0,0.0,0.0,0.0,0.0,0.0,0.0,0.0,0.0,0.0,0.0,0.0,0.0,0.0,0.0,0.0,0.0,0.0,0.0,0.0,0.0,0.0,0.0,0.0,0.0,0.0,0.0,0.0,0.0,0.0,0.0,0.0,0.0,0.0,0.0,0.0,0.0,0.0,0.0,0.0,0.0,0.0,0.0,0.0,0.0,0.0,0.0,0.0,0.0,0.0,0.0,0.0,0.0,0.0,0.0,0.0,0.0,0.0,0.0,0.0,0.0,0.0,0.0,0.0,0.0,0.0,0.0,0.0,0.0,0.0,0.0,0.0,0.0,0.0,0.0,0.0,0.0,0.0,0.0,0.0,0.0,0.0,0.0,0.0,0.0,0.0,0.0,0.0,0.0,0.0,0.0,0.0,0.0,0.0,0.0,0.0,0.0,0.0,0.0,0.0,0.0,0.0,0.0,0.0,0.0,0.0,0.0,0.0,0.0,0.0,0.0,0.0,0.0,0.0,0.0,0.0,0.0,0.0,0.0,0.0,0.0,0.0,0.0,0.0,0.0,0.0,0.0,0.0,0.0,0.0,0.0,0.0,0.0,0.0,0.0,0.0,0.0,0.0,0.0,0.0,0.0,0.0,0.0,0.0,0.0,0.0,0.0,0.0,0.0,0.0,0.0,0.0,0.0,0.0,0.0,0.0,0.0,0.0,0.0,0.0,0.0,0.0,0.0,0.0,0.0,0.0,0.0,0.0,0.0,0.0,0.0,0.0,0.0,0.0,0.0,0.0,0.0,0.0,0.0,0.0,0.0,0.0,0.0,0.0,0.0,0.0,0.0,0.0,0.0,0.0,0.0,0.0,0.0,0.0,0.0,0.0,0.0,0.0,0.0,0.0,0.0,0.0,0.0,0.0,0.0,0.0,0.0,0.0,0.0,0.0,0.0,0.0,0.0,0.0,0.0,0.0,0.0,0.0,0.0,0.0,0.0,0.0,0.0,0.0,0.0,0.0,0.0,0.0,0.0,0.0,0.0,0.0,0.0,0.0,0.0,0.0,0.0,0.0,0.0,0.0,0.0,0.0,0.0,0.0,0.0,0.0,0.0,0.0,0.0,0.0,0.0,0.0,0.0,0.0,0.0,0.0,0.0,0.0,0.0,0.0,0.0,0.0,0.0,0.0,0.0,0.0,0.0,0.0,0.0,0.0,0.0,0.0,0.0,0.0,0.0,0.0,0.0,0.0,0.0,0.0,0.0,0.0,0.0,0.0,0.0,0.0,0.0,0.0,0.0,0.0,0.0,0.0,0.0,0.0,0.0,0.0,0.0,0.0,0.0,0.0,0.0,0.0,0.0,0.0,0.0,0.0,0.0,0.0,0.0,0.0,0.0,0.0,0.0,0.0,0.0,0.0,0.0,0.0,0.0,0.0,0.0,0.0,0.0,0.0,0.0,0.0,0.0,0.0,0.0,0.0,0.0,0.0,0.0,0.0,0.0,0.0,0.0,0.0,0.0,0.0,0.0,0.0,0.0,0.0,0.0,0.0,0.0,0.0,0.0,0.0,0.0,0.0,0.0,0.0,0.0,0.0,0.0,0.0,0.0,0.0,0.0,0.0,0.0,0.0,0.0,0.0,0.0,0.0,0.0,0.0,0.0,0.0,0.0,0.0,0.0,0.0,0.0,0.0,0.0,0.0,0.0,0.0,0.0,0.0,0.0,0.0,0.0,0.0,0.0,0.0,0.0,0.0,0.0,0.0,0.0,0.0,0.0,0.0,0.0,0.0,0.0,0.0,0.0,0.0,0.0,0.0,0.0,0.0,0.0,0.0,0.0,0.0,0.0,0.0,0.0,0.0,0.0,0.0,0.0,0.0,0.0,0.0,0.0,0.0,0.0,0.0,0.0,0.0,0.0,0.0,0.0,0.0,0.0,0.0,0.0,0.0,0.0,0.0,0.0,0.0,0.0,0.0,0.0,0.0,0.0,0.0,0.0,0.0,0.0,0.0,0.0,0.0,0.0,0.0,0.0,0.0,0.0,0.0,0.0,0.0,0.0,0.0,0.0,0.0,0.0,0.0,0.0,0.0,0.0,0.0,0.0,0.0,0.0,0.0,0.0,0.0,0.0,0.0,0.0,0.0,0.0,0.0,0.0,0.0,0.0,0.0,0.0,0.0,0.0,0.0,0.0,0.0,0.0,0.0,0.0,0.0,0.0,0.0,0.0,0.0,0.0,0.0,0.0,0.0,0.0,0.0,0.0,0.0,0.0,0.0,0.0,0.0,0.0,0.0,0.0,0.0,0.0,0.0,0.0,0.0,0.0,0.0,0.0,0.0,0.0,0.0,0.0,0.0,0.0,0.0,0.0,0.0,0.0,0.0,0.0,0.0,0.0,0.0,0.0,0.0,0.0,0.0,0.0,0.0,0.0,0.0,0.0,0.0,0.0,0.0,0.0,0.0,0.0,0.0,0.0,0.0,0.0,0.0,0.0,0.0,0.0,0.0,0.0,0.0,0.0,0.0,0.0,0.0,0.0,0.0,0.0,0.0,0.0,0.0,0.0,0.0,0.0,0.0,0.0,0.0,0.0,0.0,0.0,0.0,0.0,0.0,0.0,0.0,0.0,0.0,0.0,0.0,0.0,0.0,0.0,0.0,0.0,0.0,0.0,0.0,0.0,0.0,0.0,0.0,0.0,0.0,0.0,0.0,0.0,0.0,0.0,0.0,0.0,0.0,0.0,0.0,0.0,0.0,0.0,0.0,0.0,0.0,0.0,0.0,0.0,0.0,0.0,0.0,0.0,0.0,0.0,0.0,0.0,0.0,0.0,0.0,0.0,0.0,0.0,0.0,0.0,0.0,0.0,0.0,0.0,0.0,0.0,0.0,0.0,0.0,0.0,0.0,0.0,0.0,0.0,0.0,0.0,0.0,0.0,0.0,0.0,0.0,0.0,0.0,0.0,0.0,0.0,0.0,0.0,0.0,0.0,0.0,0.0,0.0,0.0,0.0,3.9932,0.0,0.0,0.0,0.0,0.0,0.0,0.0,0.0,0.0,0.0,0.0,0.0,0.0,0.0,0.0,0.0,0.0,0.0,0.0,0.0,0.0,0.0,0.0,0.0,0.0,0.0,0.0,0.0,0.0,0.0,0.0,0.0,0.0,0.0,0.0,0.0,0.0,0.0,0.0,4.1037,4.1,4.1006,4.1396,4.1557,4.1568,0.0,0.0,0.0,0.0,0.0,0.0,0.0,0.0,0.0,0.0,0.0,0.0,0.0,0.0,0.0,0.0,0.0,0.0,0.0,0.0,0.0,0.0,0.0,0.0,0.0,0.0,0.0,0.0,0.0,0.0,0.0,0.0,0.0,0.0,0.0,0.0,0.0,0.0,0.0,0.0,0.0,0.0,0.0,0.0,0.0,0.0,0.0,0.0,0.0,0.0,0.0,0.0,0.0,0.0,0.0,0.0,0.0,0.0,0.0,0.0,0.0,0.0,0.0,0.0,0.0,0.0,0.0,0.0,0.0,0.0,0.0,4.0419,0.0,0.0,0.0,0.0,0.0,0.0,0.0,0.0,0.0,0.0,0.0,0.0,0.0,0.0,0.0,0.0,0.0,0.0,0.0,0.0,0.0,0.0,0.0,0.0,0.0,0.0,0.0,0.0,0.0,0.0,0.0,0.0,0.0,0.0,0.0,4.1524,4.1117,4.0872,4.0961,4.1162,4.1446,4.2267,4.2811,4.3102,4.3549,0.0,0.0,0.0,0.0,0.0,0.0,0.0,0.0,0.0,0.0,0.0,0.0,0.0,0.0,0.0,0.0,0.0,0.0,0.0,0.0,0.0,0.0,0.0,0.0,0.0,0.0,0.0,0.0,0.0,0.0,0.0,0.0,0.0,0.0,0.0,0.0,0.0,0.0,0.0,0.0,0.0,0.0,0.0,0.0,0.0,0.0,0.0,0.0,0.0,0.0,0.0,0.0,0.0,0.0,0.0,0.0,0.0,0.0,0.0,0.0,0.0,0.0,0.0,4.4268,4.4478,4.4653,4.6086,4.599,4.4591,4.331,4.236,4.1656,0.0,0.0,0.0,0.0,0.0,0.0,0.0,0.0,0.0,0.0,0.0,0.0,0.0,0.0,0.0,0.0,0.0,0.0,0.0,0.0,0.0,0.0,0.0,4.3585,4.3591,4.3563,0.0,0.0,0.0,0.0,0.0,0.0,0.0,0.0,4.1811,4.1422,3.9973,4.0655,4.1738,4.319,4.4054,4.5239,4.6579,4.5239,4.5114,4.5938,0.0,0.0,0.0,0.0,0.0,0.0,0.0,0.0,0.0,0.0,0.0,0.0,0.0,0.0,0.0,0.0,0.0,0.0,0.0,0.0,0.0,0.0,0.0,0.0,0.0,0.0,0.0,0.0,0.0,0.0,0.0,0.0,0.0,0.0,0.0,0.0,0.0,0.0,0.0,0.0,0.0,3.1838,3.132,0.0,0.0,0.0,0.0,0.0,0.0,0.0,0.0,0.0,0.0,0.0,0.0,0.0,4.0372,4.1199,4.4307,4.6354,4.738,4.7721,4.8011,4.8221,4.8693,4.8771,4.8565,4.8282,0.0,4.2539,4.2489,0.0,0.0,0.0,0.0,0.0,0.0,0.0,0.0,0.0,0.0,0.0,0.0,0.0,0.0,0.0,0.0,0.0,0.0,0.0,0.0,0.0,0.0,4.3629,4.3654,4.4538,4.4339,0.0,0.0,0.0,0.0,0.0,4.1505,4.1015,4.0863,4.066,4.0407,4.2208,4.3481,4.4268,4.5589,4.662,4.7349,4.7097,4.6931,4.6783,4.5823,0.0,0.0,0.0,0.0,0.0,0.0,0.0,0.0,0.0,0.0,0.0,0.0,0.0,0.0,0.0,0.0,0.0,0.0,0.0,0.0,0.0,0.0,0.0,0.0,0.0,0.0,0.0,0.0,0.0,0.0,0.0,0.0,0.0,0.0,0.0,0.0,0.0,0.0,0.0,3.0441,2.8685,2.9775,3.2363,3.5893,0.0,0.0,0.0,0.0,0.0,0.0,0.0,0.0,0.0,3.548,3.8518,4.0567,4.1459,4.6093,4.8809,4.9538,5.0038,5.0384,5.059,5.111,5.0953,5.0331,5.0333,4.8635,4.5801,4.4601,4.3886,4.3465,0.0,0.0,0.0,0.0,3.7228,3.5721,0.0,0.0,0.0,0.0,0.0,0.0,0.0,0.0,0.0,0.0,0.0,0.0,4.2278,4.3195,4.3779,4.4263,4.5275,4.4972,4.2846,0.0,0.0,0.0,0.0,4.1661,4.0991,4.0267,4.0431,4.1537,4.3663,4.4955,4.5481,4.7164,4.8108,4.8385,4.8845,4.8565,4.7646,4.5922,4.5473,4.5765,0.0,0.0,0.0,0.0,0.0,0.0,0.0,0.0,0.0,0.0,0.0,0.0,0.0,0.0,0.0,0.0,0.0,0.0,0.0,0.0,0.0,0.0,0.0,0.0,0.0,0.0,0.0,0.0,0.0,0.0,0.0,0.0,0.0,0.0,0.0,0.0,0.0,2.6958,2.4905,2.6298,2.824,3.2109,0.0,0.0,0.0,0.0,0.0,0.0,3.4417,3.3656,3.3945,3.5386,3.8797,4.1495,4.337,4.8465,5.1332,5.1879,5.2311,5.2645,5.2765,5.3005,5.2752,5.2103,5.1805,5.0708,4.9042,4.6817,4.5719,4.5271,4.3934,4.2778,4.163,4.0,3.8703,3.7383,0.0,0.0,0.0,0.0,0.0,0.0,0.0,0.0,0.0,0.0,0.0,3.8777,4.298,4.3486,4.4167,4.5838,4.5356,4.4552,4.3604,4.2065,4.1149,4.1013,4.1038,4.103,4.0907,4.0798,4.1582,4.3269,4.4234,4.5545,4.7214,4.8943,5.0217,5.0979,5.0256,4.9492,4.8613,4.6817,4.566,4.4979,4.3999,0.0,0.0,0.0,0.0,0.0,0.0,0.0,0.0,0.0,0.0,0.0,0.0,0.0,0.0,0.0,0.0,0.0,0.0,0.0,0.0,0.0,0.0,0.0,0.0,0.0,0.0,0.0,0.0,0.0,0.0,0.0,0.0,0.0,0.0,0.0,0.0,0.0,0.0,1.8375,2.2446,0.0,0.0,0.0,0.0,3.5568,3.5919,3.6082,3.6256,3.5979,3.6464,3.788,4.0743,4.4203,4.8211,5.182,5.4093,5.5061,5.5081,5.5118,5.5081,5.4149,5.4187,5.4838,5.3492,5.2315,5.1177,4.9017,4.7389,4.6237,4.6209,4.4908,4.2981,4.2732,4.1415,3.9399,0.0,0.0,0.0,0.0,0.0,0.0,0.0,0.0,0.0,3.8255,3.8614,4.0188,4.3927,4.5331,4.6709,4.8456,4.7821,4.6758,4.5358,4.363,4.2182,4.1052,4.1,4.0949,4.0848,4.2412,4.3543,4.4163,4.6719,4.8296,4.8941,5.0159,5.0933,5.1249,5.0967,5.0371,4.9424,4.7083,4.5966,4.5548,4.2951,4.2444,0.0,0.0,0.0,0.0,0.0,0.0,0.0,0.0,0.0,0.0,0.0,0.0,0.0,0.0,0.0,0.0,0.0,0.0,0.0,0.0,0.0,0.0,0.0,0.0,0.0,0.0,0.0,0.0,0.0,0.0,0.0,0.0,0.0,0.0,0.0,0.0,0.0,2.53,2.7126,0.0,3.1545,3.323,3.3562,3.2168,3.5776,3.7355,3.5824,3.8513,4.0648,4.1796,4.5013,4.7539,4.9224,5.292,5.5268,5.6254,5.5098,5.4873,5.5467,5.4224,5.3436,5.2961,5.1235,4.9928,4.8916,4.7954,4.7196,4.6635,4.5394,4.444,4.3625,4.2614,4.1437,4.0104,0.0,0.0,0.0,0.0,0.0,0.0,0.0,0.0,0.0,3.8272,3.9169,4.1,4.4428,4.6885,4.8958,5.0661,4.9515,4.8093,4.6709,4.4202,4.2227,4.1052,4.1229,4.1461,4.1645,4.3853,4.5156,4.5446,4.838,4.9802,4.9823,5.0774,5.126,5.1296,5.1287,5.0933,5.0252,4.8229,4.6755,4.5596,4.3567,4.3118,4.3542,0.0,0.0,0.0,0.0,0.0,0.0,0.0,0.0,0.0,0.0,0.0,0.0,0.0,0.0,0.0,0.0,0.0,0.0,0.0,0.0,0.0,0.0,0.0,0.0,0.0,0.0,0.0,0.0,0.0,0.0,0.0,0.0,0.0,0.0,0.0,2.5015,2.7702,2.8094,2.931,3.2248,3.2217,3.197,3.2037,3.5743,3.8306,3.8938,4.1798,4.4307,4.6268,4.8638,5.0576,5.2046,5.478,5.6482,5.7135,5.5715,5.5247,5.5604,5.4183,5.2834,5.1583,4.9913,4.8285,4.6743,4.676,4.6288,4.5572,4.5181,4.4548,4.3652,4.2191,4.0946,3.9757,0.0,0.0,0.0,0.0,0.0,0.0,0.0,0.0,0.0,3.8239,3.9253,4.1109,4.4506,4.7963,5.0692,5.2341,5.013,4.8296,4.7466,4.3429,4.1084,4.1035,4.1692,4.2479,4.3369,4.5003,4.6283,4.7175,4.8972,4.9839,4.9858,5.083,5.1307,5.1299,5.1239,5.1172,5.1047,5.0273,4.8038,4.511,4.5898,4.5184,4.3867,0.0,0.0,0.0,0.0,0.0,0.0,0.0,0.0,0.0,0.0,0.0,0.0,0.0,0.0,0.0,0.0,0.0,0.0,0.0,0.0,0.0,0.0,0.0,0.0,0.0,0.0,0.0,0.0,0.0,0.0,0.0,0.0,0.0,3.4179,2.9046,2.5267,2.4579,2.4737,2.5009,2.5156,2.5541,2.8508,3.5269,3.5905,3.895,4.5657,4.5742,4.7334,5.1134,5.1431,5.3282,5.6897,5.7516,5.7789,5.7808,5.713,5.6429,5.5613,5.407,5.253,5.1047,4.9873,4.7679,4.5085,4.5711,4.471,4.3099,4.5751,4.5335,4.3093,4.1698,4.016,3.8349,0.0,0.0,0.0,0.0,0.0,0.0,0.0,0.0,3.767,3.7576,4.045,4.3582,4.6376,4.9223,5.1843,5.4089,5.0234,4.7602,4.7398,4.3405,4.1283,4.1846,4.1401,4.2407,4.5051,4.6172,4.7453,4.891,5.0144,5.0743,5.0761,5.1137,5.1307,5.1294,5.1232,5.1172,5.1105,5.092,4.994,4.8388,4.6824,4.5938,4.5534,0.0,0.0,0.0,0.0,0.0,0.0,0.0,0.0,0.0,0.0,0.0,0.0,0.0,0.0,0.0,0.0,0.0,0.0,0.0,0.0,0.0,0.0,0.0,0.0,0.0,0.0,0.0,0.0,0.0,0.0,0.0,4.1199,3.7386,3.3589,3.1023,2.9886,3.0732,3.0493,3.0088,2.9867,3.1855,3.3648,3.4911,4.0039,4.4137,4.6532,4.8686,5.1232,5.4256,5.4461,5.5633,5.7944,5.7732,5.7728,5.7975,5.6092,5.5232,5.5277,5.3396,5.1431,4.9518,4.8451,4.6238,4.3465,4.3256,4.2354,4.1378,4.3681,4.3784,4.2396,4.0912,3.8727,3.6168,0.0,0.0,0.0,0.0,0.0,0.0,0.0,0.0,3.7453,3.775,4.1175,4.4422,4.6632,4.9543,5.1907,5.3285,4.936,4.6649,4.6289,4.2908,4.1305,4.2169,4.233,4.3641,4.6293,4.753,4.8806,5.014,5.0783,5.1306,5.1674,5.1424,5.1486,5.1796,5.1743,5.147,5.1076,5.1488,5.1185,5.0315,4.89,4.8137,4.776,4.6917,4.7112,4.7666,4.6248,4.6137,4.6434,4.5015,0.0,0.0,0.0,0.0,0.0,0.0,0.0,0.0,0.0,0.0,0.0,0.0,0.0,0.0,0.0,0.0,0.0,0.0,0.0,0.0,0.0,0.0,0.0,0.0,4.2917,4.0394,3.6101,3.3816,3.3027,3.4133,3.3726,3.3047,3.2321,3.5225,3.7351,3.7966,4.3825,4.8216,5.0178,5.2309,5.4254,5.5934,5.6337,5.7095,5.827,5.7992,5.782,5.7608,5.588,5.4866,5.4433,5.2794,5.0675,0.0,4.7016,4.4826,4.206,4.1149,4.0341,0.0,0.0,0.0,0.0,0.0,3.7108,3.4838,0.0,0.0,0.0,0.0,0.0,0.0,0.0,0.0,3.6629,3.8222,4.144,4.4162,4.5664,4.8889,5.0937,5.0917,4.7777,4.5366,4.4333,4.2108,4.1313,4.2422,4.393,4.5573,4.7345,4.8929,5.0178,5.1072,5.1186,5.1732,5.2638,5.1815,5.1889,5.265,5.2578,5.2078,5.1353,5.1997,5.1909,5.1337,5.1295,5.0781,4.9937,4.9224,4.9321,4.9726,4.875,4.8015,4.7348,4.6221,0.0,0.0,0.0,0.0,0.0,0.0,0.0,0.0,0.0,0.0,0.0,0.0,0.0,0.0,0.0,0.0,0.0,0.0,0.0,0.0,0.0,0.0,0.0,0.0,4.4196,4.4304,4.1155,3.7838,3.5817,3.6075,3.5552,3.4912,3.4261,3.7182,4.0382,4.3174,4.7542,5.157,5.5004,0.0,0.0,0.0,0.0,5.7784,5.7939,5.8116,5.7685,5.6683,5.5904,5.4697,5.3189,5.213,4.9945,4.6965,4.5552,4.3347,4.0545,3.9342,3.8524,3.8268,3.9794,3.9752,3.8745,3.7138,3.5582,0.0,0.0,0.0,0.0,0.0,0.0,0.0,0.0,0.0,3.7069,3.7416,4.1045,4.3718,4.4056,4.6529,4.845,4.9125,4.6008,4.3326,4.1733,4.1159,4.1876,4.4122,4.5151,4.6742,4.9064,5.012,5.1102,5.2033,5.2172,5.2674,5.3535,5.2726,5.2805,5.363,5.3514,5.3358,5.3139,5.2492,5.223,5.2185,5.1492,5.0757,5.0051,4.9908,4.9477,4.875,4.7105,4.7279,4.7927,4.5576,4.5612,4.6452,4.5526,4.4855,0.0,0.0,0.0,0.0,0.0,0.0,0.0,0.0,0.0,0.0,0.0,0.0,0.0,0.0,0.0,0.0,0.0,0.0,0.0,4.7723,4.7005,4.6898,4.8358,4.5402,4.2508,4.0874,3.8303,3.7715,4.0499,4.2414,4.4785,4.7939,5.1988,5.4914,5.6234,5.6088,5.6792,5.8631,5.8214,5.7671,5.7044,5.7111,5.6319,5.4715,0.0,0.0,5.137,5.0524,4.8131,4.4649,4.4344,4.1952,3.8223,3.7659,3.6679,3.5744,3.7657,3.7832,3.7046,3.6569,3.5145,3.3422,0.0,0.0,0.0,0.0,0.0,0.0,0.0,0.0,3.6859,3.7748,4.0485,4.2673,4.3514,4.4741,4.5662,4.6117,4.3724,4.2004,4.1568,4.1903,4.3051,4.5214,4.6493,4.7942,4.961,5.0496,5.1424,5.2387,5.248,5.295,5.3841,5.3431,5.3455,5.3876,5.4235,5.4109,5.3618,5.3122,5.2762,5.2426,5.155,5.1016,5.0746,5.0742,5.044,4.9886,4.8934,4.8572,4.8347,4.6925,4.6462,4.636,4.5873,4.5395,4.5125,0.0,0.0,0.0,0.0,0.0,0.0,0.0,0.0,0.0,0.0,0.0,0.0,0.0,0.0,4.7367,4.7956,0.0,4.8388,4.9573,4.9163,4.9377,5.1251,5.0279,4.8562,4.6196,4.3567,4.2988,4.5662,4.8158,5.0197,5.1498,5.5397,5.7485,5.698,5.696,5.7208,5.7742,5.7298,5.6948,5.6715,5.6279,5.5442,5.4197,5.3205,5.1863,5.0259,4.8894,4.6667,4.3928,4.2256,3.9919,3.721,3.5864,3.4782,3.407,3.5608,3.6166,3.615,3.6006,3.4795,3.3213,0.0,0.0,0.0,0.0,0.0,0.0,0.0,0.0,0.0,3.8041,3.9628,4.1113,4.248,4.2773,4.2867,4.283,4.15,4.1174,4.2374,4.316,4.4408,4.6319,4.8009,4.9219,4.9906,5.0966,5.1903,5.2742,5.2916,5.3486,5.4398,5.4226,5.4208,5.4344,5.5034,5.4883,5.4122,5.3954,5.3546,5.2913,5.188,5.1549,5.1629,5.145,5.1252,5.103,5.0986,4.9732,4.8094,4.814,4.7126,4.5858,4.5945,4.5887,4.5795,4.595,4.5678,0.0,0.0,0.0,0.0,0.0,0.0,0.0,0.0,4.5973,4.6164,4.6727,4.7624,4.8553,4.94,4.9475,4.9604,5.0337,5.1008,5.179,5.2605,5.3587,5.3617,5.2021,4.941,4.8577,5.0562,5.3163,5.4742,5.4805,5.7945,5.9121,5.7406,5.7612,5.7337,5.6356,5.5982,5.5984,5.6258,5.5312,5.4456,5.3724,5.2269,5.0637,4.8901,4.7096,4.5091,4.288,3.9461,3.724,3.58,3.3917,3.2997,3.2731,3.3717,3.4581,3.535,3.5489,3.4639,3.3353,0.0,0.0,0.0,0.0,0.0,0.0,0.0,0.0,0.0,3.7229,3.8181,3.8885,3.9127,3.9802,4.0207,4.0129,3.9955,4.0836,4.3199,4.4106,4.5641,4.8115,4.9756,5.0674,5.0751,5.2442,5.3378,5.3559,5.439,5.5286,5.6182,5.5424,5.5457,5.6207,5.6184,5.6114,5.5956,5.517,5.4827,5.468,5.3075,5.2492,5.2468,5.1683,5.0879,5.0134,5.0135,4.8487,4.6386,4.7097,4.6736,4.6111,4.6823,4.654,4.6111,4.6814,4.5434,4.3831,4.4546,4.3457,4.2305,4.3094,4.3131,4.3596,0.0,4.691,4.7425,4.7636,4.8955,5.0067,4.9883,5.0523,5.1194,5.1315,5.2838,5.4143,5.4539,5.5189,5.6362,5.8235,5.3838,5.2214,5.6121,5.5623,5.6066,5.8577,5.9359,5.905,5.7461,5.7218,5.6889,5.6408,5.5437,5.4973,5.508,5.3898,5.2881,5.2029,5.0871,4.8925,4.626,4.4937,4.2669,3.9636,3.6081,3.3593,3.1962,3.1468,3.1342,3.1482,3.2087,3.3073,3.4138,3.5148,3.492,3.4109,0.0,0.0,0.0,0.0,0.0,0.0,0.0,0.0,0.0,0.0,0.0,3.8016,3.8534,3.8895,3.9062,3.9005,3.9427,4.0785,4.3322,4.468,4.6313,4.8347,5.0511,5.1657,5.1717,5.2977,5.3935,5.4509,5.4945,5.5351,5.5748,5.5898,5.5886,5.5769,5.6219,5.6378,5.629,5.5441,5.5069,5.4944,5.3264,5.2636,5.2554,5.1179,4.9794,4.8728,4.9718,4.8652,0.0,4.7197,4.708,4.6816,4.7147,4.7025,4.6815,4.7151,4.5807,4.4055,4.3297,4.3234,4.3507,4.4025,4.4825,4.5929,4.7631,4.8187,4.8546,4.9262,5.0289,5.1045,5.1097,5.1821,5.2528,5.3111,5.4275,5.5627,5.7047,5.8239,5.9349,6.0243,5.9231,5.8879,6.0093,5.928,5.943,6.1181,6.0008,5.8994,5.8437,5.7109,5.6015,5.5183,5.4565,5.4079,5.3558,5.3073,5.2511,5.182,4.9975,4.8003,4.584,4.3476,4.0167,3.6258,3.4336,3.2491,3.0857,3.0904,3.1292,3.2017,3.2296,3.3185,3.4167,3.4153,3.3796,3.3367,0.0,0.0,0.0,0.0,0.0,0.0,0.0,0.0,0.0,0.0,0.0,0.0,0.0,3.7887,3.7958,3.8125,3.8676,4.0291,4.3296,4.4555,4.6261,4.8643,5.0515,5.1749,5.2288,5.3203,5.4129,5.5059,5.538,5.5546,5.5579,5.6207,5.6152,5.5594,5.6218,5.6457,5.6359,5.574,5.5482,5.5334,5.3644,5.2858,5.248,5.0525,4.8716,4.7428,4.8857,4.791,4.6104,4.6772,4.682,4.6683,4.7174,4.717,4.6995,4.7017,4.5611,4.3803,4.2622,4.3272,4.4488,4.5382,4.6487,4.7702,4.8945,4.9157,4.9358,5.0289,5.0934,5.1403,5.1713,5.2303,5.3126,5.4174,5.5312,5.6656,5.8233,5.9648,6.0481,6.0326,6.1273,6.1836,6.1559,6.1444,6.1621,6.2215,5.9942,5.8587,5.8635,5.6434,5.4756,5.387,5.3244,5.2884,5.2755,5.2592,5.2303,5.1885,4.9547,4.7224,4.4968,4.1564,3.7796,3.3952,3.3554,3.2243,3.0543,3.0841,3.1435,3.2123,3.2482,3.3199,3.3908,3.3101,3.2889,3.296,0.0,0.0,0.0,0.0,0.0,0.0,0.0,0.0,0.0,0.0,0.0,0.0,0.0,3.6069,3.6394,3.7168,3.7255,3.9048,4.323,4.349,4.5318,4.9475,4.9722,5.0554,5.2259,5.3155,5.4058,5.4995,5.5912,5.6393,5.6465,5.6497,5.6489,5.6464,5.6491,5.6455,5.6395,5.6376,5.6406,5.6313,5.4566,5.3398,5.2422,4.9902,4.7865,4.644,4.7206,4.5321,4.2815,4.5236,4.5522,4.5175,4.6861,4.6853,4.624,4.6319,4.4366,4.2302,4.2911,4.3388,4.4319,4.6708,4.7327,4.7698,4.9139,4.9531,4.9711,5.0111,5.0607,5.0966,5.1097,5.1511,5.238,5.3871,5.5954,5.7427,5.7266,5.8201,5.8805,5.8611,5.8101,5.8334,0.0,6.0912,6.1481,6.1167,5.8963,5.7596,5.7454,5.4792,5.308,5.2683,5.1265,5.1311,5.3038,5.2448,5.2017,5.1866,4.9591,4.6538,4.2846,3.8909,3.5736,3.3356,3.3636,3.259,3.0762,3.1223,3.1202,3.1071,3.2042,3.2704,3.2988,3.2128,3.2676,3.3575,0.0,0.0,0.0,0.0,0.0,0.0,0.0,0.0,0.0,0.0,0.0,0.0,0.0,0.0,0.0,0.0,3.7226,3.8498,4.1571,4.2788,4.4505,4.6989,4.8774,5.0244,5.1412,5.2336,5.3243,5.4139,5.5073,5.556,5.5586,5.6163,5.6424,5.6426,5.6384,5.6404,5.6465,5.6365,5.6716,5.705,5.4199,5.324,5.3151,4.9452,4.6953,4.5465,0.0,4.4967,4.4091,4.4972,4.5436,4.5664,4.5714,4.5975,4.611,4.5386,4.4335,4.3573,4.4193,4.5201,4.6618,4.8788,4.9702,5.0415,5.174,5.173,5.1254,5.0587,5.0462,5.0082,4.8786,4.9743,5.1314,5.301,5.4822,5.6538,5.7992,5.8696,5.768,5.3979,5.6126,5.68,0.0,0.0,0.0,5.97,5.7815,5.6786,5.7048,5.4471,5.3041,5.3202,5.1346,5.0707,5.1425,5.0701,5.0075,4.9676,4.5849,4.2227,3.878,3.6629,3.4766,3.3142,3.3088,3.2502,3.1734,3.211,3.235,3.2533,3.2832,3.2761,3.2304,3.1636,3.1328,3.1375,0.0,0.0,0.0,0.0,0.0,0.0,0.0,0.0,0.0,0.0,0.0,0.0,0.0,0.0,0.0,0.0,0.0,3.7786,4.0267,4.1439,4.3043,4.5272,4.698,4.844,4.9606,5.0239,5.1122,5.2349,5.2981,5.3415,5.3735,5.4591,5.5021,5.5013,5.5265,5.5416,5.547,5.5109,5.5293,5.56,5.2761,5.1831,5.173,4.8044,4.5956,0.0,4.4599,4.4624,4.4839,4.4858,4.543,4.6047,4.5528,4.5336,4.5113,4.4214,4.3989,4.4353,4.5855,4.7345,4.8926,5.0777,5.1655,5.2288,5.3042,5.2514,5.1563,5.0502,4.9674,4.8703,4.7387,4.8082,4.9568,5.1535,5.2988,5.4681,5.7014,5.6421,5.4766,5.2056,5.3546,5.3866,5.1544,5.4362,0.0,5.812,5.6149,5.5312,5.6379,5.3247,5.1726,5.2301,5.0469,4.9515,4.9507,4.9247,4.8278,4.6526,4.2488,3.9024,3.5959,3.4997,3.4018,3.32,3.3186,3.2978,3.2813,3.2982,3.3255,3.3465,3.3241,3.255,3.1642,3.1079,3.0088,2.9217,0.0,0.0,0.0,0.0,0.0,0.0,0.0,0.0,0.0,0.0,0.0,0.0,0.0,0.0,0.0,0.0,0.0,0.0,3.9326,3.9539,4.1034,4.4253,4.4485,4.5324,4.7017,4.7068,4.7939,4.9707,4.9807,5.0248,5.1012,5.1907,5.2313,5.2336,5.3091,5.344,5.339,5.2621,5.231,5.2211,5.0461,4.9386,4.8529,4.5953,4.4958,4.4836,4.3993,4.4199,4.4844,4.4868,4.5471,4.6203,4.6137,4.4931,4.346,4.3101,4.3476,4.472,4.7776,4.9642,5.105,5.257,5.3069,5.3189,5.3125,5.1934,5.0633,4.9722,4.8211,4.6944,4.6613,4.6522,4.7231,4.9546,5.0683,5.2137,5.451,5.1807,5.0355,5.2288,5.0185,4.9555,5.1979,5.2392,0.0,5.623,0.0,5.3365,5.5292,5.121,4.9274,5.0192,4.8674,4.779,4.7533,4.8072,4.6401,4.2553,3.9688,3.697,3.443,3.3905,3.3534,3.3375,3.3799,3.3949,3.3796,3.3845,3.3796,3.3644,3.3031,3.201,3.0773,3.029,2.8868,2.7405,0.0,0.0,0.0,0.0,0.0,0.0,0.0,0.0,0.0,0.0,0.0,0.0,0.0,0.0,0.0,0.0,0.0,0.0,3.7659,3.8901,4.0241,4.1712,4.2976,4.4136,4.5247,4.5318,4.5859,4.6931,4.7689,4.8148,4.8319,4.9239,4.9683,4.9672,4.9789,4.9867,4.9944,4.9647,4.992,5.0413,4.8662,4.8307,4.8587,4.6616,4.5097,4.4008,4.3786,4.3825,4.4208,4.5489,4.6039,4.6047,4.52,4.4552,4.4274,4.5227,4.5836,4.6776,4.9337,5.1073,5.2325,5.333,5.3569,5.3413,5.288,5.1618,5.0021,4.8014,4.627,4.4714,4.3333,4.4376,4.6152,4.8174,4.9958,5.1811,5.3852,5.1505,4.8745,4.6428,4.5936,4.5425,4.4604,4.6969,4.9343,0.0,5.2247,5.2659,5.2573,5.0515,4.9326,4.9288,4.7199,4.6344,4.6843,4.4571,4.1766,3.8368,3.7307,3.5262,3.2551,3.2835,3.2619,3.2172,3.2803,3.3181,3.3473,3.4151,3.3742,3.2492,3.1884,3.0436,2.8675,2.7726,2.671,2.5775,0.0,0.0,0.0,0.0,0.0,0.0,0.0,0.0,0.0,0.0,0.0,0.0,0.0,0.0,0.0,0.0,0.0,0.0,0.0,3.8003,3.8858,3.9664,4.0599,4.133,4.1814,4.19,4.2524,4.3718,4.4307,4.4947,4.5649,4.6554,4.6988,4.7004,4.7306,4.7475,4.7486,4.7022,4.7144,0.0,0.0,4.6567,4.6937,4.5584,4.4725,4.4164,4.3392,4.3607,4.436,4.5314,4.5898,4.6053,4.5212,4.5138,4.5601,4.6828,4.7578,4.8553,5.1286,5.2493,5.3176,5.3991,5.3658,5.2824,5.1751,5.0435,4.8715,4.6305,4.4819,4.3526,4.2097,4.3203,4.4869,4.6436,4.8088,4.993,5.2036,4.9255,4.6449,4.5114,4.4481,4.3775,4.291,4.5568,4.7644,0.0,4.9924,5.0736,5.0486,4.8969,4.783,4.731,4.5861,4.4628,4.3834,4.1165,3.8585,3.6106,3.5226,3.3719,3.189,3.187,3.1846,3.1851,0.0,3.2712,3.3016,3.3605,3.3084,3.196,3.0773,2.9133,2.7232,2.5843,2.4555,2.3414,0.0,0.0,0.0,0.0,0.0,0.0,0.0,0.0,0.0,0.0,3.6069,0.0,0.0,0.0,0.0,0.0,0.0,0.0,0.0,0.0,3.7532,3.8128,3.8355,3.848,3.8451,3.8529,3.9277,4.0731,4.0907,4.1688,4.3037,4.3891,4.4309,4.4343,4.5105,4.5404,4.5304,4.4531,4.4234,4.4314,4.4406,4.4504,4.4505,0.0,0.0,4.446,4.2926,4.3258,4.4444,4.4824,4.5572,4.6275,4.5805,4.6273,4.7165,4.8096,4.8965,5.0232,5.3051,5.3785,5.3961,5.4529,5.3555,5.2007,5.0323,4.8822,4.7062,4.4551,4.3536,4.2735,4.1715,4.244,4.3615,4.4899,4.6149,4.7677,4.9732,4.6437,4.4358,4.5712,4.415,4.3278,4.4136,4.6022,4.6925,4.6212,4.7055,4.7833,4.8266,4.6577,4.5251,4.4452,4.3817,4.2239,3.9619,3.7881,3.6264,3.4781,3.3516,3.2491,3.1801,3.1383,3.1448,3.1988,0.0,0.0,3.2389,3.2573,3.2185,3.1307,2.9474,2.7726,2.6024,2.4258,2.223,2.0404,0.0,0.0,0.0,0.0,0.0,0.0,0.0,0.0,0.0,0.0,3.6456,3.5728,0.0,0.0,0.0,0.0,0.0,0.0,0.0,0.0,0.0,3.7338,3.8646,3.9362,3.9301,3.9362,3.9536,3.9843,4.0602,4.0805,4.0465,4.1328,4.1732,4.1755,4.1894,4.1964,4.1933,4.1661,4.1597,4.1714,4.2382,4.2729,4.2888,4.3398,0.0,0.0,4.2451,4.2041,4.2091,4.486,4.6367,4.7047,4.67,4.7434,4.8556,4.9183,5.0581,5.2197,5.344,5.4596,5.5294,5.4824,5.3713,5.2064,4.9657,4.7742,4.5709,4.2779,4.1713,4.0947,3.9723,4.0919,4.2868,4.5258,4.6635,4.7684,4.8589,4.6656,4.4595,4.321,4.1583,4.1383,4.3527,4.424,4.4192,0.0,4.3461,4.3564,4.3364,4.251,4.1478,4.0173,3.9033,3.759,3.5739,3.474,3.3856,3.2901,3.2732,3.2074,3.0812,3.2326,3.2525,3.1758,3.2746,0.0,3.1622,3.212,3.1039,2.8853,2.716,2.5529,2.3856,2.1957,1.9488,1.7313,0.0,0.0,0.0,0.0,0.0,0.0,0.0,3.5204,3.6518,3.7809,3.8362,3.7983,3.6235,3.6017,3.5838,0.0,0.0,0.0,0.0,0.0,0.0,0.0,0.0,0.0,3.7589,3.7635,3.7899,3.8353,0.0,3.9334,3.9869,4.0273,4.0693,4.1094,4.1097,4.1085,4.1042,4.0976,4.0975,4.1077,4.1916,4.2304,0.0,0.0,0.0,0.0,4.1647,4.1627,4.1922,4.3966,4.549,4.6694,4.7771,4.8694,4.9556,5.0485,5.1498,5.2673,5.4312,5.5196,5.5588,5.5184,5.345,5.1084,4.8124,4.5941,4.3793,4.1118,4.0378,3.9971,3.9138,4.0601,4.2323,4.339,4.4776,4.6057,4.6898,4.5368,4.3852,4.3227,4.2621,4.2659,4.3691,4.4723,4.3837,4.0271,3.9628,3.9345,3.9173,3.8344,3.7527,3.6921,3.5836,3.4686,3.338,3.3076,3.2788,3.2555,3.2549,3.2326,3.2052,3.2513,3.2326,3.1853,3.2105,0.0,3.1308,3.1017,3.0077,2.8645,2.6517,2.4796,2.3209,2.0828,1.8134,1.5645,0.0,0.0,0.0,0.0,0.0,0.0,3.471,3.645,3.7936,3.9,4.0118,4.0051,3.805,3.7063,3.6391,0.0,0.0,0.0,0.0,0.0,0.0,0.0,0.0,0.0,0.0,0.0,0.0,3.72,3.7444,0.0,0.0,0.0,0.0,0.0,4.1026,4.1069,4.0999,4.1005,4.101,0.0,0.0,4.1913,0.0,0.0,0.0,0.0,0.0,4.124,4.2058,4.3071,4.4234,4.5636,4.7831,4.9192,5.0158,5.1145,5.1945,5.2982,5.5207,5.5859,5.5907,5.568,5.3451,5.036,4.7011,4.4538,4.224,3.9933,3.9526,3.9514,3.9268,4.0515,4.1651,4.1796,4.2757,4.3922,4.4998,4.3976,4.3229,4.3566,4.4251,4.4712,4.4716,4.6158,4.4408,3.7919,3.499,0.0,3.491,3.3899,3.3409,3.3549,3.2854,3.1983,3.1285,3.19,3.2313,3.2612,3.25,3.276,3.33,3.2599,3.2251,3.2077,3.1901,0.0,0.0,3.0519,2.9822,2.9129,2.64,2.4584,2.3065,2.0395,1.7216,1.4236,0.0,0.0,0.0,0.0,0.0,0.0,3.5619,3.7304,3.899,4.0659,4.0327,3.9832,3.9607,3.8785,3.7639,0.0,0.0,0.0,0.0,0.0,0.0,0.0,0.0,0.0,0.0,0.0,0.0,3.72,3.7996,0.0,0.0,0.0,0.0,0.0,0.0,4.1072,4.0994,4.0994,0.0,0.0,0.0,0.0,0.0,0.0,0.0,0.0,0.0,4.0344,4.1267,4.2865,4.3465,4.3813,4.5503,4.7933,5.0174,5.0247,5.182,5.3998,5.5959,5.6753,5.6959,5.6534,5.424,5.1176,4.7635,4.4606,4.1913,3.9757,3.9477,3.9652,3.9852,3.9892,4.0538,4.2432,4.2142,4.2019,4.3005,4.3579,4.3541,4.2521,4.4509,4.6296,4.7044,4.8089,4.5335,3.721,2.8833,0.0,2.9776,2.9075,2.8971,2.9727,2.9093,2.8754,2.8668,3.0457,3.1685,3.2314,3.276,3.2945,3.3043,3.3215,3.2957,3.2426,3.336,0.0,0.0,3.1637,3.0772,2.9235,2.6239,2.4497,2.3238,2.0017,1.6348,1.248,0.0,0.0,0.0,0.0,0.0,0.0,3.6465,3.7741,3.931,4.1596,4.1576,4.1367,4.1354,4.0129,3.8363,3.6103,0.0,0.0,0.0,0.0,0.0,0.0,0.0,0.0,0.0,0.0,3.6406,3.6489,3.7351,0.0,0.0,0.0,0.0,0.0,0.0,4.0726,4.0249,4.0771,0.0,0.0,0.0,0.0,0.0,0.0,0.0,0.0,0.0,0.0,4.0218,4.0884,4.1749,4.2537,4.2604,4.4453,4.6948,4.8729,5.0775,5.2789,5.4466,5.573,5.6317,5.5154,5.3012,5.025,4.6763,4.3986,4.1595,3.9602,3.9183,3.9221,3.9312,3.9626,4.0081,4.0732,4.061,4.0663,4.1526,4.1818,4.2132,4.2698,4.4346,4.6023,4.7622,4.8809,4.5541,3.6159,2.6289,0.0,2.3485,2.4783,2.5487,2.5489,2.6784,2.7589,2.7629,3.051,3.1977,3.2152,3.3202,3.381,3.405,3.3979,3.4063,3.4204,3.4384,0.0,0.0,3.247,3.1423,2.9788,2.773,2.6047,2.4471,2.1025,1.6572,1.1657,0.0,0.0,0.0,0.0,0.0,3.5271,3.6976,3.7947,3.936,4.1713,4.1791,4.1737,4.1997,4.0006,3.8001,3.6415,3.6045,0.0,0.0,0.0,0.0,0.0,0.0,0.0,0.0,0.0,3.6313,3.6374,3.6992,3.7301,0.0,0.0,3.9372,3.8575,0.0,0.0,0.0,0.0,0.0,0.0,0.0,0.0,0.0,0.0,0.0,0.0,0.0,0.0,0.0,0.0,0.0,4.1211,4.0765,4.1962,4.407,4.6854,4.9051,5.0983,5.3082,5.4597,5.5359,5.4614,5.2507,4.9847,4.7012,4.4233,4.1781,4.0105,3.9412,3.9085,3.8959,3.9174,3.9305,3.9102,3.9041,3.9276,3.9935,3.9918,4.0245,4.1459,4.2963,4.4577,4.634,4.6726,4.3101,3.3911,2.6052,0.0,2.0071,2.2346,2.3597,2.316,2.5419,2.6697,2.7074,3.0383,3.1952,3.1989,3.3215,3.4076,3.4634,3.423,3.4459,3.5036,0.0,0.0,0.0,3.3553,3.2675,3.1255,2.9743,2.8282,2.6598,2.2534,1.7725,1.2297,0.0,0.0,0.0,0.0,0.0,0.0,3.7031,3.7986,3.9136,4.0873,4.0363,4.0164,4.1023,3.801,3.6281,3.7102,3.6401,0.0,0.0,0.0,0.0,0.0,0.0,0.0,0.0,0.0,3.7226,3.7282,3.7294,3.7299,3.7339,3.9022,3.9331,3.8575,0.0,0.0,0.0,0.0,0.0,0.0,0.0,0.0,0.0,0.0,0.0,0.0,0.0,0.0,0.0,0.0,0.0,0.0,0.0,4.1253,4.2369,4.4595,4.6568,4.8809,5.2365,5.3646,5.4345,5.5635,5.3383,5.0457,4.9163,4.5923,4.2829,4.1545,4.0443,3.9553,3.908,3.8338,3.7882,3.8002,3.7704,3.7634,3.8265,3.8183,3.8022,3.8074,4.0024,4.1889,4.2984,4.1238,3.716,3.0113,0.0,0.0,2.0601,2.2494,2.3528,2.3135,2.4758,2.6001,2.6832,2.9727,3.1512,3.1989,3.2711,3.3569,3.4397,3.3725,3.3726,0.0,0.0,0.0,0.0,3.5039,3.4682,3.4029,3.2136,3.0997,2.992,2.4479,1.9687,1.4787,0.0,0.0,0.0,0.0,0.0,0.0,3.6338,3.6621,3.7415,3.9156,3.8626,3.8635,4.0057,3.8155,3.6657,3.6333,3.5563,0.0,0.0,0.0,0.0,0.0,0.0,0.0,0.0,0.0,3.7226,3.7301,3.8498,3.8747,3.8157,3.9871,3.9564,3.7615,3.9337,3.9431,0.0,0.0,0.0,0.0,0.0,0.0,0.0,0.0,0.0,0.0,0.0,0.0,0.0,0.0,0.0,0.0,0.0,0.0,0.0,4.231,4.4674,4.7032,4.8625,4.9859,5.0717,5.0734,4.9493,4.7853,4.6248,4.4139,4.213,4.081,3.9808,3.904,3.864,3.791,3.749,3.7968,3.6942,3.63,3.6987,3.7612,3.8302,3.9283,4.311,4.5995,4.6614,0.0,3.6728,3.4393,0.0,0.0,2.1845,2.361,2.4396,2.37,2.6098,2.7849,2.88,3.1033,3.2251,3.2251,3.281,3.3654,3.462,3.4323,0.0,0.0,0.0,0.0,0.0,3.6926,3.4428,2.9766,3.3122,3.0733,2.5386,2.4814,1.973,1.2259,0.0,0.0,0.0,0.0,0.0,0.0,3.5568,3.5509,3.5908,3.6986,3.6362,3.6583,3.8594,3.6994,3.5928,3.6356,3.535,0.0,0.0,0.0,0.0,0.0,0.0,0.0,0.0,3.7263,3.7909,3.8238,3.9331,3.9566,3.9014,4.0109,3.9533,3.7634,3.8721,3.861,0.0,0.0,0.0,0.0,0.0,0.0,4.0116,0.0,0.0,0.0,0.0,0.0,0.0,0.0,0.0,0.0,0.0,0.0,0.0,0.0,4.2734,4.4672,4.6202,4.7402,4.8295,4.8619,4.7822,4.6665,4.5735,4.3792,4.1855,4.0634,3.9389,3.8258,3.7443,3.6881,3.6653,3.6865,3.584,3.5105,3.5447,3.6039,3.7098,3.8822,4.2175,4.4172,0.0,4.0783,3.7491,0.0,0.0,0.0,2.4746,2.6435,2.7285,2.7056,2.8168,2.934,3.036,3.1472,3.2376,3.3079,3.2988,3.3643,3.5009,3.4896,0.0,0.0,0.0,0.0,0.0,3.5425,3.2648,2.7684,3.0703,2.9034,2.4862,2.4032,1.9202,1.2248,0.0,0.0,0.0,0.0,0.0,0.0,0.0,3.4605,3.4605,3.4602,3.39,3.4316,3.6757,3.4915,3.4467,3.6908,3.5698,0.0,0.0,0.0,0.0,0.0,0.0,0.0,3.7109,3.8018,3.8905,3.9702,3.9822,3.9895,3.9883,3.9947,3.9384,3.8306,3.8376,3.8366,0.0,0.0,0.0,0.0,0.0,0.0,0.0,0.0,0.0,0.0,0.0,0.0,0.0,0.0,0.0,0.0,0.0,0.0,0.0,0.0,0.0,0.0,0.0,4.5959,4.6807,4.8626,4.7754,4.6539,4.6817,4.4419,0.0,4.0811,3.9071,3.7299,3.5745,3.5563,3.5513,3.5107,3.4525,3.406,3.3883,3.3868,3.4781,3.7288,3.8431,3.8198,3.6134,3.9807,3.8808,0.0,0.0,0.0,2.8948,3.0368,3.1583,3.2179,3.0903,3.0683,3.1716,3.1295,3.2125,3.4241,3.3199,3.3727,3.5621,3.5384,0.0,0.0,0.0,0.0,0.0,3.1334,2.9636,2.7099,2.6227,2.6523,2.6946,2.2524,1.8352,1.391,0.0,0.0,0.0,0.0,0.0,0.0,0.0,0.0,0.0,0.0,3.3535,3.3882,3.5144,3.4757,3.4908,0.0,0.0,0.0,0.0,0.0,0.0,0.0,0.0,0.0,3.6208,3.7069,3.7963,3.8877,4.0173,4.0761,4.0728,4.1393,4.0149,3.7356,3.8085,3.8065,0.0,0.0,0.0,0.0,0.0,0.0,0.0,0.0,0.0,0.0,3.6617,3.6032,0.0,0.0,0.0,0.0,0.0,0.0,0.0,0.0,4.0623,4.1025,4.2759,0.0,4.4497,4.5653,4.5404,4.4691,0.0,4.2581,4.0921,3.959,3.8345,3.7214,3.6199,3.5421,3.5117,3.5597,3.3798,3.2605,3.3451,3.4381,3.5714,3.7862,3.9124,3.9339,3.8157,3.7633,0.0,0.0,0.0,3.2487,3.247,3.303,3.3104,3.2695,3.3766,3.407,3.3454,3.3511,3.3616,3.3721,3.3397,3.4216,3.5971,3.5749,0.0,0.0,0.0,0.0,3.135,3.0076,2.6695,2.2915,2.8501,2.68,2.1409,2.3044,1.894,1.1624,0.0,0.0,0.0,0.0,0.0,0.0,0.0,0.0,0.0,0.0,3.2192,3.2513,3.3333,3.3835,3.4449,0.0,0.0,0.0,0.0,0.0,0.0,0.0,0.0,3.6132,3.6523,3.7402,3.8261,3.9159,4.0466,4.1073,4.0996,4.1045,3.9813,3.7549,3.7277,3.6934,0.0,0.0,0.0,0.0,3.9418,0.0,0.0,0.0,0.0,0.0,3.6477,3.594,0.0,3.718,3.7511,3.7724,0.0,0.0,0.0,0.0,4.0607,4.0712,4.1705,4.2363,4.3032,4.421,4.4202,4.3695,4.2749,4.1501,4.0041,3.8376,3.7338,3.6528,3.5776,3.5328,3.5185,3.5459,3.3454,3.1939,3.211,3.2894,3.4298,3.6546,3.7277,3.7401,0.0,0.0,0.0,0.0,0.0,3.1558,3.3184,3.3471,3.3973,3.4705,3.5776,3.5733,3.4286,3.4113,3.4347,3.49,3.44,3.4939,3.6461,3.6622,3.5995,0.0,0.0,0.0,2.642,2.548,2.2804,1.9812,2.4594,2.3686,1.9786,2.0974,1.6935,1.0265,0.0,0.0,0.0,0.0,0.0,0.0,0.0,0.0,0.0,0.0,0.0,0.0,0.0,0.0,0.0,0.0,0.0,0.0,0.0,0.0,0.0,0.0,3.5987,3.6401,3.7281,3.8026,3.8867,3.9804,4.0798,4.1229,4.1159,4.048,3.946,3.8139,3.6426,3.5704,0.0,0.0,0.0,0.0,3.8685,0.0,0.0,0.0,0.0,0.0,0.0,0.0,0.0,3.739,3.7906,3.8161,3.9926,0.0,0.0,0.0,0.0,0.0,4.1186,4.1533,4.2099,4.3465,4.3541,4.3023,4.1955,4.0562,3.8987,3.7267,3.6378,3.5711,3.5118,3.5328,3.5488,3.5202,3.3583,3.1925,3.0794,3.0977,3.1971,3.4183,3.4191,0.0,3.3722,0.0,0.0,0.0,0.0,3.1417,3.3756,3.4012,3.5066,3.7186,3.7233,3.6586,3.5038,3.4454,3.4813,3.5894,3.5223,3.5189,3.5699,3.6364,3.4446,0.0,0.0,0.0,2.1031,2.0897,1.9952,1.8684,2.0298,2.0964,2.0765,1.8501,1.4663,0.9871,0.0,0.0,0.0,0.0,0.0,0.0,0.0,0.0,0.0,0.0,0.0,0.0,0.0,0.0,0.0,0.0,0.0,0.0,0.0,0.0,0.0,3.5917,3.5971,3.6401,3.7285,3.7421,3.8262,3.98,4.1304,4.1994,4.1941,4.2468,4.1102,3.8121,3.6334,3.5601,3.5729,0.0,0.0,0.0,0.0,0.0,0.0,0.0,0.0,0.0,0.0,0.0,0.0,3.643,3.7191,3.7876,3.8746,0.0,0.0,0.0,0.0,0.0,4.0519,4.0859,4.1415,4.2592,4.2569,4.1931,4.0744,3.8982,3.7395,3.6644,3.5861,3.5362,3.5639,3.5823,3.5922,3.5856,3.4383,3.2681,3.1061,3.0943,3.1089,3.1552,0.0,3.0422,0.0,0.0,0.0,0.0,0.0,3.4027,3.8935,3.8869,3.8536,3.8275,3.8215,3.7779,3.6894,3.6615,3.5361,3.3204,3.3702,3.2729,3.057,3.135,3.0406,0.0,0.0,2.4941,2.2449,2.2302,2.2352,2.2737,2.5668,2.5828,2.3907,1.9599,1.577,1.1402,0.0,0.0,0.0,0.0,0.0,0.0,0.0,0.0,0.0,0.0,0.0,0.0,0.0,0.0,0.0,0.0,0.0,0.0,0.0,0.0,3.6152,3.6575,3.6637,3.6833,3.7239,3.8178,3.9244,4.0442,4.2104,4.2855,4.2723,4.1635,4.0036,3.8022,3.6308,3.56,3.5706,3.5779,3.597,3.63,0.0,0.0,0.0,0.0,0.0,0.0,0.0,0.0,0.0,0.0,3.65,3.6996,3.8248,0.0,0.0,0.0,0.0,0.0,3.9544,4.0226,4.0868,4.0409,4.08,4.0807,3.8916,3.7815,3.686,3.5762,3.5464,3.5453,3.5667,3.5874,3.5656,3.4605,3.32,3.1716,3.0223,2.9848,2.9427,0.0,0.0,0.0,0.0,0.0,0.0,0.0,0.0,0.0,3.9069,3.8658,3.8765,3.9659,3.7129,3.5837,3.6041,3.452,3.3682,3.3497,3.2097,3.0732,2.9448,2.9401,2.7633,2.4632,0.0,2.3099,2.1398,2.1699,2.2338,2.3435,2.6437,2.5458,2.1467,1.4287,0.84,0.3031,0.0,0.0,0.0,0.0,0.0,0.0,0.0,0.0,0.0,0.0,0.0,0.0,0.0,0.0,0.0,0.0,0.0,0.0,0.0,0.0,3.625,3.6877,3.7084,3.7487,3.8076,3.9403,4.0589,4.1597,4.3035,4.3578,4.3195,4.0949,3.9234,3.7976,3.6547,3.5824,3.5704,3.5745,3.5729,3.5736,0.0,0.0,0.0,0.0,0.0,0.0,0.0,0.0,0.0,0.0,0.0,0.0,0.0,0.0,0.0,3.9201,3.9408,3.9245,3.8696,3.9488,4.0051,3.8309,3.9141,3.9828,3.7792,3.7175,3.6712,3.5777,3.582,3.6016,3.6,3.6044,3.5423,3.3324,3.2242,3.0996,2.9117,2.8586,2.7754,2.6256,2.549,0.0,0.0,0.0,0.0,0.0,0.0,0.0,3.9251,3.8722,3.854,3.9082,3.5584,3.3365,3.2761,3.0708,3.0785,3.2919,3.0663,2.9068,2.8126,2.7351,2.4872,2.1303,2.2683,2.227,2.0759,2.2704,2.3743,2.4409,2.6774,2.3898,1.7508,0.9981,0.2545,-0.399,0.0,0.0,0.0,0.0,0.0,0.0,0.0,0.0,0.0,0.0,0.0,0.0,0.0,0.0,0.0,0.0,0.0,0.0,0.0,0.0,3.5937,3.5994,3.6771,3.8307,4.0662,4.092,4.1766,4.333,4.4132,4.4032,4.3088,4.209,4.0384,3.8151,3.7212,3.6396,3.5696,3.5718,3.5678,3.5611,3.5678,0.0,0.0,0.0,0.0,0.0,0.0,0.0,0.0,0.0,0.0,0.0,0.0,0.0,3.8184,3.8633,3.8857,3.8822,3.8231,3.8438,3.8556,3.7298,3.8204,3.9203,3.8481,3.7288,3.667,3.7721,3.7542,3.7196,3.7188,3.675,3.56,3.3156,3.2947,3.184,2.8159,0.0,2.6896,2.4896,0.0,0.0,0.0,0.0,0.0,0.0,0.0,0.0,4.2488,4.2013,3.943,3.4542,3.4224,3.1565,2.6148,2.5915,2.6873,2.8932,2.9492,2.7816,2.4083,2.3433,2.1466,1.8816,2.2149,2.3055,2.2555,2.7967,2.9185,2.7741,2.8761,2.2904,1.367,1.1157,0.4714,-0.2988,0.0,0.0,0.0,0.0,0.0,0.0,0.0,0.0,0.0,0.0,0.0,0.0,0.0,0.0,0.0,0.0,0.0,0.0,0.0,3.5571,3.6127,3.6615,3.6992,3.8135,4.0145,4.1311,4.2705,4.4312,4.4462,4.4026,4.3002,4.1156,3.9549,3.8141,3.682,3.6059,3.5766,3.5755,3.5757,3.5771,3.627,3.6082,0.0,0.0,0.0,0.0,0.0,0.0,0.0,0.0,3.4682,3.5123,3.6247,3.6702,3.7063,3.8076,3.841,3.8241,3.7524,3.8167,3.8652,3.7093,3.7849,3.8744,3.7749,3.7053,3.6886,3.7865,3.7708,3.7384,3.7194,3.6247,3.5029,3.3405,3.2458,3.1086,2.8372,2.6745,2.6131,0.0,0.0,0.0,0.0,0.0,0.0,0.0,0.0,0.0,4.2425,4.2114,4.0959,3.8937,3.3376,2.9887,2.8772,2.4072,2.2897,2.516,2.5575,2.4492,2.2064,2.3236,2.265,2.082,2.3957,2.5915,2.6867,2.7258,2.8338,2.9391,2.5712,1.7007,0.6596,0.7807,0.2462,-0.5185,0.0,0.0,0.0,0.0,0.0,0.0,0.0,0.0,0.0,0.0,0.0,0.0,0.0,0.0,0.0,0.0,0.0,0.0,3.4919,3.5482,3.6087,3.666,3.6991,3.7848,3.9294,4.1328,4.3026,4.4392,4.4471,4.3775,4.23,4.0614,3.9296,3.8221,3.6865,3.6245,3.6251,3.5967,3.5839,3.588,3.6411,3.622,0.0,0.0,0.0,0.0,0.0,0.0,0.0,0.0,3.4245,3.4494,3.5873,3.6153,3.6261,3.778,3.7853,3.7327,3.6799,3.7281,3.7625,3.6217,3.7111,3.8251,3.7761,3.7714,3.7966,3.8849,3.8376,3.7713,3.7536,3.6522,3.541,0.0,3.3632,3.2482,3.0701,2.9066,0.0,0.0,0.0,0.0,0.0,0.0,0.0,0.0,0.0,0.0,0.0,4.2142,4.0489,3.7132,3.1439,2.7414,2.5255,2.1314,2.0254,2.2159,2.3577,2.3794,2.3207,2.4437,2.4559,2.3919,2.6565,2.8542,2.9844,2.8408,2.7399,2.593,1.7843,0.9049,0.1119,0.3691,-0.0591,-0.718,0.0,0.0,0.0,0.0,0.0,0.0,0.0,0.0,0.0,0.0,0.0,0.0,0.0,0.0,0.0,0.0,0.0,0.0,3.5699,3.5696,3.5728,3.5788,3.6625,3.7538,3.8459,4.0968,4.2671,4.3494,4.421,4.3311,4.0898,4.081,3.9972,3.8456,3.7598,3.7234,3.7226,3.629,3.5907,3.5898,3.5857,3.5781,3.5795,0.0,0.0,0.0,0.0,0.0,0.0,0.0,3.4074,3.4163,3.5697,3.5915,3.5959,3.7751,3.7218,3.6001,3.6112,3.5703,3.5122,3.4393,3.5872,3.7792,3.8852,3.9442,4.0077,4.1104,3.9759,3.8418,3.8405,3.782,3.7153,3.6594,3.6862,3.6689,3.5179,3.5096,0.0,0.0,0.0,0.0,0.0,0.0,0.0,0.0,0.0,0.0,0.0,4.2504,3.7539,2.6881,2.8213,2.4028,1.3357,1.698,1.9212,2.0061,2.4073,2.6562,2.7605,2.6776,2.6847,2.7854,2.9696,3.0548,3.0673,3.2305,2.6889,1.6438,0.4943,-0.0731,-0.214,-0.058,-0.3932,-0.8561,0.0,0.0,0.0,0.0,0.0,0.0,0.0,0.0,0.0,0.0,0.0,0.0,0.0,0.0,0.0,0.0,0.0,0.0,3.5483,3.5521,3.557,3.5596,3.647,3.6822,3.655,3.8478,4.076,4.3358,4.3052,4.1886,3.9894,3.9357,3.8564,3.7585,3.7367,3.693,3.6364,3.6092,3.5975,3.6073,3.7223,3.6955,3.6056,0.0,0.0,0.0,0.0,0.0,0.0,0.0,0.0,0.0,3.5253,3.5286,3.5187,3.7437,3.7095,3.607,3.6369,3.6145,3.5849,3.5792,3.6816,3.8204,3.9553,3.9516,3.9373,4.0087,3.9964,3.9614,3.9473,3.9169,0.0,3.7034,3.6316,3.5467,3.3966,0.0,0.0,0.0,0.0,0.0,0.0,0.0,0.0,0.0,0.0,0.0,0.0,3.6957,3.3459,3.0253,2.5505,2.1811,1.9313,1.857,1.9556,2.2347,2.3497,2.4602,2.5855,2.9534,3.0362,2.9174,3.2221,2.8158,1.8734,1.1209,0.3288,-0.3877,-0.1755,-0.3829,-0.7318,-0.1807,-0.0097,-0.0398,0.0,0.0,0.0,0.0,0.0,0.0,0.0,0.0,0.0,0.0,0.0,0.0,0.0,0.0,0.0,0.0,0.0,0.0,0.0,3.5398,3.5427,3.5463,3.6369,3.6955,3.7177,3.8172,3.9499,4.1155,4.115,4.0234,3.8515,3.9081,3.8744,3.7717,3.8433,3.8105,3.6971,3.6651,3.6313,3.6118,3.7448,3.7151,3.613,0.0,0.0,0.0,0.0,0.0,0.0,0.0,0.0,0.0,3.5065,3.5065,3.4878,3.682,3.6327,3.5168,3.5188,3.4931,3.4795,3.5444,3.6503,3.7843,3.9526,4.0065,4.0263,4.0358,4.0234,4.0157,4.0336,3.9886,0.0,3.885,3.8042,3.7148,3.6354,0.0,0.0,0.0,0.0,0.0,0.0,0.0,0.0,0.0,0.0,0.0,0.0,3.4697,3.1379,2.9653,2.4177,2.0848,2.0029,1.8981,1.9885,2.2666,2.3684,2.4137,2.4306,2.97,3.1782,3.108,2.8893,2.0294,0.7001,-0.248,-0.8553,-1.1695,-0.9897,-1.0471,-1.1431,-0.4558,-0.1328,-0.0194,0.0,0.0,0.0,0.0,0.0,0.0,0.0,0.0,0.0,0.0,0.0,0.0,0.0,0.0,0.0,0.0,0.0,0.0,0.0,0.0,3.533,3.538,3.6209,3.7481,3.9226,3.9039,3.8501,3.764,3.8785,3.8486,3.692,3.9399,3.9739,3.8345,4.001,3.9863,3.832,3.7515,3.6723,3.6079,3.689,3.6681,3.6087,3.7692,0.0,0.0,0.0,0.0,0.0,0.0,0.0,0.0,3.5142,3.5148,3.4835,3.613,3.522,3.3727,3.3353,3.2913,3.2866,3.4192,3.5667,3.7341,3.9297,4.1007,4.1955,4.1305,4.0495,4.0162,4.0896,4.0122,3.9824,4.1159,4.0691,4.0274,0.0,0.0,0.0,0.0,0.0,0.0,0.0,0.0,0.0,0.0,0.0,0.0,0.0,3.4321,3.0349,2.6167,2.3573,2.0653,1.7353,1.8661,2.0205,0.0,2.407,2.437,2.3157,2.7577,3.0208,3.06,1.9546,0.7739,-0.4196,-1.1301,-1.3004,-1.1776,-1.838,-1.8682,-1.4715,-0.845,-0.6362,-0.5961,0.0,0.0,0.0,0.0,0.0,0.0,0.0,0.0,0.0,0.0,0.0,0.0,0.0,0.0,0.0,0.0,0.0,0.0,0.0,0.0,3.532,3.532,3.5499,3.6411,3.8116,3.6834,3.5987,3.5618,3.7338,3.7351,3.5855,3.7722,3.8141,3.736,3.841,3.8338,3.7359,3.6538,3.6123,3.6075,3.6889,3.6674,3.6086,3.7747,3.7845,0.0,0.0,0.0,0.0,0.0,0.0,0.0,3.5327,3.5065,3.4778,3.6057,3.4995,3.3517,3.4065,3.3977,3.4007,3.5144,3.7397,3.9711,4.1197,4.1573,4.1411,4.0613,4.028,4.0211,4.0385,4.0263,4.0075,3.9841,3.9047,3.8341,0.0,0.0,0.0,0.0,0.0,0.0,0.0,0.0,0.0,0.0,0.0,0.0,3.5025,3.0125,2.6089,2.3362,2.0865,1.9074,1.8045,1.9387,2.1026,0.0,2.2136,2.2239,2.297,2.3144,1.9262,1.178,-0.0872,-0.8659,-1.3251,-2.4398,-2.6602,-2.2819,-2.2107,-2.0187,-1.732,-1.2232,-1.1065,-1.143,0.0,0.0,0.0,0.0,0.0,0.0,0.0,0.0,0.0,0.0,0.0,0.0,0.0,0.0,0.0,0.0,0.0,0.0,0.0,0.0,3.5507,3.5848,3.5783,3.6167,3.7097,3.6119,3.5362,3.4889,3.5761,3.5831,3.5224,3.7469,3.8138,3.7482,3.8882,3.884,3.7678,3.6865,3.6326,3.6068,3.6818,3.6586,3.5942,3.7206,3.7171,3.653,3.6874,0.0,0.0,0.0,0.0,0.0,0.0,0.0,3.4563,3.5121,3.4428,3.3458,3.3404,3.3312,3.3621,3.5311,3.8011,4.0357,4.0678,4.0517,4.0147,3.9748,3.9693,3.9697,3.9687,3.907,3.852,3.842,3.7167,0.0,0.0,0.0,0.0,0.0,0.0,0.0,0.0,0.0,0.0,0.0,0.0,3.3312,3.2511,2.7985,2.4813,2.3502,2.0374,1.8785,1.8954,1.9589,2.0313,2.109,2.0711,1.8126,1.3973,2.0543,1.3847,-0.3134,-0.6038,-1.3693,-2.4548,-3.0254,-3.0007,-2.5862,-2.3851,-2.0969,-1.7622,-1.4455,-1.4137,-1.4972,0.0,0.0,0.0,0.0,0.0,0.0,0.0,0.0,0.0,0.0,0.0,0.0,0.0,0.0,0.0,0.0,0.0,0.0,0.0,0.0,0.0,3.6427,3.6102,3.6065,3.631,3.5888,3.5367,3.4733,3.452,3.4577,3.4981,3.7545,3.8408,3.7913,3.9548,3.9482,3.8093,3.7286,3.6554,3.6009,3.6577,3.6347,3.5766,3.6422,3.6237,3.5679,3.5978,3.5841,3.5519,3.5465,0.0,0.0,0.0,0.0,3.4556,3.4292,3.3895,3.3385,3.2527,3.2508,3.3142,3.5177,3.7857,3.9823,3.9228,3.8883,3.8642,3.8641,3.8631,3.8572,3.8469,3.7113,3.6138,3.6602,3.5144,0.0,0.0,0.0,0.0,0.0,0.0,0.0,0.0,0.0,0.0,0.0,0.0,3.1399,3.0192,2.7098,2.4972,2.4181,2.1021,1.9456,1.9802,1.9671,1.9385,1.8785,1.8715,1.2985,0.2768,1.586,0.8352,-1.4675,-0.8374,-1.6055,-3.2889,-3.1343,-2.8623,-2.5344,-2.4089,-2.1407,-1.8065,-1.6826,-1.7428,-1.8751,0.0,0.0,0.0,0.0,0.0,0.0,0.0,0.0,0.0,0.0,0.0,0.0,0.0,0.0,0.0,0.0,0.0,0.0,0.0,0.0,0.0,3.6197,3.5381,3.5243,3.5958,3.5174,3.4674,3.4454,3.4409,3.4755,3.5453,3.6757,3.743,3.7581,3.8005,3.7795,3.7054,3.6232,3.5868,3.584,3.5931,3.5862,3.5699,3.5689,3.5572,3.5565,3.6444,3.6273,3.5708,3.6542,3.659,0.0,0.0,0.0,3.5327,3.4768,3.4014,3.325,3.2921,3.3454,3.4354,3.5379,3.6781,3.7969,3.8251,3.7976,3.7477,3.6941,3.6446,3.6073,3.5983,3.4933,3.4037,3.3782,3.2968,0.0,0.0,0.0,0.0,0.0,0.0,0.0,0.0,0.0,0.0,0.0,3.1723,3.0547,2.7994,2.7098,2.5319,2.2337,2.206,2.1439,2.0506,2.002,1.9309,1.8231,1.4187,0.7028,-0.2477,0.2376,-0.48,-2.1224,-2.285,-2.5805,-2.9388,-2.7996,-2.6364,-2.4609,-2.2405,-2.1668,-2.1964,-2.2045,-2.3712,-2.6089,0.0,0.0,0.0,0.0,0.0,0.0,0.0,0.0,0.0,0.0,0.0,0.0,0.0,0.0,0.0,0.0,0.0,0.0,0.0,0.0,0.0,3.5183,3.467,3.4433,3.4612,3.4303,3.4062,3.3836,3.4037,3.474,3.591,3.6533,3.7276,3.8118,3.7844,3.7695,3.7544,3.6256,3.5718,3.5727,3.5496,3.5089,3.4648,3.4891,3.4697,3.4404,3.5383,3.5596,3.5495,3.5937,3.6085,3.6049,3.5755,0.0,0.0,0.0,3.4304,3.3778,3.3077,3.335,3.3767,3.3509,3.4331,3.5106,3.4992,3.4808,3.4496,3.3815,3.2878,3.2637,3.4147,3.2916,3.1742,3.1907,3.0975,0.0,0.0,0.0,0.0,0.0,0.0,0.0,0.0,0.0,0.0,0.0,2.9529,2.83,2.6277,2.5496,2.429,2.2457,2.0854,1.9691,1.9141,1.8465,1.729,1.5548,1.1273,0.5506,-0.1524,-0.5639,-1.2923,-2.218,-2.2257,-2.4672,-2.8493,-2.8067,-2.6627,-2.4519,-2.2754,-2.2674,-2.37,-2.5172,-2.7336,-2.9817,0.0,0.0,0.0,0.0,0.0,0.0,0.0,0.0,0.0,0.0,0.0,0.0,0.0,0.0,0.0,0.0,0.0,0.0,0.0,0.0,0.0,3.3938,3.3784,3.3597,3.334,3.3552,3.357,3.3367,3.3707,3.4779,3.6552,3.6537,3.7455,3.9022,3.8271,3.7827,3.7577,3.6382,3.5669,3.5284,3.4715,3.4056,3.3482,3.3597,3.3419,3.3217,3.4017,3.462,3.5095,3.516,3.5399,3.563,3.5487,3.5424,0.0,0.0,0.0,3.4263,3.3049,3.3255,3.3405,3.1803,3.1703,3.1847,3.1386,3.0576,2.9919,2.9949,2.8915,2.8716,3.1142,3.0479,2.9706,2.9989,2.9203,0.0,0.0,0.0,0.0,0.0,0.0,0.0,0.0,0.0,0.0,0.0,2.7487,2.6366,2.4623,2.3975,2.3131,2.1934,1.997,1.8596,1.8031,1.6968,1.4887,1.1748,0.9506,0.5081,-0.1373,-0.8877,-1.4247,-1.7675,-1.9735,-2.3275,-2.7569,-2.7216,-2.5991,-2.4245,-2.3562,-2.3946,-2.5189,-2.7934,-3.0238,-3.2331,0.0,0.0,0.0,0.0,0.0,0.0,0.0,0.0,0.0,0.0,0.0,0.0,3.4032,3.4069,3.4003,3.3677,3.3652,3.3529,3.3268,3.3024,3.2811,3.2724,3.2606,0.0,3.2642,3.3009,3.3273,3.3314,3.3634,3.5092,3.7503,3.6748,3.7813,4.0271,3.9078,3.7679,3.6235,3.6334,3.5585,3.4297,3.3163,3.2668,3.245,3.1409,3.1554,3.2415,3.2761,3.3571,3.451,3.4802,3.5186,3.5512,3.556,3.5591,3.5541,0.0,0.0,0.0,3.2722,3.3487,3.4095,3.113,2.9354,2.8363,2.8342,2.5544,2.3449,2.5308,2.4681,2.43,2.5819,2.7246,2.8076,2.7745,2.763,0.0,0.0,0.0,0.0,0.0,0.0,0.0,0.0,0.0,0.0,0.0,2.6451,2.5549,2.289,2.327,2.2356,1.9576,2.0511,2.0118,1.818,1.6401,1.2586,0.6865,0.8852,0.4494,-0.5383,-0.6031,-0.589,-0.5922,-2.0059,-2.595,-2.5394,-2.346,-2.2896,-2.3395,-2.4313,-2.5467,-2.7047,-3.0997,-3.3016,-3.4267,0.0,0.0,0.0,0.0,0.0,0.0,0.0,0.0,0.0,0.0,0.0,0.0,0.0,3.3534,3.3291,3.2877,3.2335,3.1847,3.1515,3.1351,3.1403,3.176,3.1723,3.1757,3.1951,3.255,3.2813,3.2666,3.3291,3.4495,3.6191,3.603,3.6898,3.8591,3.829,3.7947,3.7537,3.695,3.6352,3.5614,3.3833,3.2465,3.1427,3.032,3.011,3.0459,3.1183,3.2746,3.4493,3.4815,3.5646,3.6543,3.628,3.6269,3.625,3.5607,3.496,3.4202,3.3025,3.2526,3.1889,3.0051,2.7103,2.4474,2.3837,2.0694,1.7975,1.828,1.8164,1.8447,1.9772,2.338,2.6275,2.6596,2.6678,0.0,0.0,0.0,0.0,0.0,0.0,0.0,0.0,0.0,0.0,0.0,0.0,2.2974,2.1685,2.0927,1.999,1.8737,1.7012,1.6239,1.6609,1.6802,1.4506,0.9794,0.8421,0.4053,-0.2835,-0.7438,-0.9859,-1.091,-2.0032,-2.1173,-1.6585,-1.6432,-1.9432,-2.4104,-2.4529,-2.6143,-2.8497,-3.1043,-3.3421,-3.5641,0.0,0.0,0.0,0.0,0.0,0.0,0.0,0.0,0.0,3.4179,0.0,0.0,0.0,0.0,3.2415,3.1794,3.098,3.0384,3.0104,2.9953,3.0037,3.049,3.0644,3.0948,3.1421,3.2369,3.2773,3.2582,3.3287,3.4384,3.5831,3.5562,3.6305,3.79,3.7699,3.771,3.7783,3.6648,3.5983,3.548,3.2737,3.1358,3.0759,2.9236,2.9161,2.9875,3.0478,3.2004,3.3813,3.4055,3.4722,3.5518,3.5778,3.6063,3.6189,3.564,3.4876,3.4075,3.3554,3.2566,3.1458,3.0595,2.5663,2.0965,2.0764,1.6063,1.1917,1.233,1.2737,1.3433,1.4915,1.8488,2.1931,2.4297,2.5246,0.0,0.0,0.0,0.0,0.0,0.0,0.0,0.0,0.0,0.0,0.0,0.0,0.0,1.9824,1.8638,1.7191,1.5428,1.4805,1.4435,1.4284,1.4222,1.2489,0.9071,0.47,0.0336,-0.4057,-0.7971,-1.0068,-1.0842,-1.5086,-1.6553,-1.6,-1.6315,-1.9825,-2.498,-2.4965,-2.6998,-3.0207,-3.2013,-3.43,-3.658,0.0,0.0,0.0,0.0,0.0,0.0,0.0,0.0,3.433,3.3868,0.0,0.0,0.0,0.0,0.0,3.0435,2.9708,2.922,2.9132,2.8903,2.8779,2.8858,2.9454,3.0194,3.1087,3.2485,3.3188,3.319,3.3652,3.4811,3.6622,3.542,3.613,3.8368,3.7376,3.6841,3.6618,3.5291,3.4457,3.3688,2.9848,2.9263,3.048,2.8078,2.8602,3.0652,3.0509,3.1234,3.2303,3.2521,3.2451,3.2525,3.4192,3.4983,3.5327,3.5378,3.4803,3.4136,0.0,0.0,0.0,3.2726,2.5066,1.7982,1.9245,1.1768,0.5284,0.7655,0.8473,0.9384,1.1301,1.2542,1.5027,2.037,2.3,2.431,0.0,0.0,0.0,0.0,0.0,0.0,0.0,0.0,0.0,0.0,2.0961,1.9723,1.7104,1.6337,1.3835,0.9205,1.3861,1.4637,1.0829,0.8207,0.5813,0.3615,-0.23,-0.6842,-0.9818,-0.7792,-0.6012,-0.467,-0.5979,-1.3395,-2.4431,-2.3203,-2.402,-2.6044,-2.5758,-2.8213,-3.2199,-3.411,-3.5762,-3.7117,0.0,0.0,0.0,0.0,0.0,0.0,3.4515,3.4401,3.4218,0.0,0.0,0.0,3.302,3.1873,3.0691,2.9629,2.8872,2.8288,2.7944,2.773,2.783,2.8319,2.9328,3.0254,3.1104,3.2572,3.3313,3.319,3.3335,3.404,3.5261,3.4705,3.5087,3.6103,3.5616,3.5239,3.4928,3.5283,3.524,3.4669,3.1716,3.0069,2.9211,2.6934,2.6658,2.7485,2.7583,2.9253,3.1566,0.0,3.3876,3.5403,3.6615,3.6274,3.5477,3.5586,3.4257,3.2809,3.3037,0.0,0.0,0.0,0.0,0.0,1.6036,0.8591,0.1824,0.2409,0.3209,0.427,0.5929,0.7774,0.98,1.1898,1.7215,2.1488,0.0,0.0,0.0,0.0,0.0,0.0,0.0,0.0,0.0,0.0,1.8885,1.6896,1.4054,0.9929,0.5634,0.1372,0.257,0.127,-0.3033,-0.1765,-0.2557,-0.5429,-0.793,-1.1034,-1.4575,-1.6185,-1.6717,-1.668,-2.0517,-2.4039,-2.6503,-1.9012,-2.0444,-2.7462,-2.8195,-2.9802,-3.2059,-3.4499,-3.5814,-3.6606,0.0,0.0,0.0,0.0,0.0,3.4917,3.4298,3.4414,3.4485,0.0,0.0,0.0,3.2752,3.1444,3.0051,2.8622,2.7834,2.7174,2.6616,2.6698,2.7062,2.775,2.8859,3.0129,3.1532,3.2796,3.3592,3.3844,3.3844,3.4258,3.492,3.4416,3.449,3.5098,3.4592,3.4137,3.3758,3.3596,3.3631,3.3567,3.0315,2.8853,2.833,2.6199,2.5922,2.6707,2.6965,2.8446,3.0449,3.1407,3.3256,0.0,3.5132,3.5037,3.4932,3.4816,3.3418,3.2053,3.2733,3.1642,3.0607,3.1797,0.0,0.0,1.5935,0.8931,0.2196,0.0,0.0072,0.0932,0.2307,0.3792,0.5313,0.7069,1.117,1.5564,0.0,0.0,0.0,0.0,0.0,0.0,0.0,2.3049,2.121,1.8851,1.6668,1.343,0.8966,0.4265,-0.0566,-0.5553,-0.4239,-0.5797,-1.0675,-1.0143,-1.0425,-1.1588,-1.5557,-1.8156,-1.9565,-2.1355,-2.2426,-2.3139,-2.6835,-2.8688,-2.8641,-2.3254,-2.4337,-2.9361,-2.9434,-3.0529,-3.2264,-3.3832,-3.5103,-3.6134,0.0,0.0,3.4298,3.4134,3.4909,3.5224,3.4289,3.4623,3.4971,0.0,3.451,3.3653,3.2141,3.0956,2.9528,2.772,2.6878,2.6122,2.5453,2.5865,2.6489,2.7308,2.8457,3.0012,3.2088,3.3144,3.3951,3.4533,3.461,3.4797,3.5063,3.4219,3.4167,3.4704,3.3937,3.3308,3.2725,3.0952,3.0558,3.0761,2.7279,2.6612,2.7448,2.5608,2.5666,2.6734,2.7193,2.7939,2.8898,2.982,3.1579,0.0,0.0,3.2535,3.3779,3.3419,3.2291,3.1411,3.2657,3.1651,3.0841,3.34,2.8193,0.0,1.7489,1.1194,0.468,0.0,-0.1558,-0.1067,0.0,0.0572,0.169,0.426,0.5186,0.8322,0.0,0.0,0.0,0.0,0.0,0.0,2.3949,2.2288,1.9987,1.6918,1.3686,0.9131,0.294,-0.0945,-0.5815,-1.1878,-0.9527,-1.0695,-1.59,-1.8274,-1.8569,-1.6955,-2.3904,-2.6282,-2.4574,-2.4587,-2.5137,-2.6197,-2.8214,-2.9742,-3.0863,-3.189,-3.2048,-3.1521,-3.0269,-3.1016,-3.2792,-3.2899,-3.4117,-3.568,0.0,3.3895,3.4097,3.4706,3.4972,3.523,3.5604,3.5227,3.5096,3.563,3.5331,3.4436,3.2815,3.1293,2.9781,2.8359,2.6741,2.5728,2.5563,2.6014,2.6623,2.7417,2.9064,3.0468,3.1511,3.3203,3.3874,3.3423,3.3627,3.3781,3.3822,3.3442,3.3159,3.2992,3.2555,3.1656,3.0392,2.8856,2.7651,2.6666,2.6929,2.6172,2.4785,2.4209,2.3577,2.314,2.3934,2.5134,2.6732,2.978,3.1633,3.271,0.0,0.0,0.0,3.2117,0.0,2.9279,3.1204,3.111,3.0847,0.0,2.8442,0.0,1.6466,1.0772,0.4927,0.0,-0.242,-0.194,-0.1499,-0.1269,-0.0892,-0.0298,0.0451,0.4906,1.6196,0.0,0.0,0.0,0.0,0.0,2.4266,2.1512,1.8333,1.4763,0.7662,0.2229,-0.0567,-0.6861,-1.3007,-1.8712,-2.1934,-2.5689,-3.0085,-3.0621,-2.9921,-2.8065,-2.8757,-2.9203,-2.9429,-2.9006,-2.9622,-3.1071,-3.2321,-3.2957,-3.3196,-3.4007,-3.3906,-3.3204,-3.2955,-3.3286,-3.3949,-3.4341,-3.4728,-3.5031,3.421,3.3927,3.4008,3.5412,3.5661,3.576,3.604,3.5897,3.5838,3.6125,3.5665,3.4627,3.2817,3.123,2.955,2.76,2.6278,2.548,2.5398,2.5479,2.6288,2.7853,2.8873,3.0172,3.1859,3.2882,3.3371,3.3223,3.3453,3.3355,3.306,3.2653,3.1871,3.0773,3.0745,2.9941,2.8498,2.755,2.6244,2.4902,2.5197,2.4414,2.2989,2.2183,2.193,2.1992,2.2424,2.3861,2.5966,2.8167,3.0117,0.0,3.0604,3.0584,3.0762,0.0,2.8939,2.8333,0.0,0.0,0.0,3.2392,0.0,0.0,0.0,1.754,1.3528,0.7729,0.418,0.2178,0.25,-0.0139,-0.2225,-0.1928,0.063,0.5976,1.5423,1.6903,0.0,0.0,0.0,0.0,2.2088,1.9814,1.5756,0.8795,0.2296,-0.2528,-0.5321,-1.1067,-1.6789,-2.2261,-2.6607,-3.0487,-3.392,-3.4127,-3.3404,-3.1785,-3.0809,-3.0433,-3.0603,-3.0625,-3.1226,-3.2263,-3.3429,-3.367,-3.331,-3.4089,-3.3897,-3.3155,-3.3614,-3.3956,-3.4142,-3.3641,-3.3861,-3.4331,3.4302,3.3844,3.3773,3.5549,3.5853,3.586,3.5879,3.5981,3.5952,3.5794,3.5397,3.4425,3.2722,3.0885,2.9139,2.7273,2.5953,2.5317,2.548,2.5167,2.5963,2.8158,2.8423,2.9547,3.1906,3.2124,3.2415,3.2779,3.2977,3.2754,3.2097,3.1641,3.0648,2.911,2.9015,2.8366,2.7305,2.6295,2.5091,2.3735,2.2903,2.2191,2.1472,2.0424,2.0564,2.1261,2.1455,2.3005,2.5094,2.6036,2.7871,2.9511,2.757,2.8171,0.0,0.0,0.0,0.0,0.0,0.0,0.0,0.0,0.0,3.0179,0.0,0.0,0.0,0.0,0.0,0.0,0.0,0.0,0.0,0.0,0.0,0.0,0.0,1.6979,0.0,0.0,0.0,0.0,0.0,1.5931,1.1298,0.2312,-0.1881,-0.5699,-0.9451,-1.3862,-1.8635,-2.3685,-2.7677,-3.0932,-3.34,-3.3922,-3.3468,-3.2117,-3.1231,-3.0676,-3.0532,-3.1032,-3.1696,-3.2512,-3.3704,-3.3851,-3.3282,-3.3767,-3.3631,-3.3175,-3.3691,-3.3983,-3.3933,-3.256,-3.2752,-3.3552,3.292,3.2961,3.3144,3.4103,3.4214,3.4398,3.5044,3.4428,3.3862,3.3612,3.4049,3.4047,3.3022,3.0308,2.8783,2.938,2.6466,2.5156,2.6437,2.5968,2.6298,2.7748,2.824,2.9054,3.0317,3.0703,3.0778,3.0659,3.0983,3.0852,3.0271,3.0225,2.9864,2.9218,2.774,2.7234,2.7328,2.4585,2.2845,2.1824,2.0935,2.037,0.0,2.0004,1.9497,1.9101,1.9955,2.1393,2.2962,0.0,2.5561,2.6594,0.0,2.5473,2.565,2.5104,0.0,0.0,0.0,0.0,0.0,0.0,3.1473,0.0,0.0,0.0,2.3294,1.7257,0.0,0.0,0.0,0.0,0.0,0.0,0.0,0.0,2.3793,2.4066,2.3437,0.0,0.0,0.0,0.0,0.7187,0.3028,-0.1496,-0.4039,-0.6999,-1.0635,-1.4756,-1.8877,-2.2719,-2.7208,-3.0375,-3.2096,-3.3103,-3.277,-3.1133,-3.0156,-3.0122,-3.0934,-3.1064,-3.2198,-3.4082,-3.4777,-3.5104,-3.5134,-3.4502,-3.4691,-3.5249,-3.428,-3.3808,-3.3561,-3.2695,-3.2556,-3.2656,3.3257,3.2802,3.2651,3.4005,3.3671,3.3403,3.3966,3.3819,3.3508,3.3148,3.3434,3.3416,3.271,3.0794,2.9566,2.9681,2.7407,2.6396,2.7418,2.6449,2.6505,2.8106,2.8051,2.8605,2.976,3.0036,3.0029,2.9827,2.9728,2.933,2.8657,2.8657,2.7921,2.6579,2.5816,2.5064,2.4238,2.3018,2.1834,2.0766,0.0,2.0044,0.0,1.8742,1.839,1.835,1.9166,1.9929,2.0634,0.0,2.2677,0.0,0.0,0.0,0.0,2.2774,0.0,0.0,0.0,0.0,0.0,0.0,0.0,0.0,2.8,0.0,2.8122,0.0,0.0,0.0,0.0,0.0,0.0,0.0,1.73,0.0,0.0,0.0,2.9326,0.0,0.0,0.0,0.0,0.0,0.0,0.0,-0.4373,-0.7226,-1.1066,-1.4781,-1.88,-2.3155,-2.7308,-3.007,-3.1421,-3.2458,-3.2269,-3.0825,-2.9962,-3.0042,-3.1025,-3.1512,-3.2627,-3.4225,-3.4983,-3.5081,-3.4663,-3.4369,-3.4139,-3.3957,-3.3968,-3.4246,-3.4472,-3.3101,-3.278,-3.2889,3.2991,3.2547,3.2334,3.3429,3.3002,3.2574,3.2731,3.2892,3.2821,3.241,3.2327,3.223,3.2129,3.0749,2.9875,2.9937,2.8197,2.7299,2.7974,2.6751,2.6459,2.7521,2.7488,2.7732,2.8402,2.8504,2.8557,2.8657,2.7991,2.7472,2.7018,2.6938,2.6114,2.4657,2.4218,2.3385,2.2266,2.1834,2.0982,1.9903,1.9917,1.9345,1.8351,1.7722,1.748,1.76,1.7917,1.8137,1.8239,1.8152,1.9563,0.0,1.9007,0.0,2.204,0.0,0.0,0.0,2.3459,0.0,0.0,0.0,0.0,0.0,0.0,0.0,0.0,0.0,0.0,0.0,0.0,0.0,0.0,0.0,0.0,2.7457,0.0,3.1216,0.0,0.0,0.0,0.0,0.0,0.0,0.0,-0.1638,-0.2359,-0.4824,-1.0309,-1.3693,-1.7771,-2.2872,-2.6647,-2.9344,-3.0977,-3.1854,-3.1704,-3.0517,-2.9951,-2.9962,-3.063,-3.1632,-3.2666,-3.378,-3.4768,-3.4909,-3.4401,-3.4207,-3.384,-3.3424,-3.3763,-3.4374,-3.4878,-3.3284,-3.2897,-3.2997,3.1209,3.1902,3.2299,3.1696,3.1806,3.185,3.1245,3.1119,3.1014,3.0797,3.0287,3.0279,3.134,2.952,2.9008,3.0796,2.8465,2.7275,2.8019,2.7035,2.6024,2.5242,2.6193,2.6409,2.572,2.5416,2.566,2.6501,2.5283,2.4885,2.5392,2.4957,2.4779,2.4637,2.3362,2.284,2.2849,2.0992,1.9764,1.9084,1.8459,1.7666,1.7,0.0,1.7,1.6264,1.5842,0.0,0.0,1.5499,1.6289,0.0,0.0,0.0,0.0,0.0,0.0,0.0,0.0,0.0,0.0,2.2208,0.0,0.0,0.0,0.0,2.7837,0.0,0.0,0.0,0.0,0.0,0.0,2.8583,0.0,0.0,0.0,0.0,0.0,0.0,0.0,0.0,0.0,0.0,0.0,-0.0912,0.2831,0.1496,-0.8001,-1.1248,-1.5434,-2.1205,-2.471,-2.7856,-3.0682,-3.1272,-3.1042,-3.0017,-2.9853,-2.975,-2.9689,-3.1086,-3.2076,-3.282,-3.4165,-3.4937,-3.5195,-3.4287,-3.4389,-3.5021,-3.4006,-3.3863,-3.4124,-3.3026,-3.2684,-3.2588,3.0768,3.1384,3.1581,3.102,3.0021,2.9258,2.9055,2.9383,2.9769,3.0089,3.0211,3.0586,3.1419,3.0527,3.0183,3.091,2.8972,2.7745,2.7686,2.6714,2.5844,2.5282,2.5828,2.6021,2.5812,2.5144,2.5199,2.6057,2.4425,2.4008,2.4696,2.4325,2.4047,2.3952,2.2705,2.1868,2.1217,2.0133,1.9114,1.8128,0.0,1.6902,1.6384,0.0,0.0,1.551,1.4781,1.4311,0.0,1.3916,1.4139,1.423,1.3276,1.4119,1.5401,1.4777,1.5256,0.0,0.0,0.0,1.5523,1.6969,0.0,0.0,0.0,0.0,0.0,0.0,0.0,0.0,0.0,0.0,0.0,3.0023,0.0,0.0,0.0,0.0,0.0,0.0,0.0,0.0,0.0,0.0,0.0,0.9084,0.9133,0.568,-0.3244,-0.1988,-0.753,-2.1757,-2.0516,-2.3016,-3.0175,-3.0983,-3.0833,-2.9781,-2.9901,-3.0452,-3.1411,-3.1742,-3.2563,-3.3728,-3.4415,-3.4843,-3.5014,-3.4793,-3.479,-3.4894,-3.4499,-3.4122,-3.379,-3.3003,-3.2697,-3.253,2.9667,2.9784,2.9915,3.0288,2.9089,2.8126,2.8432,2.8552,2.8738,2.9082,2.9106,2.9356,2.9954,0.0,2.9414,0.0,2.8387,2.7384,2.6673,2.5938,0.0,2.4026,2.4319,2.426,2.3734,2.3231,2.331,2.3898,2.2648,2.2381,2.2977,2.2606,2.2403,2.2264,2.1795,2.0857,1.9727,1.9715,1.8706,1.7098,0.0,1.5821,0.0,0.0,1.4595,1.479,0.0,1.3163,1.2648,1.2203,1.2058,1.1942,1.0958,1.1639,1.2646,1.2243,1.251,1.2964,1.3447,1.2696,0.0,1.2247,1.1228,0.0,0.8567,0.0,0.0,0.0,0.0,0.0,0.0,0.0,0.0,2.3806,2.3465,0.0,0.0,2.4136,0.0,0.0,0.0,0.0,0.0,0.0,2.0743,1.2269,1.2191,0.9277,0.0,0.0,-0.6534,-1.9489,-2.0408,-2.4159,-3.1382,-3.179,-3.151,-3.0657,-3.0764,-3.123,-3.2004,-3.2122,-3.2675,-3.3606,-3.4093,-3.4402,-3.4564,-3.4491,-3.451,-3.4563,-3.4261,-3.3815,-3.3335,-3.2973,-3.2362,-3.1683,2.7927,2.7382,2.7556,2.9392,2.8859,2.8443,0.0,0.0,2.7888,2.7685,2.7091,2.6747,2.6995,2.6945,2.685,2.6966,2.6657,2.6058,2.509,2.4724,0.0,0.0,2.186,2.1335,1.9879,0.0,0.0,2.0257,2.0142,2.0269,2.0498,2.0129,1.9904,1.9904,2.0547,1.9993,1.8621,1.9451,1.8375,1.612,1.518,1.4576,1.4132,1.3021,1.3294,1.4037,1.2899,1.2246,1.1732,1.0478,1.0168,1.0231,0.9221,0.9448,1.004,0.9857,1.0034,1.0255,1.0037,1.0202,0.9991,0.7903,0.0,0.0,0.0,0.0,-0.5708,0.0,0.0,0.0,0.0,0.0,0.0,0.0,1.1719,0.0,0.0,0.0,1.9841,0.0,0.0,2.1301,1.6576,2.1788,2.0668,0.9043,1.205,1.1875,0.0,0.0,-1.1757,-1.5304,-2.3872,-3.0211,-3.3936,-3.3359,-3.2817,-3.2378,-3.2358,-3.208,-3.1634,-3.2241,-3.2506,-3.2524,-3.3284,-3.378,-3.3998,-3.3543,-3.3678,-3.4105,-3.3403,-3.2978,-3.2713,-3.2809,-3.1702,-3.0208,2.7525,2.7157,2.6878,2.7236,2.7064,2.6876,0.0,0.0,0.0,0.0,2.6609,2.6554,2.5853,2.583,2.5793,2.5543,2.4861,0.0,0.0,0.0,0.0,2.1753,2.2072,2.1863,2.0834,2.0581,2.0482,2.0647,2.0156,2.012,2.0498,2.0216,2.007,1.9904,2.006,1.9383,1.799,1.8239,1.7316,1.56,1.4506,1.4367,0.0,0.0,1.2697,1.2398,1.1746,1.1059,1.0518,1.0341,0.9746,0.8846,0.8036,0.7905,0.8021,0.7493,0.7642,0.7647,0.6029,0.4271,0.2361,0.0551,-0.1917,-0.4948,0.0,0.0,0.0,0.0,0.0,0.0,0.0,0.0,0.0,0.6013,0.747,0.7122,0.0,0.0,0.0,0.7558,0.0,1.1261,1.4558,1.6063,1.5481,1.2229,1.1987,0.787,-0.1586,0.0,0.0,-2.3662,-2.1619,-2.4118,-3.2245,-3.2286,-3.2291,-3.2329,-3.257,-3.2768,-3.2996,-3.2867,-3.3082,-3.3607,-3.3743,-3.3972,-3.4221,-3.3986,-3.3839,-3.3733,-3.3458,-3.2642,-3.1702,-3.1823,-3.1449,-3.0878,2.6402,2.6325,2.6218,2.6064,0.0,0.0,2.6184,2.626,0.0,2.5464,2.5524,0.0,2.4063,2.3824,2.3602,2.3258,2.2562,0.0,2.2337,0.0,0.0,2.125,2.1111,2.0615,1.9584,1.9316,0.0,1.9234,1.8948,1.9016,1.9319,1.9182,1.9036,1.887,1.9289,1.8779,1.7556,1.6822,1.5848,1.467,1.3514,1.3086,0.0,1.2091,1.1488,1.0988,1.0633,1.0225,0.981,0.99,0.9456,0.8711,0.7731,0.7499,0.7288,0.5666,0.4831,0.4125,0.241,0.0747,-0.1097,-0.3576,-0.7052,-1.1122,-1.616,-2.1997,-2.6917,0.0,0.0,0.0,0.0,0.0,0.0,-0.527,0.0,0.0,0.0,0.0,0.0,0.0,-0.2147,0.0,0.3313,0.7424,0.935,0.8218,0.657,0.3245,0.0,0.0,0.0,-2.2753,-2.3907,-2.7214,-3.3263,-3.3861,-3.3946,-3.3583,-3.3687,-3.3827,-3.3868,-3.3625,-3.3652,-3.3868,-3.3815,-3.3895,-3.4023,-3.3616,-3.3458,-3.3411,-3.2688,-3.1811,-3.0982,-3.0845,-3.0576,-3.0267,2.5111,2.5335,2.5554,2.5405,0.0,0.0,0.0,2.599,0.0,2.4675,0.0,2.3388,2.1882,2.1365,2.1006,2.0692,2.0215,2.015,2.0622,2.0447,2.0228,2.0181,1.947,1.8549,1.7379,1.7494,1.7439,0.0,0.0,1.752,1.764,1.7743,1.7588,1.724,1.8364,1.8136,1.7019,1.5328,1.4276,1.3543,1.2358,1.1455,1.0815,1.0478,1.0143,0.9819,0.964,0.9444,0.9262,0.9204,0.9075,0.8753,0.7657,0.7231,0.6614,0.3912,0.1904,0.0269,-0.0894,-0.1797,-0.3219,-0.6384,-1.0803,-1.5821,-2.1342,-2.6637,-3.1129,-3.3927,-3.4875,-3.4933,0.0,0.0,0.0,-1.7734,0.0,0.0,0.0,0.0,0.0,0.0,0.0,0.0,-1.0486,-0.2145,0.237,-0.0,-0.1668,-0.2376,0.0,0.0,0.0,-1.9023,-2.8242,0.0,-3.5235,0.0,-3.6119,-3.5353,-3.5102,-3.4794,-3.4413,-3.434,-3.4105,-3.3788,-3.3762,-3.3726,-3.3625,-3.2988,-3.2876,-3.2929,-3.1578,-3.0824,-3.0418,-2.9924,-2.9454,-2.9044,2.5111,2.5323,2.5308,2.4548,0.0,2.4371,2.4497,2.4945,2.4545,2.2735,2.3012,2.2529,2.0226,2.0172,1.9868,1.8743,1.8535,0.0,0.0,0.0,0.0,1.8161,1.8169,1.7622,1.6418,1.7126,1.7361,0.0,0.0,0.0,1.683,1.7311,1.685,1.5777,1.7133,1.6957,1.5498,1.4403,0.0,1.2271,1.1702,1.1557,1.1531,1.0719,1.0102,0.961,0.871,0.8322,0.8285,0.8554,0.7902,0.6859,0.6494,0.5218,0.337,0.1108,-0.0912,-0.2628,-0.3831,-0.6472,-0.9377,-1.125,-1.4681,-1.8567,-2.2247,-2.6152,-2.9787,-3.2373,-3.3319,-3.3482,-3.2834,0.0,0.0,0.0,0.0,0.0,0.0,0.0,0.0,0.0,0.0,-1.205,0.0,-0.8312,-0.6219,-0.7843,-0.8651,0.0,0.0,0.0,0.0,0.0,-2.9742,0.0,0.0,0.0,-3.5017,-3.6181,-3.5339,-3.4775,-3.4576,-3.4371,-3.4298,-3.4284,-3.4105,-3.3876,-3.3597,-3.3429,-3.2787,-3.181,-3.0999,-3.0318,-2.975,-2.9454,-2.9106,-2.87,2.6205,2.6016,2.5786,2.5681,0.0,0.0,0.0,2.4093,2.3624,2.2467,2.256,2.2053,2.0482,1.9602,1.8994,1.8272,1.7419,1.7066,1.7621,1.7462,1.7405,1.7477,1.7458,1.7167,1.6487,1.6007,1.605,1.6628,0.0,0.0,0.0,0.0,0.0,1.4978,1.562,1.5446,0.0,0.0,0.0,1.1687,1.0973,1.0491,1.0085,0.9119,0.8687,0.8309,0.7351,0.6726,0.6453,0.7316,0.7199,0.6622,0.5693,0.4011,0.1946,-0.0141,-0.2865,-0.5281,-0.5965,-0.7901,-1.0083,-1.1734,-1.4612,-1.7798,-2.087,-2.4145,-2.7089,-2.9042,-2.9784,-2.9817,-2.8925,-2.5863,0.0,0.0,0.0,0.0,0.0,0.0,-1.5325,0.0,0.0,0.0,0.0,0.0,0.0,0.0,0.0,0.0,0.0,0.0,0.0,0.0,0.0,0.0,0.0,0.0,0.0,-3.5456,-3.5223,-3.5016,-3.4851,-3.4793,-3.4672,-3.4502,-3.4439,-3.4074,-3.3496,-3.2769,-3.2004,-3.121,-3.036,-2.9837,-2.9515,-2.9183,-2.892,-2.8732,2.6523,2.6104,2.5789,0.0,2.5433,0.0,2.3657,2.313,2.2755,2.2482,2.2255,2.1642,2.0628,1.9347,1.8303,1.7772,1.6476,1.5978,1.6476,1.6389,1.6448,1.6622,1.6445,1.6229,1.6071,1.4752,1.4633,0.0,0.0,0.0,0.0,0.0,0.0,0.0,0.0,0.0,0.0,0.0,1.169,1.0707,0.9863,0.8974,0.8046,0.7095,0.6755,0.6662,0.5572,0.5005,0.4882,0.5749,0.6156,0.5962,0.4411,0.2732,0.0914,-0.1296,-0.4385,-0.7082,-0.736,-0.8154,-0.9344,-1.109,-1.3434,-1.5979,-1.863,-2.1502,-2.4042,-2.5613,-2.6478,-2.6703,-2.5922,-2.5213,0.0,0.0,0.0,0.0,0.0,0.0,0.0,0.0,0.0,0.0,-1.9271,0.0,0.0,0.0,0.0,0.0,0.0,0.0,0.0,0.0,0.0,-3.2944,-3.3232,0.0,-3.5101,0.0,-3.4944,-3.5053,-3.5038,-3.5091,-3.4908,-3.4626,-3.4567,-3.4056,-3.3207,-3.1916,-3.1206,-3.0804,-2.9853,-2.947,-2.938,-2.9091,-2.8967,-2.8967,0.0,0.0,0.0,0.0,0.0,0.0,2.2045,2.1882,2.182,2.182,2.1731,2.0997,1.9255,1.888,1.7926,1.5821,1.5523,1.5402,1.5197,1.492,1.4629,1.4389,1.4517,1.4278,1.3645,1.3623,1.3711,0.0,0.0,0.0,0.0,0.0,0.0,0.0,0.0,0.0,0.0,1.0684,0.9813,0.847,0.8107,0.7403,0.6317,0.542,0.5027,0.4885,0.3485,0.3687,0.4558,0.403,0.3763,0.3224,0.1473,0.0624,-0.0361,-0.3559,-0.5628,-0.7015,-0.7508,-0.8549,-0.9856,-1.1184,-1.2675,-1.4393,-1.6315,-1.8789,-2.1266,-2.3376,-2.5262,-2.6646,-2.6904,-2.5553,-2.4423,0.0,0.0,0.0,0.0,0.0,-1.9687,-1.8637,0.0,0.0,0.0,-2.1546,0.0,0.0,-2.0737,0.0,0.0,0.0,0.0,-2.845,0.0,-3.2634,-3.4338,-3.3798,0.0,-3.5245,-3.46,-3.4496,-3.4832,-3.4772,-3.473,-3.4653,-3.4184,-3.3458,-3.2621,-3.149,-3.0845,-3.0477,-2.9766,-2.9335,-2.9167,-2.9425,-2.9544,-2.9589,0.0,0.0,0.0,0.0,0.0,0.0,0.0,2.1624,2.1194,2.097,2.1328,2.1006,1.9621,1.878,1.7627,1.5943,1.5378,1.4936,1.4302,1.4236,1.4055,1.3581,1.3454,1.3487,1.3681,1.2835,1.274,0.0,0.0,0.0,0.0,0.0,0.0,0.0,0.0,0.9115,0.8862,0.8817,0.8072,0.6721,0.6222,0.5616,0.4989,0.4198,0.3871,0.3678,0.2681,0.2751,0.3153,0.2084,0.1545,0.1142,0.0478,-0.1196,-0.2987,-0.378,-0.5274,-0.6832,-0.73,-0.824,-0.9421,-1.0633,-1.1946,-1.3364,-1.4845,-1.69,-1.8806,-1.9995,-2.1876,-2.3475,-2.3955,-2.3552,-2.3038,0.0,0.0,0.0,0.0,0.0,0.0,-1.9061,0.0,-2.1712,0.0,0.0,0.0,0.0,0.0,0.0,0.0,0.0,0.0,-2.8981,0.0,-3.1199,-3.273,-3.2581,-3.3033,-3.4045,-3.3943,-3.4078,-3.4386,-3.4427,-3.4364,-3.419,-3.357,-3.2836,-3.1987,-3.1072,-3.0477,-3.0011,-2.947,-2.938,-2.9544,-2.9677,-2.9881,-3.0208,2.4573,0.0,2.3513,0.0,2.2515,2.1995,2.2101,2.1615,2.0953,2.0386,2.0589,2.039,1.9274,1.8164,1.6926,1.5616,1.4982,1.4346,1.3574,1.3697,1.3612,1.3028,1.2866,0.0,1.3426,1.2038,1.1749,1.2594,1.083,0.0,0.0,0.0,0.0,0.0,0.756,0.7179,0.6999,0.7009,0.6343,0.5301,0.486,0.4276,0.3655,0.3149,0.2816,0.2482,0.2013,0.1947,0.195,0.0876,0.0067,-0.0606,-0.1175,-0.2759,-0.4419,-0.3858,-0.4921,-0.6364,-0.6616,-0.7656,-0.8925,-0.9906,-1.1197,-1.2533,-1.3819,-1.5573,-1.7191,-1.8213,-1.9707,-2.1018,-2.1699,-2.194,-2.1994,-2.1741,0.0,0.0,0.0,-1.9709,0.0,-1.9901,-2.1331,-2.2597,-2.3379,-2.4579,0.0,0.0,0.0,0.0,0.0,0.0,0.0,0.0,0.0,0.0,0.0,-3.1708,-3.2109,-3.2602,-3.2889,-3.3211,-3.3469,-3.3663,-3.3655,-3.3497,-3.2991,-3.2382,-3.1683,-3.0993,-3.0418,-2.9968,-2.9633,-2.9633,-2.9837,-3.0097,-3.0444,-3.0897,2.2891,2.2608,2.2167,2.1571,2.1562,2.1642,2.1482,2.1562,2.1221,2.0,1.9613,1.9001,1.7658,1.6646,1.5609,1.4334,1.397,1.3582,1.3023,1.3238,1.3065,0.0,0.0,1.2688,1.2318,1.1288,1.0647,1.0437,0.0,0.0,0.8399,0.0,0.6223,0.4687,0.5196,0.5314,0.5012,0.5129,0.4793,0.4224,0.4302,0.3497,0.2248,0.219,0.1788,0.1143,0.1143,0.1144,0.1079,0.0607,-0.0539,-0.2096,-0.404,-0.4284,-0.3879,-0.4049,-0.4795,-0.5548,-0.5401,-0.686,-0.8642,-0.918,-1.0438,-1.1881,-1.3199,-1.4944,-1.689,-1.8774,-1.966,-2.0306,-2.1126,-2.1498,-2.1777,-2.2227,0.0,0.0,0.0,0.0,0.0,-2.1331,-2.2566,-2.323,-2.2847,-2.4293,0.0,0.0,0.0,0.0,0.0,0.0,0.0,-3.0763,-3.2369,0.0,-3.0712,-3.132,-3.1441,-3.113,-3.1414,-3.1706,-3.2036,-3.2302,-3.2492,-3.2588,-3.247,-3.2214,-3.1858,-3.1317,-3.0845,-3.0477,-3.0477,-3.0225,-2.9924,-3.0747,-3.1304,-3.161,2.2236,2.2246,2.1998,2.0835,2.0546,2.0357,2.0175,1.9422,1.8685,1.8057,1.7378,1.6676,1.5943,1.5665,1.495,0.0,1.3343,1.3121,0.0,1.252,1.2169,1.1169,1.1226,1.0952,1.0276,0.9905,0.9718,0.9644,0.0,0.0,0.0,0.5154,0.477,0.5081,0.4748,0.4161,0.3447,0.4218,0.3635,0.2216,0.2585,0.2443,0.2059,0.1682,0.1345,0.1104,0.1083,0.1077,0.1079,0.0944,-0.0269,-0.1892,-0.2638,-0.3189,-0.3613,-0.378,-0.4694,-0.5672,-0.5912,-0.7201,-0.8708,-0.9765,-1.1003,-1.2235,-1.3252,-1.5293,-1.7345,-1.8829,-1.9672,-2.0514,-2.1609,-2.1919,-2.2088,-2.2604,-2.1996,0.0,0.0,0.0,-2.0484,-2.0653,-2.1619,-2.2601,0.0,-2.4484,0.0,0.0,0.0,0.0,0.0,0.0,0.0,0.0,-3.0876,0.0,-3.1373,-3.0513,-3.0718,-3.1924,-3.1558,-3.1594,-3.2,-3.2429,-3.226,-3.1737,-3.2004,-3.1623,-3.0828,-3.0625,-3.0335,-3.0011,-3.0011,-3.0293,-3.0707,-3.1004,-3.1511,-3.2127,2.1587,2.1436,2.1168,2.0093,1.9712,1.9521,1.9255,1.8214,1.7154,1.6463,1.5415,1.4441,1.3652,1.3597,0.0,1.3231,1.262,1.2058,1.1635,1.1294,1.0775,0.9981,1.004,0.982,0.9296,0.0,0.0,0.8367,0.6861,0.571,0.4762,0.3635,0.3455,0.3974,0.3458,0.2804,0.2211,0.3248,0.2938,0.168,0.2088,0.2208,0.1977,0.1432,0.1157,0.1117,0.1087,0.1077,0.1078,0.0808,-0.0203,-0.1441,-0.1973,-0.2728,-0.3493,-0.3739,-0.4832,-0.6076,-0.6291,-0.7621,-0.9194,-0.9932,-1.1377,-1.2907,-1.4255,-1.5896,-1.7448,-1.851,-1.9573,-2.0562,-2.1211,-2.1883,-2.2392,-2.2531,-2.2211,-2.1892,-2.1566,0.0,-2.1065,0.0,0.0,0.0,0.0,-2.4569,0.0,0.0,0.0,0.0,0.0,0.0,0.0,-3.1029,-3.0814,0.0,-3.123,-3.0814,-3.1158,-3.2262,-3.1242,-3.0957,-3.1259,-3.1191,-3.1031,-3.087,-3.1138,-3.0881,-3.0234,-3.0234,-3.0038,-2.975,-3.0081,-3.0485,-3.0958,-3.1562,-3.1972,-3.2318,2.0819,2.0357,0.0,0.0,1.9055,0.0,1.8696,1.7545,1.6292,1.5095,1.3812,1.2586,1.1176,1.0852,1.1383,1.3056,0.0,0.0,0.0,0.9776,0.9203,0.8856,0.8993,0.9064,0.8912,0.7363,0.6594,0.6594,0.4836,0.3924,0.3678,0.2948,0.2274,0.1873,0.1547,0.1367,0.1264,0.2312,0.2439,0.2022,0.258,0.2454,0.1945,0.1392,0.1179,0.1123,0.1093,0.108,0.0944,0.027,-0.0275,-0.0847,-0.2027,-0.2918,-0.3551,-0.3815,-0.5234,-0.6699,-0.656,-0.8146,-0.9798,-0.9843,-1.1516,-1.3657,-1.5603,-1.6478,-1.7113,-1.7861,-1.9332,-2.0438,-2.0132,-2.1495,-2.2469,-2.2027,-2.247,-2.26,-2.1866,0.0,0.0,0.0,0.0,0.0,0.0,-2.453,-2.5154,0.0,0.0,0.0,0.0,0.0,-3.1756,-3.1286,-3.1871,-3.1623,-3.0544,-3.1853,-3.2385,-3.2152,-3.0704,-2.9972,-2.9893,-2.9014,-2.9087,-2.9989,-2.9972,-2.9972,-2.9989,-3.0031,-2.9832,-2.9601,-3.0452,-3.0673,-3.0684,-3.2247,-3.255,-3.2266,0.0,0.0,1.9621,1.8703,1.7956,1.7296,1.6807,1.5152,1.3674,1.2859,1.2333,1.1833,1.1262,1.0863,1.084,1.1198,1.0269,0.9607,0.9483,0.9092,0.8282,0.6919,0.6915,0.6374,0.514,0.4678,0.4525,0.4533,0.3754,0.3178,0.2861,0.236,0.1968,0.1584,0.1501,0.108,0.0497,0.1786,0.1876,0.1094,0.1894,0.2222,0.1992,0.1507,0.1223,0.1186,0.1156,0.0847,0.0417,0.0213,-0.0503,-0.1446,-0.2395,-0.3532,-0.4533,-0.4336,-0.5438,-0.6925,-0.7785,-0.893,-1.004,-1.0474,-1.1406,-1.2565,-1.3528,-1.4967,-1.6196,-1.6971,-1.8497,-2.0036,-2.1035,-2.1732,-2.2128,-2.2206,-2.2275,-2.203,-2.1301,-2.2063,0.0,0.0,-2.3496,-2.434,-2.4794,-2.503,-2.5531,0.0,0.0,0.0,0.0,-2.8996,-2.9943,-3.1059,-3.1501,-3.171,-3.1704,-3.187,-3.1933,-3.1746,-3.1166,-3.0394,-2.9433,-2.8885,-2.8624,-2.8639,-2.8932,-2.8932,-2.8825,-2.9164,-2.9118,-2.8887,-2.9492,-2.9919,-3.0342,-3.1674,-3.1955,-3.1873,1.8372,1.8126,1.7855,1.6842,1.6285,1.571,1.5317,1.3567,1.2172,1.1757,1.0551,0.9698,0.9593,0.8974,0.8527,0.8332,0.872,0.8723,0.8069,0.7512,0.6538,0.5143,0.5065,0.4681,0.383,0.3443,0.2898,0.2195,0.2115,0.1891,0.1516,0.1038,0.0724,0.0651,0.0163,-0.0326,-0.0735,0.1001,0.1254,0.0664,0.1887,0.2217,0.1982,0.1531,0.1251,0.1132,0.0883,0.0506,0.0071,-0.0869,-0.1613,-0.2295,-0.3399,-0.4543,-0.5473,-0.5961,-0.7025,-0.8174,-0.8964,-0.9802,-1.0581,-1.1115,-1.1593,-1.2182,-1.3091,-1.4515,-1.5782,-1.6398,-1.8309,-2.0023,-2.0598,-2.1616,-2.2335,-2.2243,-2.2412,-2.2451,-2.2085,-2.2695,0.0,-2.3296,-2.3966,-2.4553,-2.4951,-2.5077,-2.5339,-2.5782,0.0,0.0,-2.7272,-2.7609,-2.8566,-3.0227,-3.0796,-3.1482,-3.2417,-3.2628,-3.2352,-3.1649,-3.076,-3.0021,-2.9342,-2.8248,-2.7865,-2.811,-2.8,-2.8048,-2.8143,-2.824,-2.8321,-2.8465,-2.8919,-2.9329,-2.9798,-3.162,-3.1957,-3.1632,1.6965,1.6372,1.5717,1.4873,1.4688,1.4496,1.4196,1.2455,1.1139,1.1017,0.8869,0.734,0.7312,0.6673,0.6117,0.5817,0.7152,0.7604,0.6612,0.5687,0.4686,0.3752,0.3597,0.3519,0.3443,0.2586,0.1569,0.0392,0.0627,0.0548,0.0157,-0.0392,-0.0549,-0.0549,-0.1492,-0.1887,-0.181,0.008,0.0648,0.0406,0.1876,0.229,0.188,0.1313,0.1121,0.0998,0.0299,-0.0074,-0.0515,-0.2205,-0.2981,-0.3487,-0.4844,-0.5744,-0.6559,-0.8139,-0.9114,-0.9785,-1.0121,-1.0618,-1.1125,-1.1544,-1.1722,-1.1984,-1.31,-1.4448,-1.5575,-1.5984,-1.8223,-2.0009,-1.9814,-2.1416,-2.2722,-2.2447,-2.2876,-2.3228,-2.3241,0.0,-2.4095,-2.4283,-2.4641,-2.4937,-2.5175,-2.5258,-2.5203,-2.5021,-2.53,-2.577,0.0,-2.6611,-2.741,-2.8931,-3.0083,-3.1404,-3.2982,-3.3512,-3.3051,-3.1641,-3.0083,-2.9307,-2.9154,-2.7433,-2.71,-2.7806,-2.724,-2.7291,-2.7675,-2.7363,-2.758,-2.8122,-2.8512,-2.8732,-2.9138,-3.1577,-3.1966,-3.1361,1.6404,1.5717,1.5242,1.5057,1.4484,1.3902,1.3318,1.1446,0.9901,0.927,0.7795,0.674,0.6618,0.641,0.6343,0.612,0.6241,0.6053,0.5323,0.4846,0.4146,0.3209,0.2899,0.2353,0.1727,0.102,0.0706,0.0784,0.0392,-0.0078,-0.047,-0.0548,-0.0941,-0.1649,-0.1808,-0.1887,-0.1811,-0.0564,-0.0161,-0.0079,0.1101,0.1541,0.1343,0.0683,0.0423,0.033,-0.0322,-0.134,-0.2477,-0.2709,-0.3645,-0.4972,-0.6579,-0.719,-0.7694,-0.9745,-1.0578,-1.093,-1.1095,-1.1109,-1.1048,-1.1125,-1.1249,-1.1458,-1.1754,-1.3537,-1.5171,-1.5375,-1.7446,-1.9431,-2.0268,-2.162,-2.282,-2.3742,-2.3729,-2.3606,-2.3533,0.0,-2.4941,-2.4863,-2.6312,-2.7348,-2.7342,-2.6916,-2.6549,-2.6404,-2.5853,-2.555,-2.5688,-2.5742,-2.6159,-2.7029,-3.0092,-3.245,-3.3957,-3.3652,-3.2725,-3.1289,-3.012,-2.8936,-2.7784,-2.6909,-2.6669,-2.6893,-2.6797,-2.6953,-2.7174,-2.7174,-2.7261,-2.7464,-2.7959,-2.8137,-2.8437,-3.0607,-3.1065,-3.072,1.5545,1.4848,1.4286,1.3908,1.3522,1.3141,1.2549,1.0905,0.9541,0.8889,0.7197,0.5967,0.5908,0.5544,0.5232,0.5124,0.5014,0.4717,0.4157,0.3942,0.3444,0.2507,0.204,0.1649,0.1335,0.0628,0.0235,0.0078,-0.0549,-0.1097,-0.1489,-0.1568,-0.1569,-0.1572,-0.2042,-0.2042,-0.1649,-0.0556,-0.0475,-0.0866,0.0577,0.0827,0.0244,-0.0084,-0.0252,-0.0412,-0.165,-0.2459,-0.3322,-0.4941,-0.5868,-0.6723,-0.8327,-0.8832,-0.9039,-1.0518,-1.1211,-1.1571,-1.1666,-1.157,-1.139,-1.1201,-1.1308,-1.1699,-1.2358,-1.3787,-1.5291,-1.6437,-1.8261,-1.989,-2.0974,-2.22,-2.3306,-2.397,-2.4035,0.0,0.0,-2.5253,-2.5586,-2.6056,-2.6926,-2.7479,-2.7458,-2.7071,-2.6849,-2.6916,-2.6365,-2.5893,-2.555,-2.6122,-2.629,-2.598,-2.9176,-3.1196,-3.1789,-3.1872,-3.1368,-3.0403,-2.9402,-2.8657,-2.8254,-2.7573,-2.7327,-2.7393,-2.7312,-2.7312,-2.7458,-2.7174,-2.7174,-2.7408,-2.784,-2.7806,-2.784,-3.0295,-3.0676,-3.0126,1.4797,1.4105,1.3409,1.2785,1.2684,1.249,1.2002,1.0382,0.9116,0.8594,0.659,0.5104,0.5104,0.4656,0.4265,0.4181,0.4002,0.3662,0.3332,0.3176,0.2743,0.196,0.1492,0.1257,0.11,0.0393,-0.0157,-0.0628,-0.1412,-0.1803,-0.1804,-0.2118,-0.1884,-0.1178,-0.1805,-0.1882,-0.1568,-0.0549,-0.0708,-0.1504,-0.0,0.0161,-0.0641,-0.1084,-0.1255,-0.1486,-0.3188,-0.388,-0.4446,-0.6903,-0.7795,-0.8238,-0.9737,-1.0196,-1.0346,-1.118,-1.1627,-1.1827,-1.1749,-1.1799,-1.1796,-1.1404,-1.1671,-1.2215,-1.3161,-1.4379,-1.581,-1.7543,-1.9069,-2.042,-2.1365,-2.2713,-2.3871,-2.4307,0.0,0.0,0.0,-2.6339,-2.6484,-2.7186,-2.7425,-2.7515,-2.7429,-2.7159,-2.699,-2.7159,-2.6759,-2.6297,-2.5742,-2.6322,-2.6308,-2.555,-2.8154,-2.972,-3.0022,-3.0299,-3.0186,-2.963,-2.8824,-2.8561,-2.8703,-2.8206,-2.7993,-2.791,-2.7799,-2.7815,-2.7925,-2.7342,-2.7342,-2.7775,-2.7905,-2.764,-2.749,-2.9925,-3.0198,-2.9562,1.4667,1.3636,1.2791,1.2479,1.2441,1.2247,1.1677,0.9705,0.8143,0.783,0.5772,0.4389,0.4389,0.43,0.4265,0.4181,0.3746,0.3411,0.3332,0.2462,0.1959,0.1882,0.1492,0.1021,0.0393,-0.0236,-0.055,-0.0628,-0.1804,-0.1883,-0.0707,-0.1333,-0.1333,-0.0629,-0.0707,-0.1099,-0.1568,-0.0863,-0.1033,-0.162,-0.0811,-0.0575,-0.0838,-0.2312,-0.2934,-0.3102,-0.483,-0.5952,-0.6759,-0.7431,-0.8199,-0.9115,-1.0581,-1.1037,-1.1186,-1.2224,-1.2137,-1.1601,-1.123,-1.1443,-1.1724,-1.1676,-1.2196,-1.284,-1.3283,-1.4831,-1.6425,-1.7678,-1.9069,-2.0355,-2.1262,-2.2834,-2.4308,-2.5396,0.0,0.0,-2.7629,-2.7876,-2.7913,-2.7842,-2.8389,-2.8669,-2.8525,-2.7944,-2.7515,-2.7297,-2.6811,-2.6351,-2.6056,-2.5577,-2.555,-2.5957,-2.7438,-2.9071,-3.0876,-3.0366,-2.9867,-2.9327,-2.9027,-2.8576,-2.8084,-2.8284,-2.8107,-2.7625,-2.783,-2.811,-2.8367,-2.7464,-2.7765,-2.8716,-2.8073,-2.7595,-2.7488,-2.9,-2.9245,-2.8997,1.4091,1.3158,1.2291,1.2204,1.2312,1.2078,1.1091,0.9515,0.8114,0.7171,0.5461,0.43,0.43,0.4253,0.4118,0.3824,0.353,0.3113,0.2518,0.2144,0.1803,0.157,0.1414,0.1178,0.0943,0.0319,-0.0,-0.0,-0.0882,-0.1042,-0.0641,-0.0869,-0.0628,-0.0079,-0.0471,-0.0707,-0.0943,-0.0717,-0.145,-0.2597,-0.1624,-0.2056,-0.3271,-0.3637,-0.4108,-0.4853,-0.6057,-0.6702,-0.718,-0.8267,-0.8868,-0.9378,-1.0709,-1.1111,-1.1186,-1.1558,-1.1335,-1.0962,-1.1037,-1.1328,-1.1703,-1.2647,-1.3201,-1.3852,-1.4975,-1.6312,-1.7658,-1.8971,-2.0314,-2.1464,-2.2389,-2.3602,-2.4695,-2.523,0.0,-2.6878,-2.6872,-2.77,-2.8152,-2.7692,-2.7926,-2.8182,-2.8427,-2.7944,-2.763,-2.7845,-2.761,-2.7034,-2.6108,-2.5175,-2.5119,-2.6162,-2.678,-2.7817,-2.9397,-2.9249,-2.9144,-2.9059,-2.875,-2.8529,-2.8365,-2.859,-2.851,-2.8137,-2.8463,-2.8511,-2.8253,-2.7825,-2.771,-2.7845,-2.7825,-2.7357,-2.6922,-2.8738,-2.8773,-2.8167,1.3705,1.3046,1.2301,1.2042,1.2081,1.176,1.0683,0.9396,0.8143,0.6825,0.5528,0.4556,0.4263,0.4118,0.3802,0.3491,0.3141,0.259,0.2009,0.182,0.1569,0.1335,0.1335,0.1178,0.1021,0.0559,0.0402,0.0402,-0.0322,-0.0402,-0.0,-0.0237,-0.0,0.0628,0.0157,-0.0236,-0.0629,-0.0644,-0.1704,-0.3167,-0.2373,-0.3144,-0.4777,-0.4646,-0.5212,-0.6156,-0.7173,-0.7588,-0.7712,-0.8796,-0.9236,-0.9404,-1.0433,-1.0807,-1.0824,-1.0906,-1.057,-1.0374,-1.1208,-1.1247,-1.1483,-1.3201,-1.3995,-1.473,-1.6053,-1.7456,-1.8755,-1.9781,-2.1117,-2.2341,-2.2991,-2.4142,-2.5049,-2.5232,-2.644,-2.7176,-2.672,-2.7749,-2.8263,-2.7503,-2.7577,-2.7739,-2.7985,-2.7891,-2.787,-2.7825,-2.8137,-2.7631,-2.6094,-2.5273,-2.5287,-2.6229,-2.6336,-2.7034,-2.8411,-2.8541,-2.8605,-2.8669,-2.8525,-2.8381,-2.8204,-2.8542,-2.851,-2.8299,-2.8637,-2.8622,-2.8365,-2.8039,-2.784,-2.771,-2.7725,-2.7255,-2.6765,-2.8258,-2.8173,-2.7473,1.3879,1.3404,1.2785,1.1915,1.1698,1.1342,1.0357,0.946,0.834,0.6888,0.5981,0.5066,0.4268,0.3821,0.3411,0.3341,0.2517,0.201,0.1885,0.1492,0.1335,0.1335,0.1335,0.1021,0.0314,0.0314,0.0314,0.0314,-0.0314,0.0079,0.1258,0.0628,0.0629,0.1335,0.1257,0.055,-0.0629,-0.0644,-0.1704,-0.3172,-0.2833,-0.3528,-0.4789,-0.5323,-0.6141,-0.7111,-0.8237,-0.8568,-0.8686,-0.905,-0.9155,-0.9242,-0.9745,-1.0045,-1.024,-1.0418,-1.0083,-0.9949,-1.1566,-1.1229,-1.0971,-1.3067,-1.4445,-1.5477,-1.6017,-1.8056,-1.9787,-1.9768,-2.1386,-2.2771,-2.2946,-2.424,-2.5358,-2.5621,-2.6895,-2.7697,-2.7422,-2.8257,-2.8513,-2.7409,-2.7563,-2.7603,-2.7144,-2.8003,-2.8159,-2.7181,-2.8291,-2.8159,-2.6218,-2.6122,-2.6122,-2.6068,-2.6122,-2.6864,-2.8348,-2.8541,-2.8414,-2.8125,-2.8462,-2.814,-2.7348,-2.791,-2.8137,-2.8005,-2.7974,-2.8238,-2.8638,-2.8024,-2.8155,-2.8638,-2.7894,-2.7393,-2.7122,-2.7458,-2.7291,-2.7004,1.4267,1.3318,1.2487,1.2238,1.1937,1.1373,1.0245,0.9482,0.8653,0.725,0.6048,0.5385,0.5186,0.4153,0.3353,0.3336,0.2479,0.1818,0.1492,0.1335,0.1335,0.1335,0.1335,0.1178,0.1021,0.1038,0.0966,0.0966,0.0805,0.0966,0.1288,0.1109,0.11,0.1257,0.0786,0.0157,-0.0629,-0.1207,-0.213,-0.3328,-0.2851,-0.3594,-0.491,-0.4695,-0.5244,-0.611,-0.6416,-0.6962,-0.7464,-0.6731,-0.7432,-0.8638,-0.9118,-0.9346,-0.9458,-0.9905,-0.9352,-0.9018,-1.1045,-1.1085,-1.1254,-1.434,-1.5394,-1.6028,-1.7576,-1.91,-2.0081,-1.9807,-2.1371,-2.2773,-2.2684,-2.3659,-2.4499,-2.4554,-2.5859,-2.6609,-2.6089,-2.6965,-2.7529,-2.7186,-2.6144,-2.6133,-2.7874,-2.7256,-2.7042,-2.7618,-2.7291,-2.7044,-2.6954,-2.64,-2.5938,-2.5508,-2.5728,-2.6347,-2.7327,-2.7825,-2.8268,-2.8669,-2.8414,-2.8171,-2.7959,-2.8122,-2.7925,-2.7342,-2.7363,-2.7449,-2.75,-2.682,-2.7056,-2.766,-2.6587,-2.6443,-2.6826,-2.6916,-2.7056,-2.7261,1.481,1.388,1.3039,1.2448,1.2152,1.1505,1.0231,0.9698,0.8949,0.7382,0.6477,0.5907,0.5567,0.4552,0.3777,0.3768,0.2765,0.1883,0.1335,0.1571,0.1805,0.1805,0.2118,0.1961,0.1335,0.1275,0.1285,0.1285,0.1285,0.1285,0.1284,0.1266,0.1335,0.1257,0.0471,-0.0314,-0.0944,-0.1609,-0.2444,-0.3279,-0.284,-0.3585,-0.4795,-0.4342,-0.483,-0.5719,-0.5719,-0.6074,-0.641,-0.5664,-0.6323,-0.7537,-0.7805,-0.816,-0.8484,-0.9019,-0.8611,-0.8421,-1.0551,-1.0808,-1.1178,-1.4531,-1.5707,-1.6502,-1.8424,-1.9752,-2.0459,-1.9825,-2.1466,-2.29,-2.2568,-2.3605,-2.4447,-2.4447,-2.5222,-2.5753,-2.5486,-2.6091,-2.6538,-2.6526,-2.5716,-2.5722,-2.6937,-2.7034,-2.7525,-2.8781,-2.7979,-2.7455,-2.7365,-2.6961,-2.6287,-2.5286,-2.5494,-2.5918,-2.6573,-2.6573,-2.7027,-2.7963,-2.7944,-2.7695,-2.7306,-2.761,-2.7595,-2.7291,-2.7056,-2.6858,-2.6724,-2.6352,-2.6433,-2.6732,-2.5859,-2.6016,-2.6616,-2.6534,-2.652,-2.6611,1.5311,1.481,1.4055,1.279,1.2534,1.1935,1.0294,1.0038,0.9356,0.7539,0.7097,0.6561,0.5705,0.4955,0.4508,0.4472,0.329,0.2275,0.157,0.2198,0.2588,0.2588,0.3366,0.3052,0.157,0.1492,0.1492,0.1492,0.1414,0.1414,0.1414,0.1335,0.1335,0.1257,0.0235,-0.0549,-0.118,-0.1848,-0.2404,-0.2846,-0.2639,-0.3273,-0.4294,-0.4034,-0.4555,-0.5346,-0.5427,-0.5518,-0.5598,-0.5586,-0.5811,-0.6083,-0.6324,-0.6849,-0.7512,-0.7919,-0.793,-0.8218,-1.0164,-1.0455,-1.093,-1.3916,-1.5557,-1.6809,-1.849,-1.998,-2.0761,-1.9869,-2.1523,-2.2974,-2.2451,-2.3678,-2.4779,-2.4732,-2.4795,-2.5001,-2.5348,-2.5403,-2.5545,-2.5689,-2.591,-2.5871,-2.5358,-2.7316,-2.9052,-3.0216,-2.9681,-2.8825,-2.7801,-2.77,-2.7011,-2.5605,-2.537,-2.5494,-2.6026,-2.5078,-2.5204,-2.6428,-2.699,-2.6782,-2.5865,-2.664,-2.7174,-2.7458,-2.6893,-2.6476,-2.6258,-2.6451,-2.6317,-2.5981,-2.5646,-2.5954,-2.6563,-2.6404,-2.6,-2.5728,1.6154,1.5401,1.4727,1.4055,1.3379,1.2357,1.0982,1.0636,0.978,0.7971,0.7368,0.6936,0.6525,0.5431,0.4745,0.4867,0.4068,0.3443,0.3287,0.3443,0.3521,0.3521,0.3677,0.3597,0.3287,0.3056,0.3056,0.3287,0.243,0.2118,0.2198,0.1571,0.1335,0.1257,0.0471,0.0079,-0.0079,-0.0711,-0.1036,-0.121,-0.114,-0.1337,-0.172,-0.2125,-0.2401,-0.2616,-0.3173,-0.4132,-0.5241,-0.6358,-0.5689,-0.4741,-0.648,-0.694,-0.6861,-0.761,-0.791,-0.8264,-0.9362,-0.9873,-1.0808,-1.3147,-1.4896,-1.6341,-1.7856,-1.9233,-2.0032,-1.9453,-2.0718,-2.1756,-2.1339,-2.2307,-2.3007,-2.2477,-2.2816,-2.3455,-2.4196,-2.401,-2.4426,-2.6244,-2.5224,-2.5012,-2.6792,-2.7884,-2.8876,-2.9964,-2.9564,-2.9391,-2.9729,-2.834,-2.7371,-2.704,-2.5308,-2.5007,-2.6215,-2.4553,-2.4328,-2.564,-2.563,-2.5535,-2.537,-2.5875,-2.6308,-2.6721,-2.615,-2.6172,-2.6556,-2.6016,-2.6294,-2.6975,-2.6083,-2.6381,-2.7306,-2.6774,-2.6826,-2.7137,1.7139,1.6304,1.5545,1.4475,1.3886,1.2948,1.1068,1.0722,0.9957,0.8142,0.7528,0.7154,0.6837,0.6,0.5302,0.5015,0.4611,0.4222,0.383,0.4144,0.4377,0.4377,0.4611,0.4766,0.4766,0.446,0.4146,0.383,0.3132,0.2666,0.251,0.2041,0.1649,0.1257,0.0392,0.0078,0.0079,-0.0628,-0.079,-0.0639,-0.0639,-0.0653,-0.0756,-0.1079,-0.1258,-0.1366,-0.2278,-0.3405,-0.4608,-0.5237,-0.5041,-0.4861,-0.6277,-0.6809,-0.7015,-0.7718,-0.803,-0.825,-0.9074,-0.9755,-1.0645,-1.2329,-1.3896,-1.5518,-1.7639,-1.8919,-1.9539,-1.9469,-2.0089,-2.0634,-2.0867,-2.1471,-2.1996,-2.2147,-2.2277,-2.2634,-2.3647,-2.3549,-2.3942,-2.5591,-2.52,-2.553,-2.7432,-2.7749,-2.8333,-2.9552,-2.9435,-2.932,-2.9449,-2.8856,-2.7949,-2.681,-2.6072,-2.5612,-2.5385,-2.424,-2.3748,-2.3992,-2.4644,-2.4813,-2.4646,-2.5218,-2.5823,-2.6283,-2.5701,-2.5479,-2.5576,-2.5601,-2.5721,-2.584,-2.5773,-2.6012,-2.6336,-2.6404,-2.6654,-2.6811,1.7992,1.7236,1.637,1.4803,1.4307,1.3457,1.1316,1.0859,1.0081,0.8304,0.772,0.7222,0.682,0.6506,0.6022,0.5318,0.5237,0.4927,0.43,0.4846,0.5237,0.516,0.5628,0.5864,0.5864,0.5476,0.4927,0.4144,0.3756,0.3368,0.2899,0.2744,0.2275,0.1492,0.0549,0.0157,0.0157,-0.0549,-0.0628,-0.0314,-0.0314,-0.0318,-0.0325,-0.0323,-0.0491,-0.0835,-0.1911,-0.3121,-0.4066,-0.3982,-0.4513,-0.5363,-0.608,-0.6704,-0.7334,-0.7949,-0.8178,-0.8327,-0.9003,-0.9679,-1.0489,-1.1459,-1.2927,-1.4789,-1.7115,-1.8188,-1.8894,-1.9222,-1.9371,-1.9756,-2.0469,-2.0847,-2.1354,-2.2136,-2.2019,-2.2266,-2.3341,-2.3481,-2.3838,-2.4862,-2.563,-2.644,-2.751,-2.747,-2.789,-2.9129,-2.9296,-2.9163,-2.8736,-2.9123,-2.8426,-2.6489,-2.6903,-2.6377,-2.4787,-2.4191,-2.3443,-2.2503,-2.3734,-2.4168,-2.391,-2.4654,-2.5356,-2.6014,-2.5412,-2.4957,-2.4706,-2.5483,-2.5275,-2.4544,-2.5483,-2.5547,-2.5216,-2.5742,-2.6054,-2.6,1.8443,1.7695,1.7033,1.6221,1.5228,1.4223,1.2845,1.1725,1.0406,0.903,0.8042,0.7219,0.6572,0.6424,0.6261,0.6103,0.6103,0.6103,0.5948,0.6103,0.6022,0.5783,0.586,0.5786,0.5637,0.5401,0.5321,0.5323,0.4618,0.4304,0.4377,0.3832,0.3132,0.2353,0.2195,0.1726,0.11,0.1021,0.1021,0.1021,0.1021,0.1036,0.1055,0.1034,0.056,-0.0244,-0.1595,-0.2928,-0.4143,-0.493,-0.5139,-0.5258,-0.629,-0.6928,-0.7322,-0.8093,-0.8475,-0.8627,-0.8551,-0.9609,-1.0743,-1.0686,-1.2532,-1.4517,-1.5119,-1.6007,-1.6979,-1.8017,-1.863,-1.9107,-1.945,-2.0313,-2.0814,-2.0577,-2.0923,-2.1711,-2.3086,-2.3406,-2.4038,-2.5557,-2.6245,-2.6645,-2.685,-2.763,-2.8387,-2.9002,-2.9484,-2.9842,-3.0015,-2.8867,-2.8227,-2.8265,-2.6521,-2.5795,-2.6134,-2.4443,-2.3393,-2.2975,-2.2821,-2.2967,-2.3382,-2.3884,-2.4778,-2.5893,-2.5174,-2.5329,-2.6048,-2.6048,-2.6048,-2.6048,-2.6275,-2.6105,-2.5687,-2.5563,-2.5659,-2.5631,1.935,1.8673,1.7836,1.646,1.5643,1.4664,1.2912,1.1695,1.0491,0.8958,0.7889,0.7035,0.6558,0.6346,0.6338,0.6338,0.6338,0.6338,0.6338,0.6338,0.618,0.5941,0.5789,0.5634,0.5401,0.5246,0.5171,0.5251,0.5168,0.4929,0.4688,0.4533,0.3756,0.2511,0.2511,0.2041,0.1335,0.1335,0.1335,0.1335,0.1335,0.1265,0.1276,0.1262,0.0949,0.008,-0.1947,-0.3634,-0.4797,-0.4996,-0.5129,-0.5427,-0.6515,-0.6913,-0.7242,-0.8246,-0.8627,-0.8703,-0.8627,-0.9311,-1.0143,-0.9981,-1.1147,-1.2261,-1.2536,-1.3387,-1.4815,-1.7429,-1.7989,-1.8399,-1.946,-1.9854,-2.01,-2.0523,-2.0807,-2.1411,-2.2747,-2.3184,-2.4045,-2.5734,-2.6245,-2.6508,-2.6645,-2.7323,-2.7894,-2.8274,-2.8675,-2.8817,-2.8739,-2.8781,-2.8441,-2.7561,-2.7386,-2.6826,-2.5987,-2.4763,-2.3761,-2.2931,-2.2983,-2.2898,-2.2849,-2.3384,-2.4144,-2.4978,-2.4935,-2.5104,-2.5481,-2.6082,-2.596,-2.5536,-2.6578,-2.6443,-2.5591,-2.5007,-2.4526,-2.4013]},{"header":{"parameterUnit":"m.s-1","parameterCategory":1,"la1":30.6,"la2":28.766,"lo1":-90.7593,"lo2":-88.6598,"dy":0.0162,"dx":0.0183,"nx":116,"ny":114,"refTime":"2023-04-07T00:00:00:Z","depth":0,"parameterNumber":3,"parameterNumberName":"V-component_of_WINDS"},"data":[0.0,0.0,0.0,0.0,0.0,0.0,0.0,0.0,0.0,0.0,0.0,0.0,0.0,0.0,0.0,0.0,0.0,0.0,0.0,0.0,0.0,0.0,0.0,0.0,0.0,0.0,0.0,0.0,0.0,0.0,0.0,0.0,0.0,0.0,0.0,0.0,0.0,0.0,0.0,0.0,0.0,0.0,0.0,0.0,0.0,0.0,0.0,0.0,0.0,0.0,0.0,0.0,0.0,0.0,0.0,0.0,0.0,0.0,0.0,0.0,0.0,0.0,0.0,0.0,0.0,0.0,0.0,0.0,0.0,0.0,0.0,0.0,0.0,0.0,0.0,0.0,0.0,0.0,0.0,0.0,0.0,0.0,0.0,0.0,0.0,0.0,0.0,0.0,0.0,0.0,0.0,0.0,0.0,0.0,0.0,0.0,0.0,0.0,0.0,0.0,0.0,0.0,0.0,0.0,0.0,0.0,0.0,0.0,0.0,0.0,0.0,0.0,0.0,0.0,0.0,0.0,0.0,0.0,0.0,0.0,0.0,0.0,0.0,0.0,0.0,0.0,0.0,0.0,0.0,0.0,0.0,0.0,0.0,0.0,0.0,0.0,0.0,0.0,0.0,0.0,0.0,0.0,0.0,0.0,0.0,0.0,0.0,0.0,0.0,0.0,0.0,0.0,0.0,0.0,0.0,0.0,0.0,0.0,0.0,0.0,0.0,0.0,0.0,0.0,0.0,0.0,0.0,0.0,0.0,0.0,0.0,0.0,0.0,0.0,0.0,0.0,0.0,0.0,0.0,0.0,0.0,0.0,0.0,0.0,0.0,0.0,0.0,0.0,0.0,0.0,0.0,0.0,0.0,0.0,0.0,0.0,0.0,0.0,0.0,0.0,0.0,0.0,0.0,0.0,0.0,0.0,0.0,0.0,0.0,0.0,0.0,0.0,0.0,0.0,0.0,0.0,0.0,0.0,0.0,0.0,0.0,0.0,0.0,0.0,0.0,0.0,0.0,0.0,0.0,0.0,0.0,0.0,0.0,0.0,0.0,0.0,0.0,0.0,0.0,0.0,0.0,0.0,0.0,0.0,0.0,0.0,0.0,0.0,0.0,0.0,0.0,0.0,0.0,0.0,0.0,0.0,0.0,0.0,0.0,0.0,0.0,0.0,0.0,0.0,0.0,0.0,0.0,0.0,0.0,0.0,0.0,0.0,0.0,0.0,0.0,0.0,0.0,0.0,0.0,0.0,0.0,0.0,0.0,0.0,0.0,0.0,0.0,0.0,0.0,0.0,0.0,0.0,0.0,0.0,0.0,0.0,0.0,0.0,0.0,0.0,0.0,0.0,0.0,0.0,0.0,0.0,0.0,0.0,0.0,0.0,0.0,0.0,0.0,0.0,0.0,0.0,0.0,0.0,0.0,0.0,0.0,0.0,0.0,0.0,0.0,0.0,0.0,0.0,0.0,0.0,0.0,0.0,0.0,0.0,0.0,0.0,0.0,0.0,0.0,0.0,0.0,0.0,0.0,0.0,0.0,0.0,0.0,0.0,0.0,0.0,0.0,0.0,0.0,0.0,0.0,0.0,0.0,0.0,0.0,0.0,0.0,0.0,0.0,0.0,0.0,0.0,0.0,0.0,0.0,0.0,0.0,0.0,0.0,0.0,0.0,0.0,0.0,0.0,0.0,0.0,0.0,0.0,0.0,0.0,0.0,0.0,0.0,0.0,0.0,0.0,0.0,0.0,0.0,0.0,0.0,0.0,0.0,0.0,0.0,0.0,0.0,0.0,0.0,0.0,0.0,0.0,0.0,0.0,0.0,0.0,0.0,0.0,0.0,0.0,0.0,0.0,0.0,0.0,0.0,0.0,0.0,0.0,0.0,0.0,0.0,0.0,0.0,0.0,0.0,0.0,0.0,0.0,0.0,0.0,0.0,0.0,0.0,0.0,0.0,0.0,0.0,0.0,0.0,0.0,0.0,0.0,0.0,0.0,0.0,0.0,0.0,0.0,0.0,0.0,0.0,0.0,0.0,0.0,0.0,0.0,0.0,0.0,0.0,0.0,0.0,0.0,0.0,0.0,0.0,0.0,0.0,0.0,0.0,0.0,0.0,0.0,0.0,0.0,0.0,0.0,0.0,0.0,0.0,0.0,0.0,0.0,0.0,0.0,0.0,0.0,0.0,0.0,0.0,0.0,0.0,0.0,0.0,0.0,0.0,0.0,0.0,0.0,0.0,0.0,0.0,0.0,0.0,0.0,0.0,0.0,0.0,0.0,0.0,0.0,0.0,0.0,0.0,0.0,0.0,0.0,0.0,0.0,0.0,0.0,0.0,0.0,0.0,0.0,0.0,0.0,0.0,0.0,0.0,0.0,0.0,0.0,0.0,0.0,0.0,0.0,0.0,0.0,0.0,0.0,0.0,0.0,0.0,0.0,0.0,0.0,0.0,0.0,0.0,0.0,0.0,0.0,0.0,0.0,0.0,0.0,0.0,0.0,0.0,0.0,0.0,0.0,0.0,0.0,0.0,0.0,0.0,0.0,0.0,0.0,0.0,0.0,0.0,0.0,0.0,0.0,0.0,0.0,0.0,0.0,0.0,0.0,0.0,0.0,0.0,0.0,0.0,0.0,0.0,0.0,0.0,0.0,0.0,0.0,0.0,0.0,0.0,0.0,0.0,0.0,0.0,0.0,0.0,0.0,0.0,0.0,0.0,0.0,0.0,0.0,0.0,0.0,0.0,0.0,0.0,0.0,0.0,0.0,0.0,0.0,0.0,0.0,0.0,0.0,0.0,0.0,0.0,0.0,0.0,0.0,0.0,0.0,0.0,0.0,0.0,0.0,0.0,0.0,0.0,0.0,0.0,0.0,0.0,0.0,0.0,0.0,0.0,0.0,0.0,0.0,0.0,0.0,0.0,0.0,0.0,0.0,0.0,0.0,0.0,0.0,0.0,0.0,0.0,0.0,0.0,0.0,0.0,0.0,0.0,0.0,0.0,0.0,0.0,0.0,0.0,0.0,0.0,0.0,0.0,0.0,0.0,0.0,0.0,0.0,0.0,0.0,0.0,0.0,0.0,0.0,0.0,0.0,0.0,0.0,0.0,0.0,0.0,0.0,0.0,0.0,0.0,0.0,0.0,0.0,0.0,0.0,0.0,0.0,0.0,0.0,0.0,0.0,0.0,0.0,0.0,0.0,0.0,0.0,0.0,0.0,0.0,0.0,0.0,0.0,0.0,0.0,0.0,0.0,0.0,0.0,0.0,0.0,0.0,0.0,0.0,0.0,0.0,0.0,0.0,0.0,0.0,0.0,0.0,0.0,0.0,0.0,0.0,0.0,0.0,0.0,0.0,0.0,0.0,0.0,0.0,0.0,0.0,0.0,0.0,0.0,0.0,0.0,0.0,0.0,0.0,0.0,0.0,0.0,0.0,0.0,0.0,0.0,0.0,0.0,0.0,0.0,0.0,0.0,0.0,0.0,0.0,0.0,0.0,0.0,0.0,0.0,0.0,0.0,0.0,0.0,0.0,0.0,0.0,0.0,0.0,0.0,0.0,0.0,0.0,0.0,0.0,0.0,0.0,0.0,0.0,0.0,0.0,0.0,0.0,0.0,0.0,0.0,0.0,0.0,0.0,0.0,0.0,0.0,0.0,0.0,0.0,0.0,0.0,0.0,0.0,0.0,0.0,0.0,0.0,0.0,0.0,0.0,0.0,0.0,0.0,0.0,0.0,0.0,0.0,0.0,0.0,0.0,0.0,0.0,0.0,0.0,0.0,0.0,0.0,0.0,0.0,0.0,0.0,0.0,0.0,0.0,0.0,0.0,0.0,0.0,0.0,0.0,0.0,0.0,0.0,0.0,0.0,0.0,0.0,0.0,0.0,0.0,0.0,0.0,0.0,0.0,0.0,0.0,0.0,0.0,0.0,0.0,0.0,0.0,0.0,0.0,0.0,0.0,0.0,0.0,0.0,0.0,0.0,0.0,0.0,0.0,0.0,0.0,0.0,0.0,0.0,0.0,0.0,0.0,0.0,0.0,0.0,0.0,0.0,0.0,0.0,0.0,0.0,0.0,0.0,0.0,0.0,0.0,0.0,0.0,0.0,0.0,0.0,0.0,0.0,0.0,0.0,0.0,0.0,0.0,0.0,0.0,0.0,0.0,0.0,0.0,0.0,0.0,0.0,0.0,0.0,0.0,0.0,0.0,0.0,0.0,0.0,0.0,0.0,0.0,0.0,0.0,0.0,0.0,0.0,0.0,0.0,0.0,0.0,0.0,0.0,0.0,0.0,0.0,0.0,0.0,0.0,0.0,0.0,0.0,0.0,0.0,0.0,0.0,0.0,0.0,0.0,0.0,0.0,0.0,0.0,0.0,0.0,0.0,0.0,0.0,0.0,0.0,0.0,0.0,0.0,0.0,0.0,0.0,0.0,0.0,0.0,0.0,0.0,0.0,0.0,0.0,0.0,0.0,0.0,0.0,0.0,0.0,0.0,0.0,0.0,0.0,0.0,0.0,0.0,0.0,0.0,0.0,0.0,0.0,0.0,0.0,0.0,0.0,0.0,0.0,0.0,0.0,0.0,0.0,0.0,0.0,0.0,0.0,0.0,0.0,0.0,0.0,0.0,0.0,0.0,0.0,0.0,0.0,0.0,0.0,0.0,0.0,0.0,0.0,0.0,0.0,0.0,0.0,0.0,0.0,0.0,0.0,0.0,0.0,0.0,0.0,0.0,0.0,0.0,0.0,0.0,0.0,0.0,0.0,0.0,0.0,0.0,0.0,0.0,0.0,0.0,0.0,0.0,0.0,0.0,0.0,0.0,0.0,0.0,0.0,0.0,0.0,0.0,0.0,0.0,0.0,0.0,0.0,0.0,0.0,0.0,0.0,0.0,0.0,0.0,0.0,0.0,0.0,0.0,0.0,0.0,0.0,0.0,0.0,0.0,0.0,0.0,0.0,0.0,0.0,0.0,0.0,0.0,0.0,0.0,0.0,0.0,0.0,0.0,0.0,0.0,0.0,0.0,0.0,0.0,0.0,0.0,0.0,0.0,0.0,0.0,0.0,0.0,0.0,0.0,0.0,0.0,0.0,0.0,0.0,0.0,0.0,0.0,0.0,0.0,0.0,0.0,0.0,0.0,0.0,0.0,0.0,0.0,0.0,0.0,0.0,0.0,0.0,0.0,0.0,0.0,0.0,0.0,0.0,0.0,0.0,0.0,0.0,0.0,0.0,0.0,0.0,0.0,0.0,0.0,0.0,0.0,0.0,0.0,0.0,0.0,0.0,0.0,0.0,0.0,0.0,0.0,0.0,0.0,0.0,0.0,0.0,0.0,0.0,0.0,0.0,0.0,0.0,0.0,0.0,0.0,0.0,0.0,0.0,0.0,0.0,0.0,0.0,0.0,0.0,0.0,0.0,0.0,0.0,0.0,0.0,0.0,0.0,0.0,0.0,0.0,0.0,0.0,0.0,0.0,0.0,0.0,0.0,0.0,0.0,0.0,0.0,0.0,0.0,0.0,0.0,0.0,0.0,0.0,0.0,0.0,0.0,0.0,0.0,0.0,0.0,0.0,0.0,0.0,0.0,0.0,0.0,0.0,0.0,0.0,0.0,0.0,0.0,0.0,0.0,0.0,0.0,0.0,0.0,0.0,0.0,0.0,0.0,0.0,0.0,0.0,0.0,0.0,0.0,0.0,0.0,0.0,0.0,0.0,0.0,0.0,0.0,0.0,0.0,0.0,0.0,0.0,0.0,0.0,0.0,0.0,0.0,0.0,0.0,0.0,0.0,0.0,0.0,0.0,0.0,0.0,0.0,0.0,0.0,0.0,0.0,0.0,0.0,0.0,0.0,0.0,0.0,0.0,0.0,0.0,0.0,0.0,0.0,0.0,0.0,0.0,0.0,0.0,0.0,0.0,0.0,0.0,0.0,0.0,0.0,0.0,0.0,0.0,0.0,0.0,0.0,0.0,0.0,0.0,0.0,0.0,0.0,0.0,0.0,0.0,0.0,0.0,0.0,0.0,0.0,0.0,0.0,0.0,0.0,0.0,0.0,0.0,0.0,0.0,0.0,0.0,0.0,0.0,0.0,0.0,0.0,0.0,0.0,0.0,0.0,-1.4435,0.0,0.0,0.0,0.0,0.0,0.0,0.0,0.0,0.0,0.0,0.0,0.0,0.0,0.0,0.0,0.0,0.0,0.0,0.0,0.0,0.0,0.0,0.0,0.0,0.0,0.0,0.0,0.0,0.0,0.0,0.0,0.0,0.0,0.0,0.0,0.0,0.0,0.0,0.0,0.251,0.3047,0.3227,0.3713,0.4093,0.4369,0.0,0.0,0.0,0.0,0.0,0.0,0.0,0.0,0.0,0.0,0.0,0.0,0.0,0.0,0.0,0.0,0.0,0.0,0.0,0.0,0.0,0.0,0.0,0.0,0.0,0.0,0.0,0.0,0.0,0.0,0.0,0.0,0.0,0.0,0.0,0.0,0.0,0.0,0.0,0.0,0.0,0.0,0.0,0.0,0.0,0.0,0.0,0.0,0.0,0.0,0.0,0.0,0.0,0.0,0.0,0.0,0.0,0.0,0.0,0.0,0.0,0.0,0.0,0.0,0.0,0.0,0.0,0.0,0.0,0.0,0.0,-1.4115,0.0,0.0,0.0,0.0,0.0,0.0,0.0,0.0,0.0,0.0,0.0,0.0,0.0,0.0,0.0,0.0,0.0,0.0,0.0,0.0,0.0,0.0,0.0,0.0,0.0,0.0,0.0,0.0,0.0,0.0,0.0,0.0,0.0,0.0,0.0,0.3359,0.3056,0.2321,0.2774,0.3239,0.3808,0.4256,0.45,0.453,0.4577,0.0,0.0,0.0,0.0,0.0,0.0,0.0,0.0,0.0,0.0,0.0,0.0,0.0,0.0,0.0,0.0,0.0,0.0,0.0,0.0,0.0,0.0,0.0,0.0,0.0,0.0,0.0,0.0,0.0,0.0,0.0,0.0,0.0,0.0,0.0,0.0,0.0,0.0,0.0,0.0,0.0,0.0,0.0,0.0,0.0,0.0,0.0,0.0,0.0,0.0,0.0,0.0,0.0,0.0,0.0,0.0,0.0,0.0,0.0,0.0,0.0,0.0,0.0,-1.6112,-1.5641,-1.5375,-1.5532,-1.5388,-1.5136,-1.4596,-1.4173,-1.3938,0.0,0.0,0.0,0.0,0.0,0.0,0.0,0.0,0.0,0.0,0.0,0.0,0.0,0.0,0.0,0.0,0.0,0.0,0.0,0.0,0.0,0.0,0.0,0.3048,0.2953,0.2474,0.0,0.0,0.0,0.0,0.0,0.0,0.0,0.0,0.3199,0.2897,0.262,0.32,0.3835,0.4444,0.463,0.4755,0.4896,0.4755,0.4443,0.4019,0.0,0.0,0.0,0.0,0.0,0.0,0.0,0.0,0.0,0.0,0.0,0.0,0.0,0.0,0.0,0.0,0.0,0.0,0.0,0.0,0.0,0.0,0.0,0.0,0.0,0.0,0.0,0.0,0.0,0.0,0.0,0.0,0.0,0.0,0.0,0.0,0.0,0.0,0.0,0.0,0.0,1.2541,1.4356,0.0,0.0,0.0,0.0,0.0,0.0,0.0,0.0,0.0,0.0,0.0,0.0,0.0,-0.6034,-0.4512,-1.3864,-1.8376,-1.7833,-1.6899,-1.6181,-1.5668,-1.4887,-1.4562,-1.4501,-1.4761,0.0,-1.413,-1.3908,0.0,0.0,0.0,0.0,0.0,0.0,0.0,0.0,0.0,0.0,0.0,0.0,0.0,0.0,0.0,0.0,0.0,0.0,0.0,0.0,0.0,0.0,0.2668,0.1811,0.2139,0.2227,0.0,0.0,0.0,0.0,0.0,0.3358,0.3588,0.3755,0.3826,0.3802,0.425,0.4474,0.4653,0.4792,0.4694,0.4455,0.4431,0.4312,0.399,0.3506,0.0,0.0,0.0,0.0,0.0,0.0,0.0,0.0,0.0,0.0,0.0,0.0,0.0,0.0,0.0,0.0,0.0,0.0,0.0,0.0,0.0,0.0,0.0,0.0,0.0,0.0,0.0,0.0,0.0,0.0,0.0,0.0,0.0,0.0,0.0,0.0,0.0,0.0,0.0,1.7664,2.1323,1.6504,1.2912,0.6652,0.0,0.0,0.0,0.0,0.0,0.0,0.0,0.0,0.0,2.2278,0.9961,0.1771,-0.1448,-1.2028,-1.6806,-1.5977,-1.6017,-1.5765,-1.5226,-1.5261,-1.5578,-1.5869,-1.5991,-1.6037,-1.5882,-1.4923,-1.4472,-1.4438,0.0,0.0,0.0,0.0,-0.5398,-0.5817,0.0,0.0,0.0,0.0,0.0,0.0,0.0,0.0,0.0,0.0,0.0,0.0,0.2678,0.3021,0.2774,0.1739,0.2274,0.2455,0.1964,0.0,0.0,0.0,0.0,0.337,0.3857,0.441,0.4696,0.4824,0.4975,0.5023,0.4881,0.4749,0.4315,0.3808,0.3416,0.3502,0.375,0.2608,0.1787,0.1198,0.0,0.0,0.0,0.0,0.0,0.0,0.0,0.0,0.0,0.0,0.0,0.0,0.0,0.0,0.0,0.0,0.0,0.0,0.0,0.0,0.0,0.0,0.0,0.0,0.0,0.0,0.0,0.0,0.0,0.0,0.0,0.0,0.0,0.0,0.0,0.0,0.0,2.6376,3.145,2.3887,2.2163,1.5834,0.0,0.0,0.0,0.0,0.0,0.0,2.3544,3.1523,3.2496,2.5124,1.6169,0.7504,-0.0852,-1.1301,-1.5939,-1.4999,-1.5744,-1.5719,-1.538,-1.6079,-1.6633,-1.7181,-1.7459,-1.7708,-1.7729,-1.6349,-1.5519,-1.5258,-1.5774,-1.6743,-1.7137,-1.0624,-0.9381,-0.9668,0.0,0.0,0.0,0.0,0.0,0.0,0.0,0.0,0.0,0.0,0.0,0.3819,0.376,0.3805,0.3864,0.3809,0.347,0.3213,0.3049,0.2941,0.2877,0.2868,0.332,0.386,0.4661,0.4919,0.5106,0.5313,0.5138,0.5189,0.5379,0.4174,0.3401,0.3118,0.1316,0.1404,0.276,0.1328,0.0598,0.0294,-0.0672,0.0,0.0,0.0,0.0,0.0,0.0,0.0,0.0,0.0,0.0,0.0,0.0,0.0,0.0,0.0,0.0,0.0,0.0,0.0,0.0,0.0,0.0,0.0,0.0,0.0,0.0,0.0,0.0,0.0,0.0,0.0,0.0,0.0,0.0,0.0,0.0,0.0,0.0,4.127,3.6273,0.0,0.0,0.0,0.0,1.2247,1.1498,1.4761,2.3098,2.4268,2.4944,2.5431,1.6152,0.7199,-0.1052,-1.1964,-1.7185,-1.6703,-1.684,-1.6851,-1.684,-1.6943,-1.7085,-1.7422,-1.868,-1.93,-1.9389,-1.8083,-1.6665,-1.5695,-1.7507,-1.8716,-1.9475,-1.9362,-2.0762,-2.117,0.0,0.0,0.0,0.0,0.0,0.0,0.0,0.0,0.0,0.3936,0.3463,0.3163,0.3457,0.3269,0.3164,0.3388,0.3764,0.3577,0.2874,0.2955,0.295,0.2871,0.3047,0.3673,0.4835,0.5395,0.5636,0.5716,0.5736,0.5716,0.5576,0.4168,0.3227,0.2462,0.1001,-0.011,-0.0971,-0.0822,-0.1003,-0.1292,-0.1218,-0.1204,0.0,0.0,0.0,0.0,0.0,0.0,0.0,0.0,0.0,0.0,0.0,0.0,0.0,0.0,0.0,0.0,0.0,0.0,0.0,0.0,0.0,0.0,0.0,0.0,0.0,0.0,0.0,0.0,0.0,0.0,0.0,0.0,0.0,0.0,0.0,0.0,0.0,3.7686,3.5192,0.0,2.3663,1.861,1.8413,2.4683,1.621,1.4998,2.4737,1.7552,1.3502,1.4494,0.5527,-0.0104,-0.1826,-1.1975,-1.6897,-1.653,-1.6583,-1.6515,-1.6299,-1.7227,-1.7879,-1.8365,-2.0053,-2.0937,-2.1269,-2.1225,-2.0277,-1.8724,-1.962,-2.0136,-2.0458,-2.1247,-2.2616,-2.3505,0.0,0.0,0.0,0.0,0.0,0.0,0.0,0.0,0.0,0.3348,0.2911,0.2777,0.3302,0.2868,0.2887,0.3765,0.3897,0.3785,0.3164,0.2897,0.286,0.3141,0.3607,0.4266,0.539,0.5968,0.6246,0.6286,0.6155,0.5784,0.5237,0.355,0.2238,0.1119,-0.0448,-0.2112,-0.3734,-0.3267,-0.2757,-0.2489,-0.1997,-0.1506,-0.1045,0.0,0.0,0.0,0.0,0.0,0.0,0.0,0.0,0.0,0.0,0.0,0.0,0.0,0.0,0.0,0.0,0.0,0.0,0.0,0.0,0.0,0.0,0.0,0.0,0.0,0.0,0.0,0.0,0.0,0.0,0.0,0.0,0.0,0.0,0.0,4.399,3.9017,3.9386,3.718,2.994,2.8254,2.8534,3.0535,2.2226,1.7862,1.9733,1.2381,0.6523,0.3033,-0.1805,-0.5539,-0.8243,-1.4167,-1.6999,-1.6789,-1.7433,-1.7552,-1.7265,-1.8657,-1.9754,-2.0449,-2.1962,-2.3031,-2.3817,-2.3954,-2.3331,-2.2227,-2.1914,-2.1607,-2.1527,-2.3027,-2.3999,-2.4722,0.0,0.0,0.0,0.0,0.0,0.0,0.0,0.0,0.0,0.2171,0.2229,0.2604,0.3307,0.2829,0.3323,0.5386,0.4276,0.3695,0.4257,0.3037,0.2693,0.359,0.4842,0.5781,0.6192,0.6625,0.6917,0.7156,0.6447,0.5458,0.4252,0.2219,0.0448,-0.1007,-0.3022,-0.4477,-0.5365,-0.5617,-0.4837,-0.3352,-0.3008,-0.1677,0.0096,0.0,0.0,0.0,0.0,0.0,0.0,0.0,0.0,0.0,0.0,0.0,0.0,0.0,0.0,0.0,0.0,0.0,0.0,0.0,0.0,0.0,0.0,0.0,0.0,0.0,0.0,0.0,0.0,0.0,0.0,0.0,0.0,0.0,1.667,3.5235,4.828,4.6965,4.9887,5.1277,4.9371,4.959,4.3899,2.9464,2.856,2.2262,0.7743,0.8272,0.3725,-0.7756,-0.5065,-0.8678,-2.0009,-1.8411,-1.7668,-1.7674,-1.9393,-1.9983,-1.983,-2.1435,-2.2704,-2.3533,-2.419,-2.5485,-2.6823,-2.5862,-2.5684,-2.5769,-2.4326,-2.3224,-2.2793,-2.5179,-2.5585,-2.5503,0.0,0.0,0.0,0.0,0.0,0.0,0.0,0.0,0.3047,0.2134,0.1766,0.2093,0.3446,0.2687,0.3057,0.5566,0.5058,0.4479,0.4355,0.3607,0.343,0.3937,0.4809,0.5583,0.6432,0.6592,0.688,0.731,0.5713,0.4663,0.3995,0.1227,-0.0448,-0.1231,-0.3134,-0.4477,-0.5371,-0.5802,-0.5249,-0.4021,-0.348,-0.2307,-0.1093,0.0,0.0,0.0,0.0,0.0,0.0,0.0,0.0,0.0,0.0,0.0,0.0,0.0,0.0,0.0,0.0,0.0,0.0,0.0,0.0,0.0,0.0,0.0,0.0,0.0,0.0,0.0,0.0,0.0,0.0,0.0,1.4894,2.3135,2.6007,3.7301,4.6241,4.8944,4.9759,5.0324,5.0705,4.305,3.656,3.2841,1.5269,0.299,-0.1015,-1.0682,-1.6894,-1.8682,-1.7827,-1.8076,-1.9669,-1.8758,-1.8896,-1.9821,-1.9588,-1.9967,-2.0805,-2.1438,-2.2096,-2.2697,-2.4421,-2.616,-2.7557,-2.6898,-2.7374,-2.8173,-2.5474,-2.4145,-2.3986,-2.5194,-2.6617,-2.8385,0.0,0.0,0.0,0.0,0.0,0.0,0.0,0.0,0.2537,0.1318,0.1168,0.1648,0.2852,0.2163,0.2607,0.5366,0.497,0.4595,0.4661,0.4321,0.425,0.4246,0.5104,0.5939,0.6712,0.6892,0.7077,0.727,0.545,0.4038,0.2934,0.0449,-0.1348,-0.2488,-0.3959,-0.5069,-0.5819,-0.6322,-0.5719,-0.4402,-0.3741,-0.2523,-0.1146,-0.1843,-0.1851,-0.1665,-0.2727,-0.3226,-0.3451,-0.4037,0.0,0.0,0.0,0.0,0.0,0.0,0.0,0.0,0.0,0.0,0.0,0.0,0.0,0.0,0.0,0.0,0.0,0.0,0.0,0.0,0.0,0.0,0.0,0.0,1.8996,2.6232,3.308,4.1023,4.6949,4.9202,4.9766,5.0406,5.1475,4.0521,3.148,2.6956,0.8221,-0.5387,-1.0895,-1.8395,-2.2334,-2.2033,-2.1204,-2.0499,-1.9922,-1.9404,-1.9487,-2.04,-2.0754,-2.1061,-2.1579,-2.2682,-2.3361,0.0,-2.5928,-2.7739,-2.9043,-2.8813,-2.9041,0.0,0.0,0.0,0.0,0.0,-2.7963,-3.0151,0.0,0.0,0.0,0.0,0.0,0.0,0.0,0.0,0.192,0.025,0.0633,0.1253,0.1894,0.128,0.2001,0.4903,0.4495,0.4268,0.4953,0.4984,0.489,0.4646,0.5686,0.6506,0.7076,0.7313,0.7276,0.6951,0.5154,0.3277,0.1378,-0.0339,-0.2152,-0.4144,-0.5178,-0.5818,-0.6305,-0.6961,-0.6259,-0.4604,-0.3924,-0.2439,-0.0654,-0.1826,-0.183,-0.1411,-0.3088,-0.3779,-0.4038,-0.4756,0.0,0.0,0.0,0.0,0.0,0.0,0.0,0.0,0.0,0.0,0.0,0.0,0.0,0.0,0.0,0.0,0.0,0.0,0.0,0.0,0.0,0.0,0.0,0.0,2.313,2.7283,3.7219,4.4302,4.8404,4.831,4.9612,5.0326,4.985,3.8841,2.6855,1.5289,0.4055,-0.7477,-1.9208,0.0,0.0,0.0,0.0,-1.8915,-2.0517,-2.0011,-2.0003,-2.0491,-2.2162,-2.2796,-2.2304,-2.4309,-2.5448,-2.5899,-2.8051,-2.9792,-3.1252,-3.1015,-3.0507,-2.963,-2.7478,-2.6813,-2.7004,-2.7859,-2.9332,0.0,0.0,0.0,0.0,0.0,0.0,0.0,0.0,0.0,0.2105,0.0653,0.0896,0.1049,0.0769,0.1117,0.2115,0.3866,0.4329,0.4458,0.4478,0.469,0.4956,0.5417,0.5844,0.6465,0.7333,0.7267,0.6728,0.5698,0.3991,0.207,-0.0234,-0.1726,-0.2999,-0.3868,-0.5035,-0.5608,-0.582,-0.6794,-0.6529,-0.537,-0.4618,-0.3216,-0.1639,-0.2288,-0.2701,-0.3088,-0.4121,-0.4969,-0.5673,-0.6203,-0.6512,-0.6839,-0.7211,-0.7205,0.0,0.0,0.0,0.0,0.0,0.0,0.0,0.0,0.0,0.0,0.0,0.0,0.0,0.0,0.0,0.0,0.0,0.0,0.0,2.2253,2.6189,3.0021,3.4653,3.9642,4.3826,4.6608,4.837,4.6161,3.7931,2.7676,1.6744,0.5039,-0.5923,-1.331,-1.6391,-1.755,-1.8043,-1.7786,-1.9478,-2.0281,-2.006,-2.0224,-2.1197,-2.2804,0.0,0.0,-2.4091,-2.4234,-2.5592,-2.7765,-2.825,-3.048,-3.3669,-3.2022,-3.0914,-2.9993,-2.7485,-2.711,-2.7916,-2.8315,-2.9884,-3.1856,0.0,0.0,0.0,0.0,0.0,0.0,0.0,0.0,0.1609,0.0659,0.053,0.0466,0.038,0.0683,0.1395,0.2619,0.3537,0.4137,0.4369,0.5052,0.5477,0.5652,0.6121,0.6631,0.6972,0.6984,0.62,0.4698,0.321,0.1387,-0.0822,-0.2216,-0.3269,-0.424,-0.4864,-0.5568,-0.6109,-0.664,-0.6362,-0.551,-0.485,-0.3456,-0.1883,-0.2437,-0.2975,-0.3379,-0.4281,-0.4998,-0.5615,-0.6282,-0.6633,-0.6929,-0.7266,-0.7291,-0.7248,0.0,0.0,0.0,0.0,0.0,0.0,0.0,0.0,0.0,0.0,0.0,0.0,0.0,0.0,1.225,1.4891,0.0,2.0914,2.3911,2.7533,3.0407,3.187,3.4395,3.7263,4.0692,4.1707,4.0616,3.6812,2.182,1.0899,0.7696,-0.6189,-1.4466,-1.4471,-1.6199,-1.7763,-1.9041,-2.0572,-2.1576,-2.1913,-2.2169,-2.2682,-2.3425,-2.3549,-2.3909,-2.4377,-2.5861,-2.7216,-2.8391,-3.056,-3.276,-3.4699,-3.3737,-3.2863,-3.191,-2.9484,-2.8639,-2.8755,-2.9028,-3.038,-3.2074,0.0,0.0,0.0,0.0,0.0,0.0,0.0,0.0,0.0,0.0664,0.0173,-0.0179,-0.0,0.0,0.0561,0.187,0.2902,0.3783,0.436,0.5395,0.5945,0.579,0.6427,0.6808,0.6681,0.671,0.5799,0.3688,0.2773,0.105,-0.1306,-0.2368,-0.3434,-0.4516,-0.4694,-0.5285,-0.6166,-0.6267,-0.6219,-0.5912,-0.4881,-0.3379,-0.1803,-0.2359,-0.2798,-0.3233,-0.4125,-0.457,-0.5055,-0.5698,-0.61,-0.6445,-0.6662,-0.6653,-0.6742,-0.6765,-0.6318,0.0,0.0,0.0,0.0,0.0,0.0,0.0,0.0,0.7384,0.9392,1.0039,1.2427,1.5076,1.701,2.1256,2.4867,2.5925,2.8274,2.975,2.946,2.9704,3.049,3.2035,3.3171,3.3699,3.3625,1.7146,0.7207,0.8926,-0.4815,-1.3242,-1.3121,-1.5302,-1.7941,-2.0931,-2.1911,-2.2904,-2.417,-2.4338,-2.4245,-2.392,-2.4931,-2.5247,-2.4916,-2.7604,-2.9003,-2.9471,-3.3703,-3.5494,-3.5489,-3.5586,-3.4924,-3.3746,-3.1857,-3.0594,-2.9793,-2.9779,-3.0646,-3.1928,0.0,0.0,0.0,0.0,0.0,0.0,0.0,0.0,0.0,0.1137,0.0417,-0.0339,-0.1025,-0.0434,0.079,0.263,0.2882,0.3393,0.454,0.522,0.5705,0.5908,0.6772,0.7122,0.7133,0.7021,0.561,0.2807,0.2613,0.0844,-0.233,-0.2662,-0.3149,-0.3684,-0.4545,-0.4909,-0.5142,-0.5555,-0.6368,-0.7077,-0.5111,-0.3326,-0.1832,-0.1918,-0.2444,-0.3176,-0.3726,-0.4242,-0.4671,-0.4431,-0.4706,-0.505,-0.4818,-0.4892,-0.505,-0.5437,-0.4375,-0.3161,-0.3017,-0.0,0.3144,0.3581,0.6062,0.8277,0.0,1.083,1.3599,1.2764,1.7336,2.151,2.2079,2.437,2.665,2.8445,2.8838,2.8637,2.7789,2.7366,2.5389,2.0909,2.5679,2.5045,1.4123,1.0686,0.4782,-0.6028,-0.8474,-1.0412,-1.2607,-1.6003,-1.8759,-2.0391,-2.3104,-2.4619,-2.4812,-2.5277,-2.5507,-2.5517,-2.5781,-2.6426,-2.7522,-2.8079,-2.9877,-3.2673,-3.6397,-3.7638,-3.7094,-3.7336,-3.6055,-3.3908,-3.3227,-3.2218,-3.1145,-3.0152,-3.0355,-3.1119,0.0,0.0,0.0,0.0,0.0,0.0,0.0,0.0,0.0,0.0,0.0,-0.0913,-0.1261,-0.0934,-0.017,0.1192,0.1894,0.2763,0.3885,0.5189,0.5994,0.6258,0.6874,0.7145,0.6694,0.6036,0.4482,0.2142,0.1319,-0.0242,-0.2434,-0.2563,-0.2807,-0.3167,-0.3808,-0.4313,-0.4677,-0.4972,-0.5181,-0.5049,-0.4543,-0.2874,-0.0688,-0.1117,-0.1739,-0.2447,-0.2932,-0.3082,0.0,-0.2887,-0.3189,-0.3582,-0.3607,-0.3908,-0.4508,-0.506,-0.3706,-0.1538,0.0567,0.2739,0.4957,0.7071,0.8815,1.0393,1.1765,1.3704,1.5423,1.6006,1.9683,2.3397,2.5198,2.7554,2.9117,2.8538,2.8555,2.7583,2.451,2.2356,2.0146,1.7988,1.5594,1.1845,0.5786,0.4535,0.0648,-0.7512,-0.9907,-1.1868,-1.4029,-1.8143,-2.1502,-2.3851,-2.6466,-2.7703,-2.7732,-2.7776,-2.7628,-2.7264,-2.7559,-2.7715,-2.7954,-2.988,-3.2672,-3.5943,-3.7307,-3.821,-3.862,-3.7323,-3.5839,-3.4184,-3.3297,-3.2187,-3.1172,-3.1158,-3.1516,-3.1942,0.0,0.0,0.0,0.0,0.0,0.0,0.0,0.0,0.0,0.0,0.0,0.0,0.0,-0.1323,-0.0911,0.0,0.1097,0.22,0.3503,0.5076,0.609,0.6404,0.6987,0.7043,0.6536,0.5592,0.426,0.2524,0.1088,-0.0242,-0.1698,-0.2208,-0.2574,-0.2792,-0.3192,-0.3453,-0.3447,-0.3653,-0.3393,-0.29,-0.3046,-0.1846,0.0,-0.0441,-0.1169,-0.176,-0.1706,-0.1359,-0.0905,-0.0714,-0.1226,-0.1834,-0.175,-0.2679,-0.3802,-0.401,-0.2191,0.0669,0.3823,0.5601,0.7146,1.0061,1.159,1.2893,1.5198,1.6448,1.76,1.9304,2.2015,2.4794,2.692,2.9441,3.0364,2.7902,2.7427,2.5969,2.2208,1.8664,1.6064,1.5181,0.8611,0.3105,0.0672,-0.0402,-0.269,-0.7088,-1.03,-1.3123,-1.5711,-2.0262,-2.3951,-2.642,-2.8909,-2.992,-2.9393,-2.9604,-2.9441,-2.8908,-2.9331,-2.9652,-2.9764,-3.2328,-3.5245,-3.8208,-3.7594,-3.8087,-3.9093,-3.6918,-3.5375,-3.4298,-3.3198,-3.22,-3.1482,-3.2245,-3.2461,-3.239,0.0,0.0,0.0,0.0,0.0,0.0,0.0,0.0,0.0,0.0,0.0,0.0,0.0,-0.1338,-0.0953,0.0,0.0894,0.2046,0.3592,0.4763,0.5765,0.6514,0.6877,0.6992,0.6764,0.6527,0.5682,0.4208,0.2686,0.123,-0.0123,-0.1726,-0.2466,-0.2589,-0.2837,-0.2341,-0.1107,-0.1107,-0.1477,-0.1967,-0.0714,-0.0116,0.0114,0.0,-0.0731,-0.152,0.0206,0.0989,0.1215,0.2272,0.149,0.0197,0.1125,-0.0511,-0.2524,-0.1618,0.0871,0.3887,0.6222,0.8532,1.0334,1.1429,1.3795,1.6191,1.7401,1.9262,2.1101,2.2573,2.4956,2.6957,2.7169,2.9292,2.9938,2.6859,2.5059,2.3348,2.1839,1.7655,1.3576,1.0203,0.662,0.2292,0.0,-0.3192,-0.4434,-0.7781,-0.9999,-1.2901,-1.7155,-2.1998,-2.5318,-2.6699,-2.9449,-3.0224,-2.8797,-2.9976,-3.0641,-3.0551,-3.0988,-3.2285,-3.4235,-3.5188,-3.6844,-3.8883,-3.7521,-3.7325,-3.7819,-3.6236,-3.5112,-3.4206,-3.3325,-3.2704,-3.2417,-3.3269,-3.2676,-3.1723,0.0,0.0,0.0,0.0,0.0,0.0,0.0,0.0,0.0,0.0,0.0,0.0,0.0,0.0,0.0,0.0,0.0,0.1176,0.2725,0.3932,0.5169,0.6395,0.6746,0.695,0.6768,0.5616,0.4775,0.4142,0.2645,0.1698,0.1456,0.098,0.0492,0.0,0.0492,0.0492,0.0123,0.0492,0.0495,0.0249,0.0,0.0465,0.116,0.0324,-0.0205,-0.0595,0.0,0.1079,0.2793,0.2455,0.2182,0.1894,0.1596,0.0401,-0.0503,0.1486,0.4758,0.7977,0.8891,1.0332,1.1948,1.3875,1.5195,1.6502,1.8069,1.9857,2.1361,2.2127,2.3263,2.4562,2.594,2.5757,2.4889,2.3602,2.2289,2.0718,1.8843,1.3956,1.3582,2.1399,0.7763,-0.1363,0.0,0.0,0.0,-1.0661,-1.3348,-1.5882,-1.8398,-2.2982,-2.6157,-2.7401,-3.07,-3.2148,-3.1513,-3.3558,-3.4416,-3.3823,-3.4082,-3.4965,-3.6481,-3.6789,-3.7282,-3.7958,-3.691,-3.6256,-3.5711,-3.4284,-3.3353,-3.2818,-3.2547,-3.2618,-3.3017,-3.363,-3.3891,-3.3794,0.0,0.0,0.0,0.0,0.0,0.0,0.0,0.0,0.0,0.0,0.0,0.0,0.0,0.0,0.0,0.0,0.0,0.0742,0.2287,0.3443,0.4714,0.6262,0.6603,0.6592,0.6421,0.5391,0.481,0.4465,0.3008,0.2566,0.2816,0.2503,0.2042,0.1681,0.2292,0.242,0.2058,0.2286,0.2535,0.2671,0.1842,0.1584,0.1693,0.0524,-0.0201,0.0,-0.0973,0.0682,0.3037,0.3038,0.2978,0.2816,0.2286,0.1781,0.197,0.5135,0.7756,0.9833,1.0797,1.2024,1.3454,1.5282,1.6411,1.7369,1.8783,2.0158,2.1227,2.1437,2.2116,2.297,2.3755,2.3451,2.2589,2.1347,2.034,1.8828,1.608,1.3806,1.5704,2.4969,0.9683,-0.0353,0.2814,-0.5954,0.0,-1.3418,-1.5836,-1.8239,-2.0242,-2.4406,-2.7359,-2.8842,-3.1536,-3.3085,-3.355,-3.529,-3.6215,-3.635,-3.6772,-3.7358,-3.8225,-3.8026,-3.7781,-3.7361,-3.6216,-3.521,-3.4128,-3.2839,-3.2114,-3.1896,-3.2101,-3.2692,-3.349,-3.4066,-3.4919,-3.5601,0.0,0.0,0.0,0.0,0.0,0.0,0.0,0.0,0.0,0.0,0.0,0.0,0.0,0.0,0.0,0.0,0.0,0.0,0.2319,0.3199,0.4403,0.6219,0.6252,0.6168,0.5877,0.5779,0.5568,0.5224,0.392,0.3514,0.3791,0.2607,0.2284,0.2628,0.2782,0.3503,0.4671,0.4257,0.4462,0.4912,0.4526,0.3237,0.1589,0.0602,-0.049,-0.1566,-0.1632,-0.0193,0.186,0.3925,0.3978,0.313,0.3226,0.3635,0.4856,0.8769,0.9638,0.971,1.1912,1.365,1.5122,1.5697,1.7371,1.8835,1.9074,2.0196,2.0973,2.0723,2.1465,2.189,2.0875,2.219,2.2654,2.0018,1.9202,1.7698,1.4351,1.6958,1.9835,2.1926,1.2979,0.5537,0.2724,-0.9474,0.0,-1.6124,0.0,-1.9952,-2.248,-2.6234,-2.9025,-3.0758,-3.1912,-3.3153,-3.4693,-3.5248,-3.6416,-3.8147,-3.9002,-3.9472,-3.9607,-3.9003,-3.8238,-3.723,-3.5617,-3.4247,-3.3211,-3.1978,-3.1516,-3.1649,-3.2177,-3.3003,-3.4028,-3.4692,-3.5809,-3.6867,0.0,0.0,0.0,0.0,0.0,0.0,0.0,0.0,0.0,0.0,0.0,0.0,0.0,0.0,0.0,0.0,0.0,0.0,0.2056,0.255,0.3698,0.5769,0.604,0.6203,0.6158,0.5765,0.5529,0.5451,0.4172,0.3578,0.3909,0.3659,0.4456,0.6209,0.5893,0.5902,0.5911,0.5766,0.5247,0.4632,0.4471,0.3272,0.1591,0.0712,-0.0197,-0.1152,-0.1912,-0.0478,0.164,0.129,0.1809,0.2816,0.4153,0.5273,0.6617,0.8894,1.0793,1.2424,1.3798,1.525,1.6624,1.6943,1.7664,1.8131,1.7693,1.8533,1.9076,1.8311,1.811,1.7952,1.7618,1.748,1.7601,1.8492,1.8183,1.822,1.907,1.9514,2.3381,3.3423,2.2281,1.1959,0.7164,-0.3079,-1.3337,0.0,-2.2718,-2.2897,-2.4236,-2.7427,-3.0079,-3.2008,-3.3822,-3.5082,-3.5781,-3.7733,-3.9634,-4.1506,-4.0359,-4.0386,-4.129,-4.0009,-3.9047,-3.8172,-3.6431,-3.4965,-3.3619,-3.1708,-3.1603,-3.2777,-3.3016,-3.4251,-3.5889,-3.6627,-3.7446,-3.8213,0.0,0.0,0.0,0.0,0.0,0.0,0.0,0.0,0.0,0.0,0.0,0.0,0.0,0.0,0.0,0.0,0.0,0.0,0.0,0.1825,0.2888,0.4695,0.5255,0.5533,0.5598,0.5238,0.5127,0.5174,0.4266,0.3439,0.2592,0.2847,0.4111,0.598,0.5599,0.5829,0.6357,0.6295,0.5476,0.0,0.0,0.295,0.1229,0.0398,-0.039,-0.1156,-0.1989,-0.0761,0.1162,0.1286,0.1904,0.3019,0.5351,0.6645,0.7836,1.0489,1.2526,1.4267,1.5557,1.6803,1.7793,1.8065,1.7954,1.7675,1.694,1.6753,1.6537,1.5493,1.4887,1.4564,1.4701,1.5087,1.5999,1.8058,1.8821,1.9794,2.182,2.4692,2.9307,3.637,2.2664,1.1627,0.8828,-0.7319,-2.047,0.0,-2.6545,-2.6131,-2.6986,-2.9423,-3.1808,-3.3902,-3.4716,-3.5978,-3.7604,-3.9753,-4.1197,-4.1903,-4.0882,-4.0723,-4.1187,-4.0608,-3.968,-3.8467,0.0,-3.5855,-3.404,-3.2736,-3.2654,-3.3241,-3.4028,-3.5341,-3.6971,-3.7955,-3.8917,-3.9749,0.0,0.0,0.0,0.0,0.0,0.0,0.0,0.0,0.0,0.0,-0.1338,0.0,0.0,0.0,0.0,0.0,0.0,0.0,0.0,0.0,0.2213,0.342,0.4285,0.4725,0.4806,0.4646,0.4649,0.4821,0.43,0.3007,0.0939,0.1149,0.2031,0.3393,0.3154,0.4072,0.5563,0.5764,0.5138,0.3974,0.3592,0.243,0.0777,0.0,0.0,-0.1067,-0.1405,-0.0566,0.0873,0.2643,0.3187,0.3743,0.6539,0.7847,0.8955,1.2551,1.4388,1.5597,1.711,1.8127,1.858,1.8909,1.844,1.7654,1.6594,1.5394,1.4276,1.3197,1.2278,1.1952,1.2456,1.4303,1.6415,1.8483,2.0186,2.198,2.4122,3.0445,3.4969,3.5394,2.1533,1.1596,1.0596,-1.0943,-2.6011,-2.8876,-2.8134,-2.8316,-3.0307,-3.2161,-3.4099,-3.6319,-3.58,-3.688,-3.9792,-4.1159,-4.1533,-4.0903,-4.084,-4.0664,-4.0339,-4.0715,-4.0071,-3.8632,0.0,0.0,-3.5038,-3.4626,-3.4213,-3.4016,-3.5439,-3.6627,-3.7689,-3.901,-4.0312,-4.1375,0.0,0.0,0.0,0.0,0.0,0.0,0.0,0.0,0.0,0.0,-0.1432,-0.156,0.0,0.0,0.0,0.0,0.0,0.0,0.0,0.0,0.0,0.3267,0.4318,0.492,0.5087,0.492,0.4942,0.5157,0.382,0.2764,0.1855,0.0,-0.0728,-0.0455,0.0274,0.0824,0.1281,0.337,0.4647,0.5307,0.4081,0.2333,0.0468,0.0189,0.0,0.0,0.1575,0.2019,0.2206,0.4221,0.4669,0.4737,0.7292,0.9006,1.0543,1.2719,1.4983,1.696,1.7493,1.8533,1.9445,1.9011,1.9285,1.9078,1.6615,1.5627,1.4742,1.3386,1.2257,1.1741,1.2811,1.4691,1.6886,1.9444,2.1253,2.4034,2.8764,3.1175,3.4219,3.8906,3.6147,3.0067,2.0297,1.4268,0.1543,0.0,-2.2384,-2.5789,-3.4494,-3.6147,-3.7676,-3.9651,-3.9548,-4.031,-4.2216,-4.1219,-4.0889,-4.1362,-4.0421,-4.0323,-4.1075,-3.992,-3.9632,-3.9925,-3.8172,0.0,-3.8022,-3.6465,-3.6342,-3.7264,-3.8253,-3.8753,-3.912,-4.0439,-4.1556,-4.2318,0.0,0.0,0.0,0.0,0.0,0.0,0.0,-0.146,-0.1355,-0.132,-0.1675,-0.1824,-0.1582,-0.1651,-0.1721,0.0,0.0,0.0,0.0,0.0,0.0,0.0,0.0,0.0,0.4615,0.4039,0.4318,0.539,0.0,0.1288,0.1044,-0.0088,-0.0888,-0.1256,0.1166,0.1973,0.1613,0.3585,0.4216,0.3774,0.2839,0.1293,0.0,0.0,0.0,0.0,0.1636,0.2455,0.3023,0.4137,0.4982,0.594,0.7887,0.9686,1.1441,1.3527,1.5867,1.788,1.8701,1.9546,1.9958,1.9813,1.9322,1.8341,1.6453,1.5038,1.3808,1.2473,1.1673,1.1462,1.2717,1.4477,1.6671,1.966,2.1718,2.4748,3.0021,3.1915,3.457,3.9265,3.3449,2.6786,2.0957,1.2088,-0.1627,-2.1979,-2.4522,-2.9114,-3.8328,-4.0054,-4.0953,-4.1186,-4.1774,-4.2078,-4.2153,-4.1397,-4.0852,-4.0563,-4.0016,-3.992,-4.0115,-3.9793,-3.992,-4.0224,-3.947,0.0,-3.9009,-3.7963,-3.7643,-3.7841,-3.8583,-3.911,-3.9598,-4.1098,-4.2207,-4.2983,0.0,0.0,0.0,0.0,0.0,0.0,-0.1591,-0.1591,-0.1573,-0.1362,-0.1752,-0.1924,-0.1661,-0.1861,-0.1987,0.0,0.0,0.0,0.0,0.0,0.0,0.0,0.0,0.0,0.0,0.0,0.0,0.4732,0.2372,0.0,0.0,0.0,0.0,0.0,0.2959,0.3864,0.3317,0.4491,0.3859,0.0,0.0,0.0274,0.0,0.0,0.0,0.0,0.0,0.2703,0.3772,0.4052,0.5138,0.6617,0.8004,0.9785,1.1695,1.3704,1.6005,1.8243,1.9279,1.9781,1.9935,1.9991,1.8797,1.734,1.5844,1.4364,1.3015,1.1734,1.1241,1.1424,1.2759,1.4546,1.6723,1.9712,2.2258,2.5486,3.0351,3.2245,3.4695,3.8713,2.9289,2.2292,2.193,0.9706,-0.5158,-2.1783,-2.9885,0.0,-4.2349,-4.3781,-4.3935,-4.294,-4.3401,-4.3223,-4.2087,-4.1573,-4.0806,-3.9737,-3.9778,-3.9565,-3.9162,-3.9722,-4.0005,-4.0146,-4.0285,0.0,0.0,-3.8888,-3.8342,-3.7791,-3.8592,-3.9152,-3.975,-4.1358,-4.2611,-4.3491,0.0,0.0,0.0,0.0,0.0,0.0,-0.1789,-0.171,-0.1617,-0.142,-0.1408,-0.1565,-0.1816,-0.2202,-0.2385,0.0,0.0,0.0,0.0,0.0,0.0,0.0,0.0,0.0,0.0,0.0,0.0,0.252,0.4329,0.0,0.0,0.0,0.0,0.0,0.0,0.4226,0.4218,0.4761,0.0,0.0,0.0,0.0,0.0,0.0,0.0,0.0,0.0,0.424,0.4611,0.5073,0.5626,0.6255,0.7105,0.8992,1.1008,1.1485,1.4493,1.7545,1.7242,1.8167,1.892,1.7825,1.7624,1.6999,1.4337,1.3957,1.372,1.225,1.1413,1.1651,1.3722,1.5915,1.8049,2.0012,2.324,2.7028,3.1389,3.1662,3.341,3.8793,3.4618,3.1081,3.0551,2.6931,1.3644,-1.2994,-3.6411,0.0,-4.7192,-4.6985,-4.659,-4.5995,-4.48,-4.4066,-4.3935,-4.192,-4.0555,-3.9905,-3.9565,-3.9436,-3.9379,-3.9235,-3.9451,-3.9864,-3.906,0.0,0.0,-3.8895,-3.8513,-3.862,-3.9642,-3.9781,-3.9649,-4.1499,-4.2867,-4.3885,0.0,0.0,0.0,0.0,0.0,0.0,-0.2071,-0.1978,-0.1888,-0.1453,-0.1452,-0.1806,-0.2439,-0.263,-0.2683,-0.2525,0.0,0.0,0.0,0.0,0.0,0.0,0.0,0.0,0.0,0.0,0.2386,0.1992,0.1957,0.0,0.0,0.0,0.0,0.0,0.0,0.3295,0.361,0.4285,0.0,0.0,0.0,0.0,0.0,0.0,0.0,0.0,0.0,0.0,0.4671,0.502,0.5496,0.6073,0.6557,0.7938,0.9552,1.1026,1.3724,1.6518,1.6912,1.7839,1.8435,1.7523,1.6588,1.5603,1.4185,1.3448,1.2916,1.2486,1.2448,1.3028,1.5091,1.6515,1.8161,2.0642,2.2859,2.5409,2.8407,2.8741,3.0331,3.473,3.2665,3.0752,3.0338,2.8038,1.5128,-1.2805,-3.7719,0.0,-4.9237,-4.8903,-4.8187,-4.6945,-4.5471,-4.4367,-4.3789,-4.1421,-4.02,-4.006,-3.922,-3.8723,-3.8486,-3.8575,-3.8501,-3.8323,-3.8188,0.0,0.0,-3.7352,-3.7118,-3.7449,-3.7647,-3.8076,-3.8784,-4.0822,-4.2341,-4.3504,0.0,0.0,0.0,0.0,0.0,-0.208,-0.2019,-0.2155,-0.2063,-0.1457,-0.1459,-0.1822,-0.2477,-0.271,-0.2824,-0.2546,-0.252,0.0,0.0,0.0,0.0,0.0,0.0,0.0,0.0,0.0,0.103,0.0952,-0.0081,-0.0488,0.0,0.0,0.0515,0.2106,0.0,0.0,0.0,0.0,0.0,0.0,0.0,0.0,0.0,0.0,0.0,0.0,0.0,0.0,0.0,0.0,0.0,0.5243,0.5911,0.674,0.7969,1.028,1.2914,1.5344,1.6229,1.7083,1.7588,1.6697,1.5429,1.4293,1.348,1.2893,1.2575,1.2838,1.3379,1.4419,1.6638,1.775,1.917,2.1674,2.3458,2.5263,2.7446,2.7951,2.9374,3.2684,3.1215,2.9927,2.995,2.3808,0.8671,-1.8221,-3.6356,0.0,-4.9061,-4.9035,-4.838,-4.7224,-4.5623,-4.4432,-4.3538,-4.1248,-4.017,-4.0216,-3.9235,-3.8516,-3.7962,-3.8352,-3.7936,-3.7082,0.0,0.0,0.0,-3.5204,-3.5039,-3.5483,-3.529,-3.5876,-3.7118,-3.9627,-4.1256,-4.2535,0.0,0.0,0.0,0.0,0.0,0.0,-0.1698,-0.2157,-0.2222,-0.1427,-0.1498,-0.1578,-0.1612,-0.2408,-0.2776,-0.2513,-0.2466,0.0,0.0,0.0,0.0,0.0,0.0,0.0,0.0,0.0,-0.0162,-0.1302,-0.0895,-0.0651,-0.057,0.1277,0.2233,0.2444,0.0,0.0,0.0,0.0,0.0,0.0,0.0,0.0,0.0,0.0,0.0,0.0,0.0,0.0,0.0,0.0,0.0,0.0,0.0,0.5523,0.6143,0.887,1.1827,1.4226,1.4645,1.5637,1.6098,1.4907,1.4179,1.3402,1.1576,1.1983,1.289,1.3399,1.3926,1.5282,1.8327,2.0171,2.1651,2.3288,2.5552,2.7847,2.9762,3.0372,3.1622,3.4131,3.1979,3.0434,3.1086,1.5521,-0.4892,-2.9463,0.0,0.0,-4.6543,-4.6896,-4.6933,-4.7171,-4.5363,-4.4142,-4.3573,-4.1676,-4.0516,-4.0216,-3.9681,-3.8958,-3.8202,-3.8797,-3.8121,0.0,0.0,0.0,0.0,-3.2532,-3.2342,-3.2719,-3.2989,-3.3532,-3.4419,-3.7875,-3.9703,-4.0905,0.0,0.0,0.0,0.0,0.0,0.0,-0.2223,-0.24,-0.2207,-0.1367,-0.1433,-0.1687,-0.2187,-0.2584,-0.2724,-0.2302,-0.2097,0.0,0.0,0.0,0.0,0.0,0.0,0.0,0.0,0.0,0.0244,-0.1303,-0.1176,-0.0507,0.0749,0.0957,0.19,0.3456,0.3269,0.3537,0.0,0.0,0.0,0.0,0.0,0.0,0.0,0.0,0.0,0.0,0.0,0.0,0.0,0.0,0.0,0.0,0.0,0.0,0.0,0.727,1.0006,1.2602,1.3371,1.4532,1.5143,1.3951,1.3378,1.2934,1.2284,1.193,1.2081,1.326,1.361,1.4597,1.7508,1.9212,2.0995,2.3381,2.5628,2.7478,2.8509,2.9518,3.0879,3.2671,3.1178,2.9727,2.9411,0.0,-0.9072,-1.6497,0.0,0.0,-4.6058,-4.5597,-4.5404,-4.5771,-4.4085,-4.2883,-4.2298,-4.0811,-4.0005,-4.0005,-3.9625,-3.8885,-3.7947,-3.7293,0.0,0.0,0.0,0.0,0.0,-2.9504,-2.4785,-2.0172,-2.6941,-2.6598,-2.3466,-3.3997,-3.9573,-4.2058,0.0,0.0,0.0,0.0,0.0,0.0,-0.202,-0.2016,-0.1882,-0.1372,-0.1349,-0.1677,-0.2445,-0.2668,-0.2512,-0.1905,-0.1698,0.0,0.0,0.0,0.0,0.0,0.0,0.0,0.0,0.0406,-0.0248,-0.1335,-0.1373,-0.0604,0.0851,0.0788,0.1726,0.3458,0.3132,0.3293,0.0,0.0,0.0,0.0,0.0,0.0,-0.0263,0.0,0.0,0.0,0.0,0.0,0.0,0.0,0.0,0.0,0.0,0.0,0.0,0.0,0.821,1.0622,1.238,1.3817,1.465,1.3827,1.3487,1.3271,1.2683,1.2661,1.3197,1.479,1.5219,1.624,1.9181,2.0443,2.159,2.3486,2.5564,2.7304,2.8195,2.9576,3.0991,3.2431,3.2655,2.9935,0.0,1.1887,-0.0818,0.0,0.0,0.0,-4.4187,-4.3564,-4.3036,-4.3089,-4.2557,-4.1901,-4.1217,-4.0101,-3.9451,-3.9247,-3.8967,-3.8194,-3.6892,-3.6136,0.0,0.0,0.0,0.0,0.0,-2.1286,-1.4451,-0.6328,-1.2172,-1.5034,-1.6928,-2.6457,-3.5,-4.2021,0.0,0.0,0.0,0.0,0.0,0.0,0.0,-0.1284,-0.1284,-0.136,-0.1332,-0.1648,-0.2409,-0.2441,-0.2108,-0.1369,-0.1325,0.0,0.0,0.0,0.0,0.0,0.0,0.0,0.0081,-0.083,-0.1274,-0.1386,-0.1304,-0.0783,0.0087,0.1046,0.1978,0.2931,0.3273,0.361,0.0,0.0,0.0,0.0,0.0,0.0,0.0,0.0,0.0,0.0,0.0,0.0,0.0,0.0,0.0,0.0,0.0,0.0,0.0,0.0,0.0,0.0,0.0,1.3396,1.431,1.3943,1.4145,1.4117,1.2874,1.3899,0.0,1.7323,1.8115,1.9417,2.2444,2.2875,2.2953,2.3569,2.5547,2.7458,2.8684,3.0629,3.2292,3.3281,3.5681,3.107,1.5245,2.4155,1.5679,0.0,0.0,0.0,-4.115,-4.1041,-4.0063,-3.9561,-4.064,-4.0903,-4.0232,-3.952,-3.8797,-3.8028,-3.7856,-3.6806,-3.5004,-3.5077,0.0,0.0,0.0,0.0,0.0,-0.9059,-0.1748,0.8091,0.7089,-0.1448,-1.3582,-1.7677,-2.8394,-4.1274,0.0,0.0,0.0,0.0,0.0,0.0,0.0,0.0,0.0,0.0,-0.1978,-0.2072,-0.2226,-0.1822,-0.1524,0.0,0.0,0.0,0.0,0.0,0.0,0.0,0.0,0.0,0.0474,-0.0243,-0.0663,-0.0848,-0.0438,0.0267,0.1067,0.2079,0.316,0.4256,0.3667,0.3247,0.0,0.0,0.0,0.0,0.0,0.0,0.0,0.0,0.0,0.0,0.401,0.3787,0.0,0.0,0.0,0.0,0.0,0.0,0.0,0.0,0.7163,0.7789,0.997,0.0,1.2027,1.1701,1.2485,1.3344,0.0,1.3938,1.5198,1.65,1.6972,1.775,1.986,2.1178,2.2157,2.2787,2.6406,2.9229,2.9336,3.3057,3.5714,3.5461,3.6484,3.5266,3.0216,2.4206,0.0,0.0,0.0,-2.3603,-3.8355,-3.8674,-3.825,-3.7777,-3.6849,-3.7181,-3.8825,-3.7711,-3.7171,-3.7287,-3.6446,-3.4971,-3.2961,-3.2189,0.0,0.0,0.0,0.0,-0.9212,0.1905,1.2165,1.9058,0.2306,-0.3528,-0.4943,-2.4712,-3.6579,-4.3007,0.0,0.0,0.0,0.0,0.0,0.0,0.0,0.0,0.0,0.0,-0.2181,-0.206,-0.1747,-0.1477,-0.1278,0.0,0.0,0.0,0.0,0.0,0.0,0.0,0.0,0.0158,0.0,-0.0163,-0.025,-0.0342,-0.0441,0.0269,0.179,0.269,0.3658,0.4777,0.4082,0.3394,0.0,0.0,0.0,0.0,0.2411,0.0,0.0,0.0,0.0,0.0,0.5127,0.4732,0.0,0.4072,0.4274,0.4632,0.0,0.0,0.0,0.0,0.6795,0.6996,0.8675,1.0366,1.1833,1.2261,1.3409,1.4303,1.4303,1.5208,1.6483,1.7895,1.8211,1.8612,2.0138,2.0914,2.1456,2.1943,2.567,2.9267,3.1555,3.4967,3.7103,3.6706,3.7604,3.7893,0.0,0.0,0.0,0.0,0.0,-0.9874,-2.7112,-2.7961,-2.9925,-3.4403,-3.3802,-3.4356,-3.6447,-3.5479,-3.4952,-3.49,-3.4101,-3.2867,-3.114,-3.0189,-2.6152,0.0,0.0,0.0,0.6894,1.5159,2.4348,3.1401,1.4199,0.4765,-0.1514,-2.1066,-3.4723,-4.3593,0.0,0.0,0.0,0.0,0.0,0.0,0.0,0.0,0.0,0.0,0.0,0.0,0.0,0.0,0.0,0.0,0.0,0.0,0.0,0.0,0.0,0.0,-0.0785,-0.0635,-0.0569,-0.0249,0.0,0.0087,-0.0445,0.036,0.2427,0.3186,0.406,0.4936,0.4472,0.391,0.0,0.0,0.0,0.0,0.3555,0.0,0.0,0.0,0.0,0.0,0.0,0.0,0.0,0.5505,0.6004,0.6386,0.6234,0.0,0.0,0.0,0.0,0.0,0.8286,1.0548,1.267,1.3809,1.4886,1.5765,1.6,1.7009,1.8387,1.9815,2.0061,2.0411,2.1415,2.1332,2.1218,2.1466,2.485,2.9254,3.4351,3.6753,3.7933,3.7632,3.8987,0.0,3.9136,0.0,0.0,0.0,0.0,0.6535,-1.6555,-1.7989,-2.2018,-3.0518,-3.1104,-3.1803,-3.3104,-3.2839,-3.1622,-2.9721,-2.8907,-2.7002,-2.4193,-2.3615,-1.7362,0.0,0.0,0.0,2.5288,2.6153,3.1775,3.852,2.4955,1.0739,-0.3708,-1.7103,-3.1091,-4.3624,0.0,0.0,0.0,0.0,0.0,0.0,0.0,0.0,0.0,0.0,0.0,0.0,0.0,0.0,0.0,0.0,0.0,0.0,0.0,0.0,0.0,-0.0235,-0.0628,-0.0635,-0.0081,-0.0163,0.0,0.0608,0.1894,0.2844,0.3301,0.4933,0.532,0.4765,0.5026,0.4608,0.3677,0.0,0.0,0.0,0.0,0.0,0.0,0.0,0.0,0.0,0.0,0.0,0.0,0.6752,0.7145,0.7706,0.8501,0.0,0.0,0.0,0.0,0.0,1.0952,1.2785,1.3857,1.3327,1.4347,1.5677,1.6255,1.8074,1.9571,1.9279,2.0186,2.0934,2.0576,2.1419,2.2121,2.208,2.6863,3.2116,3.6529,3.9076,4.0152,3.8963,0.0,4.168,0.0,0.0,0.0,0.0,0.0,-0.156,-2.3859,-2.5849,-2.6858,-2.8064,-2.8407,-2.8469,-2.8182,-2.9518,-2.5927,-1.747,-1.5626,-0.9077,0.1468,0.1026,0.2928,0.0,0.0,2.2066,2.5825,2.5097,2.56,2.4597,0.1682,-1.037,-1.6662,-3.1212,-3.9529,-4.3693,0.0,0.0,0.0,0.0,0.0,0.0,0.0,0.0,0.0,0.0,0.0,0.0,0.0,0.0,0.0,0.0,0.0,0.0,0.0,0.0,-0.0079,0.0718,0.048,0.0482,0.0731,0.0666,0.1028,0.1943,0.2944,0.3844,0.4585,0.5759,0.6162,0.5767,0.5345,0.4766,0.4068,0.3366,0.3622,0.4377,0.0,0.0,0.0,0.0,0.0,0.0,0.0,0.0,0.0,0.0,0.8343,0.8797,0.9271,0.0,0.0,0.0,0.0,0.0,1.2279,1.3655,1.4774,1.5613,1.6588,1.7532,1.8354,1.9268,2.0117,2.044,2.0682,2.0779,2.0489,2.1449,2.3377,2.6673,3.029,3.4011,3.7826,3.943,4.0133,0.0,0.0,0.0,0.0,0.0,0.0,0.0,0.0,0.0,-1.3357,-1.5423,-1.849,-2.3947,-1.9742,-1.7189,-1.6711,-1.2224,-1.0863,-1.2691,-0.5227,0.1342,0.6934,0.7535,1.173,1.8815,0.0,2.543,2.5388,2.4743,2.0025,1.143,-0.6591,-1.5908,-2.1096,-3.6503,-4.3215,-4.4741,0.0,0.0,0.0,0.0,0.0,0.0,0.0,0.0,0.0,0.0,0.0,0.0,0.0,0.0,0.0,0.0,0.0,0.0,0.0,0.0,-0.0079,0.1127,0.1376,0.1555,0.1496,0.1548,0.2127,0.3182,0.3576,0.4484,0.5879,0.6394,0.6478,0.6185,0.5462,0.4716,0.391,0.3521,0.3677,0.4151,0.0,0.0,0.0,0.0,0.0,0.0,0.0,0.0,0.0,0.0,0.0,0.0,0.0,0.0,0.0,1.1241,1.13,1.1718,1.3419,1.4568,1.5777,1.7762,1.8564,1.9211,2.02,2.0395,2.0665,2.1497,2.131,2.0899,2.0575,2.1658,2.4459,3.027,3.2667,3.5034,3.8464,3.9345,4.0007,4.082,4.0012,0.0,0.0,0.0,0.0,0.0,0.0,0.0,-0.6129,-0.8054,-1.1416,-1.6994,-1.1134,-0.6561,-0.3516,0.59,0.5914,-0.3315,0.603,1.1892,1.4408,1.5791,2.1431,3.0003,2.9296,2.7379,2.4522,2.0987,1.1645,-0.176,-1.4087,-2.1707,-2.7219,-3.9662,-4.4811,-4.5607,0.0,0.0,0.0,0.0,0.0,0.0,0.0,0.0,0.0,0.0,0.0,0.0,0.0,0.0,0.0,0.0,0.0,0.0,0.0,0.0,0.0235,0.0393,0.1364,0.2008,0.222,0.2145,0.2737,0.3791,0.4444,0.5504,0.7114,0.7044,0.6216,0.4684,0.523,0.4388,0.2731,0.3597,0.4144,0.4373,0.4776,0.0,0.0,0.0,0.0,0.0,0.0,0.0,0.0,0.0,0.0,0.0,0.0,0.0,1.1583,1.3302,1.319,1.299,1.4963,1.6316,1.7267,1.789,1.853,1.9333,2.0568,2.1312,2.16,2.1342,2.2004,2.2129,2.0614,2.2191,2.516,2.9463,3.2096,3.4747,3.8229,0.0,4.0636,4.1846,0.0,0.0,0.0,0.0,0.0,0.0,0.0,0.0,-1.4942,-1.6974,-1.3866,-0.5394,-0.6112,-0.1516,0.9067,1.7811,2.1185,1.9241,2.0843,2.6979,3.7085,3.7683,3.9127,4.1049,3.9149,3.2926,2.3154,1.0248,-0.2553,-1.5298,-2.8387,-3.6655,-4.1456,-4.3534,-4.4851,-4.5586,0.0,0.0,0.0,0.0,0.0,0.0,0.0,0.0,0.0,0.0,0.0,0.0,0.0,0.0,0.0,0.0,0.0,0.0,0.0,-0.1553,-0.0631,0.0639,0.1211,0.1498,0.1577,0.1172,0.1585,0.271,0.4673,0.6285,0.7389,0.6334,0.5295,0.4261,0.3951,0.3313,0.2579,0.3207,0.36,0.3839,0.4293,0.4991,0.0,0.0,0.0,0.0,0.0,0.0,0.0,0.0,1.0273,1.0571,1.169,1.2369,1.2943,1.4331,1.4552,1.4775,1.6609,1.6893,1.6907,1.8091,1.8053,1.817,2.0072,2.0857,2.1189,2.1205,2.1991,2.2462,2.2018,2.3652,2.6276,3.021,3.303,3.576,3.8872,4.0408,3.9479,0.0,0.0,0.0,0.0,0.0,0.0,0.0,0.0,0.0,-1.2466,-1.3481,-1.2327,-0.8721,0.1676,0.8995,1.2735,2.6155,3.2249,3.1071,3.2588,3.5803,4.0426,3.9446,3.9628,4.0642,3.8714,3.1438,1.9971,0.6607,-0.1857,-0.7807,-2.2252,-3.3925,-4.2855,-4.4278,-4.5089,-4.5506,0.0,0.0,0.0,0.0,0.0,0.0,0.0,0.0,0.0,0.0,0.0,0.0,0.0,0.0,0.0,0.0,0.0,0.0,-0.2902,-0.2715,-0.1812,-0.008,0.0323,0.0495,0.0429,-0.018,0.0375,0.2326,0.4772,0.625,0.6605,0.5437,0.4304,0.326,0.3063,0.2455,0.1662,0.2515,0.2663,0.2352,0.3105,0.4047,0.0,0.0,0.0,0.0,0.0,0.0,0.0,0.0,1.0962,1.1208,1.244,1.3338,1.4101,1.4882,1.5486,1.6133,1.7257,1.7286,1.7147,1.8057,1.7602,1.7231,1.8724,1.9424,2.0081,2.0874,2.1492,2.2215,2.289,2.3945,2.5727,0.0,3.109,3.3198,3.5473,3.7371,0.0,0.0,0.0,0.0,0.0,0.0,0.0,0.0,0.0,0.0,0.0,-0.9246,-0.7139,-0.2027,0.9462,1.7888,2.274,3.3456,3.8294,3.7246,3.7731,3.8264,3.8623,3.781,3.7637,3.7909,3.6564,2.9428,1.8021,0.8821,0.0418,-0.8238,-2.3359,-3.4679,-4.2739,-4.4417,-4.5133,-4.5333,0.0,0.0,0.0,0.0,0.0,0.0,0.0,0.0,0.0,0.0,0.0,0.0,0.0,0.0,0.0,0.0,0.0,0.0,-0.4462,-0.3988,-0.3283,-0.2267,-0.1599,-0.1229,-0.1175,-0.1968,-0.0652,0.2946,0.4647,0.5126,0.4569,0.465,0.3409,0.1259,0.2712,0.1951,-0.0244,0.1664,0.1489,0.0078,0.1252,0.2895,0.4633,0.0,0.0,0.0,0.0,0.0,0.0,0.0,1.1484,1.2182,1.2993,1.3967,1.4803,1.5061,1.599,1.6979,1.6743,1.751,1.8186,1.7809,1.7206,1.6629,1.6392,1.7048,1.8264,2.0159,2.0697,2.1296,2.2962,2.2837,2.2991,2.4683,2.5572,2.6291,2.7239,2.958,0.0,0.0,0.0,0.0,0.0,0.0,0.0,0.0,0.0,0.0,0.0,-0.5596,0.1721,1.8475,1.6868,2.3923,4.1107,4.0002,3.8958,3.813,3.5522,3.3998,3.3487,3.4895,3.4988,3.394,3.3862,2.7748,1.7888,1.6997,0.2353,-2.1039,-3.5734,-4.1869,-4.2602,-4.4273,-4.4945,-4.5093,0.0,0.0,0.0,0.0,0.0,0.0,0.0,0.0,0.0,0.0,0.0,0.0,0.0,0.0,0.0,0.0,0.0,0.0,-0.5938,-0.5705,-0.5395,-0.5082,-0.3914,-0.3546,-0.4084,-0.3451,-0.2225,-0.0284,0.1127,0.2378,0.3403,0.2752,0.2612,0.2876,0.1631,0.0483,-0.0476,0.0394,0.0314,-0.0236,0.0487,0.1129,0.1653,0.0,0.0,0.0,0.0,0.0,0.0,0.0,0.0,0.0,1.4154,1.4436,1.4575,1.5316,1.6226,1.7108,1.7837,1.7629,1.7388,1.8335,1.7266,1.6118,1.6688,1.6875,1.7736,2.0316,2.0472,2.0512,2.1321,2.1267,0.0,2.2362,2.4151,2.5415,2.548,0.0,0.0,0.0,0.0,0.0,0.0,0.0,0.0,0.0,0.0,0.0,0.0,0.2018,0.6277,1.1161,2.0017,2.6695,3.0907,3.5296,3.6586,3.4742,3.4188,3.4175,3.4466,3.2515,3.1716,3.1838,3.1525,2.7551,2.0898,1.5079,-0.4991,-3.1579,-2.6778,-3.2352,-4.3153,-4.3556,-4.4492,-4.5604,0.0,0.0,0.0,0.0,0.0,0.0,0.0,0.0,0.0,0.0,0.0,0.0,0.0,0.0,0.0,0.0,0.0,0.0,0.0,-0.6641,-0.6486,-0.6173,-0.5192,-0.4947,-0.5473,-0.528,-0.4762,-0.3782,-0.1347,-0.0176,-0.0084,0.0256,0.0676,0.1152,0.0587,0.0083,-0.0323,-0.08,-0.103,-0.1025,-0.0981,-0.1135,-0.1262,0.0,0.0,0.0,0.0,0.0,0.0,0.0,0.0,0.0,1.4614,1.5065,1.5347,1.5629,1.6555,1.7534,1.7929,1.7702,1.7538,1.8157,1.7607,1.6948,1.7392,1.7525,1.8137,2.0342,2.05,2.0351,2.0774,2.0323,0.0,1.9689,2.0763,2.1556,2.1095,0.0,0.0,0.0,0.0,0.0,0.0,0.0,0.0,0.0,0.0,0.0,0.0,0.7454,1.1266,1.2817,2.2155,2.7919,2.9556,3.3379,3.4617,3.329,3.2598,3.2919,3.4075,3.1025,2.9379,2.873,2.5675,2.2147,1.7772,0.6139,-1.0515,-2.841,-2.5783,-3.1755,-4.1927,-4.2471,-4.3476,-4.457,0.0,0.0,0.0,0.0,0.0,0.0,0.0,0.0,0.0,0.0,0.0,0.0,0.0,0.0,0.0,0.0,0.0,0.0,0.0,0.0,-0.6788,-0.6079,-0.5735,-0.5685,-0.5775,-0.7147,-0.7571,-0.6976,-0.3308,-0.2607,-0.4615,-0.241,-0.1909,-0.2934,-0.0873,0.0087,-0.0084,-0.1802,-0.2327,-0.197,-0.2741,-0.3371,-0.3634,-0.247,0.0,0.0,0.0,0.0,0.0,0.0,0.0,0.0,1.4377,1.5557,1.6522,1.5897,1.6894,1.8027,1.727,1.7685,1.8218,1.7516,1.7978,1.8516,1.8324,1.858,1.9231,2.0369,2.0633,2.0685,2.0837,1.9677,1.8254,1.7049,1.6647,1.6169,0.0,0.0,0.0,0.0,0.0,0.0,0.0,0.0,0.0,0.0,0.0,0.0,0.0,1.1484,1.6307,2.0628,2.3989,2.8426,3.4057,3.3492,3.3134,0.0,3.1087,3.1052,3.2615,3.036,2.7802,2.4779,1.7755,1.3009,0.8948,-0.7234,-1.5092,-1.8133,-3.0289,-3.6864,-3.9621,-4.1073,-4.1942,-4.2415,0.0,0.0,0.0,0.0,0.0,0.0,0.0,0.0,0.0,0.0,0.0,0.0,0.0,0.0,0.0,0.0,0.0,0.0,0.0,0.0,-0.6945,-0.6945,-0.674,-0.6748,-0.6978,-0.7243,-0.7485,-0.7815,-0.6332,-0.5499,-0.5199,-0.3965,-0.4261,-0.5834,-0.4972,-0.3017,-0.0571,-0.2155,-0.2526,-0.2048,-0.2175,-0.2484,-0.2761,-0.2805,-0.2812,0.0,0.0,0.0,0.0,0.0,0.0,0.0,1.3916,1.4614,1.4942,1.5772,1.6505,1.7078,1.7077,1.7593,1.8082,1.7714,1.7638,1.7889,1.8775,1.9496,1.9974,2.0138,2.0193,2.0158,2.0245,1.8562,1.6908,1.6198,1.6074,1.5686,0.0,0.0,0.0,0.0,0.0,0.0,0.0,0.0,0.0,0.0,0.0,0.0,1.1719,1.6271,2.0475,2.4086,2.8851,3.206,3.3584,3.3077,3.2223,0.0,3.1614,3.1614,3.1184,3.0713,2.6757,1.9899,1.3761,0.4388,-0.7195,-1.5098,-2.2322,-2.8817,-3.2015,-3.5681,-3.9131,-3.9394,-3.99,-4.0528,0.0,0.0,0.0,0.0,0.0,0.0,0.0,0.0,0.0,0.0,0.0,0.0,0.0,0.0,0.0,0.0,0.0,0.0,0.0,0.0,-0.6902,-0.7293,-0.7606,-0.777,-0.7716,-0.8256,-0.849,-0.8537,-0.8585,-0.8026,-0.6927,-0.6018,-0.604,-0.6862,-0.6332,-0.4683,-0.2387,-0.3063,-0.2699,-0.1811,-0.2655,-0.312,-0.3303,-0.3828,-0.4153,-0.4081,-0.2094,0.0,0.0,0.0,0.0,0.0,0.0,0.0,1.414,1.518,1.5871,1.6409,1.6564,1.6791,1.7131,1.7509,1.8029,1.8498,1.8968,2.0201,2.1011,2.0035,2.0443,2.0775,1.9895,1.8531,1.7251,1.6408,1.6354,0.0,0.0,0.0,0.0,0.0,0.0,0.0,0.0,0.0,0.0,0.0,0.0,0.9316,1.1753,1.7318,2.138,2.3399,2.8962,3.189,3.1858,3.1656,3.1429,3.1267,3.1589,3.2202,3.2919,3.1185,2.4726,1.4589,0.8504,-0.1621,-1.4316,-2.0215,-2.5855,-3.0821,-3.1941,-3.4726,-3.8008,-3.7171,-3.7314,-3.7766,0.0,0.0,0.0,0.0,0.0,0.0,0.0,0.0,0.0,0.0,0.0,0.0,0.0,0.0,0.0,0.0,0.0,0.0,0.0,0.0,0.0,-0.7577,-0.8418,-0.8658,-0.8299,-0.9365,-0.9725,-0.9226,-1.0062,-1.0078,-0.9128,-0.8324,-0.764,-0.7112,-0.6618,-0.5637,-0.434,-0.4001,-0.3037,-0.1808,-0.3441,-0.4141,-0.4233,-0.4957,-0.5012,-0.4618,-0.4099,-0.2035,0.0775,0.3571,0.0,0.0,0.0,0.0,1.3092,1.4029,1.4914,1.5568,1.5689,1.5593,1.5897,1.7252,1.826,1.8995,1.9239,2.0893,2.1974,2.0223,2.0866,2.1381,1.9919,1.9012,1.8215,1.7263,1.7141,0.0,0.0,0.0,0.0,0.0,0.0,0.0,0.0,0.0,0.0,0.0,0.0,1.0051,1.1213,1.6933,2.0861,2.2353,2.7272,2.9959,3.006,3.0146,3.0724,3.189,3.1773,3.2964,3.5165,3.0959,2.2191,0.9992,0.3362,-0.6405,-1.8137,-2.3833,-2.752,-2.9674,-3.1393,-3.3928,-3.6431,-3.4884,-3.4391,-3.4179,0.0,0.0,0.0,0.0,0.0,0.0,0.0,0.0,0.0,0.0,0.0,0.0,0.0,0.0,0.0,0.0,0.0,0.0,0.0,0.0,0.0,-0.8523,-0.8986,-0.9361,-0.9635,-0.9837,-1.0024,-1.0288,-1.0438,-1.0709,-1.1093,-1.0194,-0.9246,-0.816,-0.756,-0.6325,-0.4796,-0.4449,-0.3849,-0.3136,-0.3618,-0.4086,-0.4462,-0.5254,-0.5634,-0.5553,-0.4636,-0.3732,-0.2575,0.0239,0.2559,0.0,0.0,0.0,1.0297,1.2227,1.3142,1.3688,1.4314,1.446,1.4937,1.697,1.7249,1.7705,2.0125,2.1486,2.2076,2.1328,2.0936,2.0722,2.0566,1.9364,1.8481,1.8822,1.8557,0.0,0.0,0.0,0.0,0.0,0.0,0.0,0.0,0.0,0.0,0.0,1.0384,1.2033,1.6162,1.7514,2.0594,2.5923,2.6642,2.7814,2.956,2.9821,3.0309,3.1106,3.3422,3.4546,3.4344,2.8593,1.9617,0.8094,0.0299,-1.1087,-2.4226,-2.6451,-2.8771,-3.0937,-3.1998,-3.3367,-3.4477,-3.2837,-3.1042,-2.923,0.0,0.0,0.0,0.0,0.0,0.0,0.0,0.0,0.0,0.0,0.0,0.0,0.0,0.0,0.0,0.0,0.0,0.0,0.0,0.0,0.0,-0.9509,-1.0106,-1.0692,-1.1163,-1.1228,-1.1397,-1.1816,-1.1471,-1.1708,-1.2452,-1.1694,-1.0513,-0.8976,-0.7958,-0.6562,-0.511,-0.5015,-0.4623,-0.4229,-0.586,-0.6266,-0.5954,-0.7099,-0.7454,-0.7234,-0.6398,-0.5479,-0.4516,-0.2907,-0.0787,0.1338,0.3207,0.0,0.0,0.0,1.0243,1.1384,1.1795,1.2802,1.4073,1.5625,1.7024,1.847,1.9898,2.1435,2.2295,2.1439,2.1453,2.15,2.1131,2.0668,2.0222,2.0035,2.0115,0.0,0.0,0.0,0.0,0.0,0.0,0.0,0.0,0.0,0.0,0.0,1.2156,1.3574,1.666,1.8439,2.1208,2.5272,2.7056,2.8651,3.0046,3.058,3.1192,3.1879,3.3691,3.4762,3.4908,2.8351,1.8371,0.5891,-0.1459,-1.2234,-2.4769,-2.6518,-2.7937,-2.922,-3.1607,-3.2382,-3.2029,-3.0809,-2.8556,-2.5806,0.0,0.0,0.0,0.0,0.0,0.0,0.0,0.0,0.0,0.0,0.0,0.0,0.0,0.0,0.0,0.0,0.0,0.0,0.0,0.0,0.0,-1.1273,-1.1964,-1.2478,-1.2882,-1.2712,-1.2718,-1.2976,-1.2352,-1.2487,-1.3214,-1.267,-1.163,-1.0274,-0.866,-0.7353,-0.6204,-0.6007,-0.5889,-0.6063,-0.8174,-0.8649,-0.8038,-0.9238,-0.9583,-0.929,-0.8403,-0.7438,-0.6346,-0.549,-0.3643,-0.1556,-0.031,0.1779,0.0,0.0,0.0,0.8861,0.9165,1.0725,1.2656,1.3994,1.7213,2.0094,2.0091,2.2113,2.3692,2.2568,2.3103,2.3567,2.273,2.2246,2.1781,2.1391,2.1609,0.0,0.0,0.0,0.0,0.0,0.0,0.0,0.0,0.0,0.0,0.0,1.3855,1.4917,1.7241,1.9242,2.176,2.4901,2.7111,2.905,3.0611,3.1414,3.2107,3.272,3.3705,3.4511,3.4934,2.837,1.7991,0.4819,-0.2423,-1.2181,-2.3236,-2.5827,-2.7032,-2.7524,-3.0294,-3.0788,-2.9754,-2.8302,-2.5826,-2.2849,0.0,0.0,0.0,0.0,0.0,0.0,0.0,0.0,0.0,0.0,0.0,0.0,-1.073,-1.0742,-1.0885,-1.1678,-1.1752,-1.2038,-1.2521,-1.3259,-1.3927,-1.4229,-1.4688,0.0,-1.4704,-1.4011,-1.3528,-1.3375,-1.2659,-1.2599,-1.3281,-1.3013,-1.2744,-1.2505,-1.0288,-0.9046,-0.8532,-0.764,-0.8052,-0.927,-0.9902,-1.0379,-1.0858,-1.1354,-1.1641,-1.1558,-1.0408,-0.9547,-0.8764,-0.7239,-0.5573,-0.4046,-0.3189,-0.1943,-0.062,0.0,0.0,0.0,0.6881,0.8427,1.0261,1.2419,1.7813,2.2259,2.126,2.424,2.6975,2.598,2.6816,2.7345,2.6273,2.3999,2.2433,2.2871,2.298,0.0,0.0,0.0,0.0,0.0,0.0,0.0,0.0,0.0,0.0,0.0,1.4965,1.6276,1.9723,1.9699,2.1779,2.6698,2.6135,2.7438,3.0864,3.1845,3.2575,3.3004,3.3923,3.4139,3.3516,2.807,1.854,0.5845,-0.2507,-1.1486,-2.0563,-2.483,-2.6807,-2.7151,-2.7724,-2.8161,-2.813,-2.4878,-2.2374,-1.9984,0.0,0.0,0.0,0.0,0.0,0.0,0.0,0.0,0.0,0.0,0.0,0.0,0.0,-1.2538,-1.3114,-1.3871,-1.4907,-1.5791,-1.6231,-1.667,-1.6697,-1.6095,-1.6339,-1.6444,-1.628,-1.5092,-1.4609,-1.4887,-1.3535,-1.3414,-1.4439,-1.4102,-1.4349,-1.5007,-1.2165,-1.0435,-0.962,-0.947,-0.9825,-1.0634,-1.1403,-1.2381,-1.334,-1.3818,-1.404,-1.4123,-1.3802,-1.2899,-1.1709,-1.0644,-0.897,-0.7103,-0.5909,-0.4775,-0.357,-0.2022,0.0305,0.2542,0.3035,0.5735,0.7729,0.5029,1.2352,2.0085,1.9475,2.339,2.7287,2.7882,2.8375,2.8542,2.7976,2.5966,2.4288,2.4053,2.4021,0.0,0.0,0.0,0.0,0.0,0.0,0.0,0.0,0.0,0.0,0.0,0.0,1.9535,2.1124,2.1956,2.3509,2.6027,2.7094,2.8557,3.0431,2.5628,2.6036,3.1542,2.7121,2.795,3.3239,3.0111,2.3949,1.5225,0.5227,-0.7498,-2.142,-2.3686,-2.4872,-2.5512,-2.7847,-2.7669,-2.5998,-2.4915,-2.2226,-1.8752,0.0,0.0,0.0,0.0,0.0,0.0,0.0,0.0,0.0,-1.1105,0.0,0.0,0.0,0.0,-1.5288,-1.6287,-1.7707,-1.8711,-1.9086,-1.9359,-1.9228,-1.8502,-1.8322,-1.823,-1.8233,-1.6493,-1.572,-1.6067,-1.4647,-1.4419,-1.5209,-1.5095,-1.5692,-1.6676,-1.466,-1.2985,-1.1822,-1.2529,-1.3008,-1.3354,-1.449,-1.5634,-1.6701,-1.6625,-1.6836,-1.7161,-1.6807,-1.587,-1.4615,-1.3414,-1.1702,-0.9766,-0.826,-0.701,-0.5732,-0.4297,-0.2439,-0.0669,-0.022,0.242,0.4491,0.1737,1.0044,1.9127,2.0139,2.4501,2.8593,2.9584,3.0006,3.0172,3.0079,2.8469,2.6723,2.5381,2.5136,0.0,0.0,0.0,0.0,0.0,0.0,0.0,0.0,0.0,0.0,0.0,0.0,0.0,2.2906,2.3856,2.5013,2.6455,2.814,2.9271,2.9779,2.3787,2.3863,2.9904,2.4753,2.5662,3.1891,3.0822,2.6575,1.9559,1.1265,-0.1703,-1.7233,-2.1455,-2.3419,-2.4123,-2.7245,-2.653,-2.3706,-2.3688,-2.1329,-1.794,0.0,0.0,0.0,0.0,0.0,0.0,0.0,0.0,-1.0496,-1.2077,0.0,0.0,0.0,0.0,0.0,-1.8926,-1.9944,-2.0651,-2.0876,-2.1192,-2.1393,-2.1451,-2.0624,-2.027,-2.0479,-1.81,-1.6819,-1.6729,-1.5871,-1.5499,-1.5545,-1.6049,-1.6752,-1.7587,-1.7727,-1.6887,-1.5355,-1.6927,-1.7557,-1.7724,-1.9015,-2.0112,-2.0753,-1.9661,-1.9934,-2.0675,-1.925,-1.8398,-1.7539,-1.5338,-1.3525,-1.1999,-1.0209,-0.856,-0.7107,-0.6318,-0.4969,-0.3513,0.0,0.0,0.0,0.3079,1.1357,1.971,2.3242,2.7723,3.1157,3.1284,3.1902,3.246,3.2588,3.1438,2.9652,2.7032,2.6459,2.6414,0.0,0.0,0.0,0.0,0.0,0.0,0.0,0.0,0.0,0.0,2.2675,2.289,2.5239,2.5278,2.6156,2.8122,2.8898,2.9039,2.8584,2.6431,2.6219,2.7931,2.6972,2.7441,2.9132,2.9597,2.5532,1.7897,1.4436,0.548,-0.7469,-1.8046,-2.2497,-2.2941,-2.5645,-2.4525,-2.1312,-2.1005,-1.9519,-1.7407,0.0,0.0,0.0,0.0,0.0,0.0,-0.9653,-1.019,-1.0789,0.0,0.0,0.0,-1.6105,-1.8309,-1.9836,-2.0268,-2.1267,-2.2101,-2.2628,-2.2859,-2.2738,-2.2125,-2.1702,-2.1184,-2.049,-1.909,-1.7806,-1.6729,-1.6439,-1.6328,-1.6349,-1.6927,-1.8168,-2.0115,-2.0459,-2.0448,-2.0166,-1.9457,-1.9333,-1.9715,-2.0695,-2.1647,-2.2313,-2.1138,-2.1204,-2.1765,-2.0317,-1.9639,-1.9061,0.0,-1.5528,-1.4304,-1.2074,-1.0745,-0.9839,-0.9286,-0.7988,-0.6452,-0.5159,0.0,0.0,0.0,0.0,0.0,1.7809,2.4949,3.2116,3.3409,3.3322,3.2986,3.2788,3.2381,3.156,3.0013,2.8369,2.738,0.0,0.0,0.0,0.0,0.0,0.0,0.0,0.0,0.0,0.0,2.529,2.5893,2.6571,2.804,2.7694,2.5138,2.4455,2.2366,1.8622,1.1467,1.1776,1.9411,1.3599,1.4844,2.223,2.1577,2.001,1.7424,1.1846,0.6273,0.0231,-1.1996,-1.8247,-2.0414,-2.3553,-2.3494,-2.1522,-2.0627,-1.9547,-1.8152,0.0,0.0,0.0,0.0,0.0,-0.9519,-1.0732,-1.1265,-1.179,0.0,0.0,0.0,-1.7323,-1.9744,-2.1337,-2.1667,-2.264,-2.3518,-2.4176,-2.4144,-2.3942,-2.3596,-2.2955,-2.2294,-2.1672,-2.0493,-1.9199,-1.7806,-1.7806,-1.7644,-1.7506,-1.8395,-1.9713,-2.1298,-2.2038,-2.2595,-2.2985,-2.2875,-2.2684,-2.2535,-2.3472,-2.4318,-2.4955,-2.3589,-2.3546,-2.4047,-2.2527,-2.2025,-2.1619,-1.8871,-1.6945,0.0,-1.3662,-1.2752,-1.2113,-1.1481,-1.0137,-0.8589,-0.7557,-0.6007,-0.4643,-0.4469,0.0,0.0,1.6215,2.4705,3.2426,0.0,3.3144,3.2838,3.2986,3.2652,3.2181,3.1562,2.9875,2.8664,0.0,0.0,0.0,0.0,0.0,0.0,0.0,2.6052,2.6428,2.6306,2.7467,2.8476,2.9099,2.9873,2.8823,2.5576,2.2872,1.957,1.5604,0.7471,0.6933,1.381,0.7842,0.8709,1.5563,1.573,1.5849,1.5607,1.146,0.8294,0.5373,-0.4731,-1.1674,-1.6443,-2.1092,-2.1676,-1.9868,-2.0028,-1.9258,-1.7917,0.0,0.0,-1.0732,-1.167,-1.1258,-1.1106,-1.2058,-1.2516,-1.2988,0.0,-1.4471,-1.6142,-1.8744,-2.0782,-2.2251,-2.3055,-2.3884,-2.4681,-2.5342,-2.4978,-2.4918,-2.5243,-2.4091,-2.3448,-2.3421,-2.1937,-2.0703,-1.9638,-1.9581,-1.9288,-1.884,-2.0257,-2.1246,-2.1897,-2.2999,-2.3868,-2.466,-2.6553,-2.6681,-2.5812,-2.669,-2.7437,-2.7931,-2.6288,-2.6232,-2.6851,-2.5137,-2.4719,-2.4356,-2.0783,-1.7958,0.0,0.0,-1.4656,-1.3992,-1.3164,-1.1673,-1.0206,-0.9751,-0.8038,-0.6135,-0.5365,0.0738,0.0,1.6669,2.529,3.1786,0.0,3.2443,3.26,3.3301,3.2768,3.2241,3.2357,3.1411,3.0263,0.0,0.0,0.0,0.0,0.0,0.0,2.6715,2.7037,2.751,2.8297,2.9349,3.058,3.1994,3.0923,2.9232,2.6994,2.2309,1.834,1.5221,0.8913,0.6943,0.9254,0.5849,0.5887,0.9005,1.0754,1.1856,1.2355,1.1759,1.0387,0.8198,0.23,-0.4504,-1.1785,-1.7919,-1.8914,-1.7162,-1.8994,-1.862,-1.7019,0.0,-1.2003,-1.2074,-1.2461,-1.247,-1.2562,-1.3135,-1.3083,-1.3209,-1.3945,-1.6008,-1.8022,-1.9523,-2.1709,-2.3268,-2.3691,-2.4503,-2.5063,-2.5231,-2.4794,-2.4718,-2.5123,-2.428,-2.3911,-2.4288,-2.3034,-2.1998,-2.1293,-2.1115,-2.0905,-2.0726,-2.1408,-2.2683,-2.4302,-2.4756,-2.5864,-2.7485,-2.8983,-2.9011,-2.8223,-2.8377,-2.8813,-2.9149,-2.7243,-2.7122,-2.77,-2.5778,-2.4915,-2.4281,-2.1144,-1.8913,-1.7484,0.0,0.0,0.0,-1.5233,0.0,-1.1681,-1.0821,-0.9734,-0.841,0.0,-0.0931,0.0,1.4696,2.1844,2.8305,0.0,3.4603,3.4164,3.4323,3.4195,3.407,3.412,3.4431,3.2345,2.5669,0.0,0.0,0.0,0.0,0.0,2.6136,2.7534,2.8777,2.9937,3.1021,3.1875,3.2456,3.0948,2.7423,2.1621,1.7291,1.164,0.4563,0.0468,-0.111,-0.0245,-0.2516,-0.1786,0.1607,0.2793,0.4361,0.618,0.7685,0.8293,0.7893,0.3799,-0.2,-0.8742,-1.2076,-1.3958,-1.4938,-1.6288,-1.6565,-1.6335,-1.2791,-1.2769,-1.2885,-1.2976,-1.2979,-1.3104,-1.3475,-1.3959,-1.4479,-1.4963,-1.7588,-1.9591,-2.0012,-2.2173,-2.3717,-2.4099,-2.4828,-2.5592,-2.6301,-2.5703,-2.5608,-2.6432,-2.5432,-2.4872,-2.4891,-2.4221,-2.3475,-2.2833,-2.2564,-2.2604,-2.2828,-2.3507,-2.4235,-2.5031,-2.6375,-2.7197,-2.7762,-2.9803,-3.0728,-3.0752,-3.0028,-2.9485,-2.9031,-2.8521,-2.8323,-2.8275,-2.7203,-2.5925,-2.4533,-2.3219,-2.1681,0.0,-1.9969,-1.9019,-1.785,0.0,-1.5631,-1.3819,0.0,0.0,0.0,-0.8453,0.0,0.0,0.0,1.3038,1.8199,2.3611,2.7161,2.9314,2.9308,3.1855,3.3951,3.3949,3.2064,2.8421,2.2128,2.3159,0.0,0.0,0.0,0.0,2.4423,2.6057,2.8425,3.226,3.283,3.3048,3.313,3.147,2.7805,2.1876,1.6465,1.0201,0.2893,-0.2761,-0.5815,-0.6395,-0.8907,-0.8799,-0.6226,-0.3286,-0.1227,0.0422,0.4921,0.6927,0.6929,0.5628,0.2147,-0.2901,-0.7992,-1.0381,-1.1341,-1.4715,-1.57,-1.5375,-1.3426,-1.3417,-1.3645,-1.3557,-1.3583,-1.3676,-1.3952,-1.4904,-1.5913,-1.6501,-1.892,-2.0787,-2.1047,-2.275,-2.4128,-2.4992,-2.5392,-2.6217,-2.7806,-2.6871,-2.6651,-2.7551,-2.6738,-2.6026,-2.5493,-2.5438,-2.5098,-2.4589,-2.429,-2.4459,-2.5189,-2.5852,-2.5946,-2.5754,-2.7534,-2.8119,-2.7907,-3.0116,-3.1402,-3.193,-3.1378,-3.0543,-2.969,-2.9996,-2.9781,-2.9264,-2.8732,-2.7175,-2.5424,-2.5697,-2.4767,-2.3264,-2.2127,-2.1422,0.0,0.0,0.0,0.0,0.0,0.0,0.0,0.0,0.0,-0.5321,0.0,0.0,0.0,0.0,0.0,0.0,0.0,0.0,0.0,0.0,0.0,0.0,0.0,2.1732,0.0,0.0,0.0,0.0,0.0,2.6383,2.9241,3.414,3.446,3.4058,3.3233,3.1691,2.8559,2.3685,1.7295,1.0651,0.3953,-0.3491,-0.8422,-1.0746,-1.3742,-1.4305,-1.2491,-0.817,-0.5375,-0.3632,0.2653,0.5513,0.5719,0.664,0.5402,0.2393,-0.3988,-0.676,-0.7912,-1.3155,-1.484,-1.4676,-1.4657,-1.4418,-1.4584,-1.4828,-1.4965,-1.5225,-1.5695,-1.5871,-1.6607,-1.8727,-1.9658,-2.1069,-2.3663,-2.3893,-2.4911,-2.7517,-2.6815,-2.7095,-2.9233,-2.7726,-2.6761,-2.6796,-2.7271,-2.7093,-2.6123,-2.6573,-2.6992,-2.7245,-2.6697,-2.6819,-2.7617,-2.7696,-2.7971,-2.8339,-2.7861,-2.8573,-3.0218,-3.0632,-3.018,-2.9359,-3.1629,-3.3079,0.0,-3.1858,-3.1506,-3.1633,-2.9865,-2.8389,-2.7365,0.0,-2.6469,-2.5347,0.0,-2.3342,-2.1145,-2.0238,0.0,0.0,0.0,0.0,0.0,0.0,-1.2239,0.0,0.0,0.0,0.6187,1.41,0.0,0.0,0.0,0.0,0.0,0.0,0.0,0.0,1.7526,1.8718,2.0195,0.0,0.0,0.0,0.0,3.3455,3.4614,3.4264,3.5454,3.4791,3.1557,3.0592,2.8118,2.3837,1.8094,1.1056,0.2667,-0.3042,-0.8628,-1.4106,-1.6459,-1.644,-1.4261,-1.1614,-0.8028,-0.3657,0.0759,0.3457,0.486,0.5003,0.4336,0.3161,0.1572,-0.1994,-0.6676,-1.023,-1.2742,-1.4625,-1.5332,-1.5383,-1.5837,-1.6038,-1.6241,-1.6654,-1.74,-1.8267,-1.9346,-2.0814,-2.1816,-2.2966,-2.4648,-2.5498,-2.6621,-2.8166,-2.8134,-2.8555,-2.9791,-2.8613,-2.8053,-2.8352,-2.8296,-2.7988,-2.751,-2.7643,-2.788,-2.8182,-2.8088,-2.8447,-2.9289,-2.9289,-2.9294,-2.9262,-2.8924,-2.8961,-2.9403,-3.0685,-3.1182,-3.1225,0.0,-3.4028,0.0,-3.23,-3.1533,-3.1466,-3.0377,-2.927,-2.8271,0.0,-2.7879,0.0,0.0,0.0,0.0,-2.1993,0.0,0.0,0.0,0.0,0.0,0.0,0.0,0.0,-0.9984,0.0,-0.3952,0.0,0.0,0.0,0.0,0.0,0.0,0.0,2.3595,0.0,0.0,0.0,0.8826,0.0,0.0,0.0,0.0,0.0,0.0,0.0,3.4982,3.4366,3.1035,3.0645,2.8404,2.3769,1.8506,1.1317,0.1991,-0.377,-1.002,-1.6824,-1.8541,-1.841,-1.641,-1.3538,-1.0444,-0.7041,-0.1604,0.1072,0.1741,0.3537,0.3287,0.178,0.1557,-0.0897,-0.5075,-1.0755,-1.3078,-1.3792,-1.6991,-1.7124,-1.7647,-1.7588,-1.8012,-1.8618,-1.9473,-2.0854,-2.2138,-2.2905,-2.3921,-2.4955,-2.5902,-2.6966,-2.8103,-2.9419,-2.9327,-2.9662,-3.0528,-2.958,-2.9002,-2.9001,-2.922,-2.9096,-2.8526,-2.8754,-2.9059,-2.9289,-2.9497,-2.9981,-3.0808,-3.0852,-3.0711,-3.0448,-3.0175,-2.9664,-2.9149,-3.0752,-3.1551,-3.1851,-3.3148,-3.3846,-3.3974,-3.2471,-3.1534,-3.0951,-3.0723,-2.9888,-2.8907,-2.9191,-2.914,0.0,-2.6771,0.0,-2.615,0.0,0.0,0.0,-2.1781,0.0,0.0,0.0,0.0,0.0,0.0,0.0,0.0,0.0,0.0,0.0,0.0,0.0,0.0,0.0,0.0,0.755,0.0,0.2868,0.0,0.0,0.0,0.0,0.0,0.0,0.0,3.2615,3.2708,3.1804,3.0368,3.0398,2.8301,2.3582,1.84,1.0971,0.1082,-0.4619,-1.1227,-1.8793,-1.9824,-1.9738,-1.8496,-1.5342,-1.2621,-1.0086,-0.45,-0.1906,-0.1502,0.0896,0.0738,-0.0948,-0.1327,-0.2856,-0.5524,-1.1137,-1.3208,-1.3584,-2.0364,-2.0226,-2.0182,-1.971,-2.0557,-2.1483,-2.2287,-2.345,-2.4449,-2.4939,-2.5526,-2.6554,-2.8095,-2.8136,-2.9135,-3.203,-3.0525,-3.0028,-3.167,-3.0558,-2.9157,-2.7547,-2.9868,-3.038,-2.8565,-3.0022,-3.099,-3.1304,-3.1222,-3.1566,-3.221,-3.2524,-3.2586,-3.2547,-3.1428,-3.0867,-3.0738,-3.1121,-3.0434,-2.9246,-3.1651,-3.2368,-3.1972,0.0,-3.1972,-3.0749,-3.0924,0.0,0.0,-3.0419,-3.0315,0.0,0.0,0.0,0.0,0.0,0.0,0.0,0.0,0.0,0.0,-2.5102,0.0,0.0,0.0,0.0,-1.4414,0.0,0.0,0.0,0.0,0.0,0.0,0.6337,0.0,0.0,0.0,0.0,0.0,0.0,0.0,0.0,0.0,0.0,0.0,3.2155,2.8119,2.6344,2.9096,2.9302,2.7419,2.3141,1.7625,0.9864,-0.0335,-0.5303,-1.1838,-1.9868,-2.0042,-2.0161,-2.0215,-1.732,-1.4533,-1.1703,-0.8123,-0.5768,-0.4399,-0.3755,-0.407,-0.5234,-0.6841,-0.8208,-0.9383,-1.0413,-1.2301,-1.468,-2.3716,-2.3973,-2.3906,-2.2332,-2.2829,-2.3799,-2.4925,-2.5769,-2.6453,-2.6974,-2.7683,-2.8772,-3.0473,-3.0929,-3.1806,-3.3585,-3.3328,-3.3066,-3.3141,-3.2551,-3.1773,-3.0669,-3.1332,-3.1426,-3.0761,-3.161,-3.1965,-3.1751,-3.256,-3.2893,-3.2772,-3.3024,-3.3251,-3.3271,-3.1978,-3.123,-3.1015,-3.1451,-3.1191,-3.0622,0.0,-3.2993,-3.2861,0.0,0.0,-3.0939,-3.0645,-3.0004,0.0,-3.0361,-3.0495,-3.0172,-2.9643,-2.9273,-2.8663,-2.6935,-2.5899,0.0,0.0,0.0,-2.7437,-2.838,0.0,0.0,0.0,0.0,0.0,0.0,0.0,0.0,0.0,0.0,0.0,-0.961,0.0,0.0,0.0,0.0,0.0,0.0,0.0,0.0,0.0,0.0,0.0,1.4752,1.4905,1.6614,2.108,1.6797,1.6056,2.0112,1.1965,0.4318,-0.2441,-0.6022,-1.1451,-1.8609,-1.9511,-1.8936,-1.7055,-1.6173,-1.4159,-1.1285,-0.882,-0.7327,-0.6569,-0.5433,-0.5822,-0.7179,-0.7806,-0.9463,-1.147,-1.2669,-1.3795,-1.4996,-2.6362,-2.6817,-2.67,-2.4637,-2.5065,-2.6113,-2.7099,-2.8181,-2.899,-2.9337,-3.0404,-3.1618,-3.2977,0.0,-3.4288,0.0,-3.5369,-3.4893,-3.3986,-3.411,0.0,-3.2175,-3.2567,-3.2488,-3.1784,-3.2419,-3.253,-3.2149,-3.342,-3.3974,-3.3905,-3.4153,-3.4333,-3.4447,-3.3401,-3.2426,-3.157,-3.2014,-3.1756,-3.1165,0.0,-3.2984,0.0,0.0,-3.1122,-3.1182,0.0,-2.9565,-2.9088,-2.9827,-3.0033,-2.9932,-2.9703,-2.9548,-2.9259,-2.8157,-2.761,-2.7487,-2.8035,-2.9024,0.0,-3.0504,-3.106,0.0,-2.8465,0.0,0.0,0.0,0.0,0.0,0.0,0.0,0.0,-1.6362,-1.9343,0.0,0.0,-2.5103,0.0,0.0,0.0,0.0,0.0,0.0,-0.3611,0.4496,0.3611,0.5492,0.0,0.0,0.6885,1.3332,0.5708,-0.0211,-0.3714,-0.6468,-1.0773,-1.6559,-1.7494,-1.7222,-1.587,-1.5494,-1.4292,-1.2398,-1.0668,-0.9622,-0.91,-0.852,-0.8604,-0.918,-0.9905,-1.1396,-1.3215,-1.3996,-1.5263,-1.6669,-2.8419,-2.8729,-2.8535,-2.6698,-2.7386,-2.8319,0.0,0.0,-3.1941,-3.1988,-3.3604,-3.5015,-3.5661,-3.5919,-3.6452,-3.7286,-3.669,-3.5701,-3.4376,-3.531,0.0,0.0,-3.3661,-3.365,-3.1659,0.0,0.0,-3.2735,-3.3856,-3.4756,-3.5504,-3.5759,-3.5907,-3.5907,-3.5588,-3.4283,-3.2415,-3.2858,-3.215,-3.0802,-3.2186,-3.2357,-3.1742,-3.1243,-3.1319,-3.1528,-3.0022,-2.9026,-2.85,-2.8984,-2.9115,-2.9093,-2.947,-2.9295,-2.8953,-2.9037,-2.8935,-2.896,-2.978,-3.1166,-3.2176,-3.1404,0.0,0.0,0.0,0.0,-1.4398,0.0,0.0,0.0,0.0,0.0,0.0,0.0,-2.0926,0.0,0.0,0.0,-2.7688,0.0,0.0,-1.702,-0.957,-1.5398,-1.368,0.0593,-0.5812,-0.6616,0.0,0.0,-0.0103,0.3604,-0.0834,-0.3643,-0.4392,-0.6787,-1.0033,-1.3995,-1.4238,-1.513,-1.6468,-1.5292,-1.4814,-1.4822,-1.3448,-1.2378,-1.1706,-1.2625,-1.2258,-1.1329,-1.299,-1.4083,-1.4736,-1.4522,-1.6591,-1.9431,-3.0038,-3.0293,-3.0514,-3.0116,-3.0323,-3.0646,0.0,0.0,0.0,0.0,-3.629,-3.7748,-3.7617,-3.8294,-3.8602,-3.8228,-3.8466,0.0,0.0,0.0,0.0,-3.5324,-3.5494,-3.4818,-3.3181,-3.4253,-3.4427,-3.3528,-3.4912,-3.5562,-3.5504,-3.5732,-3.5837,-3.5907,-3.582,-3.4968,-3.3658,-3.3768,-3.3087,-3.1984,-3.2773,-3.3643,0.0,0.0,-3.3076,-3.2939,-3.001,-2.8998,-2.9095,-2.982,-2.9774,-2.9625,-3.0522,-3.0294,-2.9677,-2.9775,-2.9817,-2.9836,-2.9966,-3.0878,-3.1768,-3.1558,-3.1348,-3.0381,0.0,0.0,0.0,0.0,0.0,0.0,0.0,0.0,0.0,-2.4809,-3.0243,-3.315,0.0,0.0,0.0,-3.4094,0.0,-2.8227,-2.2961,-2.3372,-2.242,-1.8653,-2.0049,-1.6781,-0.701,0.0,0.0,-0.0671,-0.5945,-0.86,-0.7667,-0.7751,-0.9336,-1.241,-1.3491,-1.4078,-1.4091,-1.4291,-1.3787,-1.2565,-1.2365,-1.1781,-1.1037,-1.162,-1.1983,-1.2278,-1.3011,-1.4704,-1.6591,-1.6655,-1.7432,-1.8462,-3.1465,-3.1935,-3.2376,-3.2475,0.0,0.0,-3.2479,-3.3763,0.0,-3.5864,-3.7841,0.0,-3.9268,-3.9847,-4.0069,-3.9682,-4.0082,0.0,-3.8885,0.0,0.0,-3.6806,-3.6751,-3.5707,-3.3414,-3.4491,0.0,-3.3482,-3.4717,-3.539,-3.5582,-3.57,-3.5801,-3.5866,-3.6086,-3.5693,-3.483,-3.43,-3.3793,-3.3341,-3.3447,-3.3868,0.0,-3.322,-3.2668,-3.2138,-2.9821,-2.9075,-2.932,-2.9805,-2.9764,-2.9645,-3.044,-3.0357,-3.0067,-3.0573,-3.0499,-3.0306,-3.0628,-3.1124,-3.1407,-3.0789,-3.0243,-2.8785,-2.4648,-1.9291,-1.3201,0.0,0.0,0.0,0.0,0.0,0.0,-2.989,0.0,0.0,0.0,0.0,0.0,0.0,-3.511,0.0,-3.0877,-2.8966,-2.7744,-2.7306,-2.7367,-2.4237,0.0,0.0,0.0,-0.789,-1.0457,-1.0583,-0.7603,-0.6966,-0.7681,-0.9789,-1.0783,-1.1483,-1.2077,-1.2572,-1.2498,-1.2077,-1.2224,-1.2003,-1.1632,-1.2652,-1.3011,-1.3077,-1.4554,-1.6296,-1.7978,-1.8442,-1.8921,-1.9375,-3.2578,-3.3317,-3.3911,-3.4022,0.0,0.0,0.0,-3.4804,0.0,-3.728,0.0,-4.0104,-4.0724,-4.1041,-4.1226,-4.1276,-4.1446,-4.1086,-4.004,-4.0787,-4.0132,-3.7558,-3.7602,-3.6209,-3.3031,-3.3786,-3.3859,0.0,0.0,-3.476,-3.577,-3.5588,-3.5665,-3.5942,-3.6237,-3.6177,-3.568,-3.463,-3.4253,-3.4382,-3.3954,-3.3506,-3.304,-3.2247,-3.1452,-3.0674,-2.989,-2.9502,-2.9375,-2.9414,-2.9454,-2.9551,-2.9874,-3.0121,-3.0462,-3.1299,-3.1133,-3.0819,-3.153,-3.1648,-3.128,-3.0032,-2.9282,-2.7266,-2.125,-1.6564,-1.2262,-0.7677,-0.7175,-0.7744,0.0,0.0,0.0,-3.1504,0.0,0.0,0.0,0.0,0.0,0.0,0.0,0.0,-3.4843,-3.2723,-3.0984,-3.0039,-3.056,-2.9377,0.0,0.0,0.0,-1.5612,-1.4004,0.0,-0.6451,0.0,-0.6044,-0.7273,-0.7702,-0.8756,-1.0357,-1.0663,-1.1329,-1.2298,-1.2372,-1.2526,-1.2739,-1.4258,-1.4466,-1.4148,-1.6702,-1.8247,-1.91,-1.9901,-2.0624,-2.1198,-3.2578,-3.3301,-3.4046,-3.4574,0.0,-3.546,-3.6836,-3.7688,-3.8344,-3.8789,-4.0882,-4.215,-4.1701,-4.2291,-4.2607,-4.2346,-4.2374,0.0,0.0,0.0,0.0,-3.9394,-3.788,-3.5931,-3.3476,-3.3251,-3.3173,0.0,0.0,0.0,-3.6093,-3.5104,-3.5328,-3.6502,-3.6123,-3.5753,-3.5431,-3.4772,0.0,-3.3944,-3.3276,-3.3326,-3.3728,-3.299,-3.2284,-3.168,-3.1676,-3.079,-2.9625,-2.9589,-2.975,-3.0007,-3.0228,-3.0772,-3.1402,-3.1738,-3.2155,-3.2491,-3.2372,-3.2168,-3.1912,-3.155,-2.9934,-2.7527,-2.4172,-2.0616,-1.6682,-1.2184,-1.0906,-1.1284,-1.3517,0.0,0.0,0.0,0.0,0.0,0.0,0.0,0.0,0.0,0.0,-3.4995,0.0,-3.4622,-3.3967,-3.397,-3.345,0.0,0.0,0.0,0.0,0.0,-1.5236,0.0,0.0,0.0,-0.6965,-0.7608,-0.8077,-0.8751,-0.9508,-1.0426,-1.0732,-1.0645,-1.1329,-1.1996,-1.2645,-1.3084,-1.4426,-1.6383,-1.7988,-1.9222,-2.0161,-2.0624,-2.1146,-2.1726,-3.4151,-3.4369,-3.4689,-3.5347,0.0,0.0,0.0,-3.8745,-3.9511,-3.971,-4.091,-4.1695,-4.1533,-4.2278,-4.2662,-4.253,-4.2844,-4.2776,-4.2021,-4.1643,-4.0755,-3.9254,-3.7869,-3.6194,-3.4181,-3.3371,-3.309,-3.335,0.0,0.0,0.0,0.0,0.0,-3.6161,-3.6357,-3.6389,0.0,0.0,0.0,-3.3943,-3.3276,-3.3022,-3.2985,-3.2332,-3.1864,-3.1561,-3.1217,-3.0657,-3.0037,-2.9899,-2.9988,-3.018,-3.0349,-3.0991,-3.1815,-3.2402,-3.2746,-3.2879,-3.2583,-3.1988,-3.1266,-3.037,-2.8833,-2.6889,-2.4221,-2.155,-1.8792,-1.5769,-1.485,-1.577,-1.9602,-2.4329,0.0,0.0,0.0,0.0,0.0,0.0,-3.5037,0.0,0.0,0.0,0.0,0.0,0.0,0.0,0.0,0.0,0.0,0.0,0.0,0.0,0.0,0.0,0.0,0.0,0.0,-0.8349,-0.797,-0.8084,-0.8689,-0.8998,-0.9453,-1.0056,-1.0201,-1.1236,-1.2858,-1.4419,-1.6044,-1.7658,-1.9156,-2.0031,-2.0571,-2.1106,-2.1498,-2.1749,-3.5844,-3.5764,-3.5823,0.0,-3.7005,0.0,-3.8417,-3.9463,-4.022,-4.0351,-4.0566,-4.0918,-4.1373,-4.1966,-4.2346,-4.2382,-4.2923,-4.2736,-4.156,-4.1342,-4.0456,-3.869,-3.7596,-3.6239,-3.4464,-3.3134,-3.2674,0.0,0.0,0.0,0.0,0.0,0.0,0.0,0.0,0.0,0.0,0.0,-3.4685,-3.3957,-3.3296,-3.2636,-3.1972,-3.1356,-3.1111,-3.1011,-3.0432,-3.0312,-3.0392,-3.0279,-3.0259,-3.0318,-3.0424,-3.1228,-3.2233,-3.2982,-3.3306,-3.3318,-3.2858,-3.2106,-3.1046,-2.9466,-2.8323,-2.6992,-2.4723,-2.2757,-2.0899,-1.9039,-1.8198,-1.9135,-2.3546,-2.5882,0.0,0.0,0.0,0.0,0.0,0.0,0.0,0.0,0.0,0.0,-3.2715,0.0,0.0,0.0,0.0,0.0,0.0,0.0,0.0,0.0,0.0,-1.545,-1.368,0.0,-0.9734,0.0,-0.8389,-0.8012,-0.825,-0.8021,-0.8623,-0.9765,-0.983,-1.123,-1.3585,-1.6262,-1.7745,-1.8509,-2.0042,-2.0635,-2.0764,-2.1233,-2.1434,-2.1434,0.0,0.0,0.0,0.0,0.0,0.0,-4.0391,-4.0724,-4.0823,-4.0823,-4.0871,-4.1209,-4.2008,-4.2157,-4.2232,-4.2315,-4.2362,-4.2032,-4.1192,-4.0441,-3.9653,-3.8742,-3.6853,-3.5119,-3.3563,-3.1709,-3.116,0.0,0.0,0.0,0.0,0.0,0.0,0.0,0.0,0.0,0.0,-3.5497,-3.4795,-3.3658,-3.2822,-3.2067,-3.1402,-3.0737,-3.0447,-3.0411,-3.0583,-3.0579,-3.0501,-3.0615,-3.0649,-3.0671,-3.0668,-3.1771,-3.3084,-3.3169,-3.4089,-3.4868,-3.3865,-3.3355,-3.2748,-3.1366,-3.0413,-2.9509,-2.8401,-2.6709,-2.468,-2.2183,-1.9915,-1.9182,-2.208,-2.3313,-2.5071,0.0,0.0,0.0,0.0,0.0,-3.2283,-3.0864,0.0,0.0,0.0,-3.2863,0.0,0.0,-3.2085,0.0,0.0,0.0,0.0,-2.3244,0.0,-1.7627,-1.5739,-1.3741,0.0,-1.0775,-1.0413,-0.9648,-0.8685,-0.9155,-0.9387,-0.9448,-1.1025,-1.3011,-1.5125,-1.7276,-1.8442,-1.9044,-2.0172,-2.0828,-2.1094,-2.07,-2.0495,-2.0431,0.0,0.0,0.0,0.0,0.0,0.0,0.0,-4.0884,-4.0932,-4.0498,-4.0753,-4.1226,-4.1839,-4.218,-4.2294,-4.2081,-4.2249,-4.1599,-3.9834,-3.9381,-3.8615,-3.7312,-3.5985,-3.4907,-3.4075,-3.2583,-3.2137,0.0,0.0,0.0,0.0,0.0,0.0,0.0,0.0,-3.6557,-3.5875,-3.5363,-3.4618,-3.3791,-3.3569,-3.2685,-3.1502,-3.1361,-3.097,-3.0502,-3.0645,-3.0678,-3.0639,-3.0769,-3.0762,-3.078,-3.1266,-3.2243,-3.3304,-3.3832,-3.4264,-3.4347,-3.3271,-3.2446,-3.1553,-3.0236,-2.9383,-2.8658,-2.792,-2.6656,-2.5299,-2.4041,-2.2752,-2.2277,-2.3747,-2.5146,-2.6737,0.0,0.0,0.0,0.0,0.0,0.0,-2.9633,0.0,-3.0022,0.0,0.0,0.0,0.0,0.0,0.0,0.0,0.0,0.0,-2.4318,0.0,-1.9213,-1.8142,-1.5803,-1.3852,-1.2392,-1.1687,-1.0908,-1.0104,-1.0034,-1.0179,-1.0616,-1.2551,-1.4363,-1.6123,-1.7939,-1.9044,-1.977,-2.0635,-2.0764,-2.0495,-2.0302,-1.9966,-1.9431,-3.9135,0.0,-3.894,0.0,-3.9795,-3.9884,-4.0494,-4.0866,-4.0902,-4.0227,-4.0627,-4.1121,-4.1569,-4.2024,-4.2159,-4.1766,-4.1728,-4.0793,-3.8601,-3.8412,-3.7654,-3.6038,-3.5349,0.0,-3.4302,-3.3301,-3.2948,-3.3241,-3.4349,0.0,0.0,0.0,0.0,0.0,-3.675,-3.6508,-3.6006,-3.5645,-3.5076,-3.4438,-3.4582,-3.3616,-3.2078,-3.1974,-3.1397,-3.0681,-3.0715,-3.0739,-3.0778,-3.0866,-3.082,-3.0873,-3.1677,-3.2343,-3.3006,-3.3863,-3.3942,-3.3522,-3.2517,-3.1585,-3.062,-2.9391,-2.8609,-2.7986,-2.7417,-2.6438,-2.5486,-2.4839,-2.4554,-2.4609,-2.5183,-2.6615,-2.8025,-2.8982,0.0,0.0,0.0,-3.0494,0.0,-2.8554,-2.9092,-2.8793,-2.6777,-2.8399,0.0,0.0,0.0,0.0,0.0,0.0,0.0,0.0,0.0,0.0,0.0,-1.7849,-1.6097,-1.4601,-1.3792,-1.2998,-1.243,-1.1838,-1.1918,-1.2524,-1.4004,-1.5359,-1.6669,-1.8075,-1.91,-1.9835,-2.0366,-2.0366,-2.0031,-1.9639,-1.9023,-1.82,-4.0255,-4.037,-4.0614,-4.1,-4.0982,-4.0918,-4.1047,-4.0982,-4.0764,-4.0333,-4.0436,-4.0748,-4.1348,-4.1724,-4.1748,-4.1335,-4.0572,-3.9446,-3.7821,-3.7642,-3.6895,0.0,0.0,-3.4623,-3.3844,-3.3253,-3.3013,-3.3101,0.0,0.0,-3.4982,0.0,-3.8742,-3.817,-3.8183,-3.722,-3.5665,-3.6497,-3.6405,-3.5688,-3.5679,-3.4727,-3.3186,-3.2328,-3.1492,-3.0799,-3.0799,-3.0838,-3.0899,-3.0892,-3.0855,-3.0945,-3.1756,-3.2,-3.2169,-3.2975,-3.3072,-3.2716,-3.185,-3.1268,-3.0641,-2.9565,-2.8874,-2.8332,-2.7829,-2.6821,-2.564,-2.4467,-2.4716,-2.53,-2.5742,-2.6547,-2.7748,-2.9496,0.0,0.0,0.0,0.0,0.0,-2.7674,-3.0219,-3.055,-2.6515,-2.8951,0.0,0.0,0.0,0.0,0.0,0.0,0.0,-2.3077,-2.2247,0.0,-2.1107,-2.0049,-1.8891,-1.7523,-1.6968,-1.633,-1.5539,-1.4977,-1.4893,-1.5196,-1.5401,-1.5886,-1.6673,-1.7628,-1.8442,-1.9044,-1.9044,-1.9441,-1.9901,-1.8566,-1.7531,-1.6807,-4.0531,-4.0549,-4.0728,-4.1335,-4.1436,-4.1507,-4.1596,-4.1414,-4.1001,-4.0321,-4.0448,-4.051,-4.0217,-4.0808,-4.1075,0.0,-3.9878,-3.8654,0.0,-3.6362,-3.5594,-3.463,-3.455,-3.4474,-3.4416,-3.4261,-3.4172,-3.4193,0.0,0.0,0.0,-3.7873,-3.816,-3.7332,-3.7986,-3.7995,-3.7518,-3.7753,-3.7755,-3.7571,-3.696,-3.607,-3.492,-3.3493,-3.2433,-3.1602,-3.1016,-3.0841,-3.0899,-3.0903,-3.0858,-3.0938,-3.1746,-3.2382,-3.2986,-3.3832,-3.3935,-3.3448,-3.1898,-3.1191,-3.0622,-2.9397,-2.8664,-2.8139,-2.7783,-2.6623,-2.5594,-2.5331,-2.5179,-2.5333,-2.6331,-2.6708,-2.7276,-2.829,-2.8666,0.0,0.0,0.0,-2.9528,-2.8039,-2.8951,-2.8541,0.0,-2.7312,0.0,0.0,0.0,0.0,0.0,0.0,0.0,0.0,-2.3056,0.0,-2.1663,-2.0775,-2.0044,-1.9563,-1.915,-1.8518,-1.7647,-1.6971,-1.6704,-1.6609,-1.6219,-1.6991,-1.8432,-1.8767,-1.9233,-1.977,-1.977,-1.9299,-1.8633,-1.8172,-1.7198,-1.6018,-4.0814,-4.096,-4.11,-4.1657,-4.1796,-4.1864,-4.2008,-4.164,-4.1158,-4.0492,-4.0422,-4.022,-3.9649,-3.9771,0.0,-3.9833,-3.8841,-3.7668,-3.6347,-3.582,-3.5245,-3.4524,-3.4445,-3.4529,-3.4694,0.0,0.0,-3.485,-3.5714,-3.6569,-3.7433,-3.7755,-3.7595,-3.7033,-3.7634,-3.7728,-3.7493,-3.8084,-3.8403,-3.8479,-3.8244,-3.7435,-3.6216,-3.4521,-3.3144,-3.1992,-3.1114,-3.0841,-3.086,-3.0868,-3.1054,-3.1432,-3.2264,-3.2836,-3.3235,-3.3464,-3.3323,-3.2781,-3.1268,-3.0568,-3.0071,-2.9259,-2.8517,-2.7837,-2.7238,-2.6587,-2.6113,-2.607,-2.6092,-2.6318,-2.7149,-2.7265,-2.7406,-2.7947,-2.8301,-2.8401,-2.8233,0.0,-2.873,0.0,0.0,0.0,0.0,-2.6813,0.0,0.0,0.0,0.0,0.0,0.0,0.0,-2.3276,-2.301,0.0,-2.1766,-2.1576,-2.1215,-2.0751,-2.0777,-2.0393,-1.9818,-1.9301,-1.8738,-1.8093,-1.7707,-1.819,-1.9354,-1.9354,-1.9694,-2.0161,-1.9628,-1.8957,-1.8327,-1.7948,-1.7,-1.585,-4.108,-4.1507,0.0,0.0,-4.2056,0.0,-4.2239,-4.1841,-4.136,-4.0918,-4.0399,-3.9918,-3.9626,-3.8804,-3.8428,-3.8738,0.0,0.0,0.0,-3.5859,-3.5587,-3.487,-3.4774,-3.4735,-3.4774,-3.5015,-3.5149,-3.5149,-3.5532,-3.6567,-3.8202,-3.7462,-3.7177,-3.7297,-3.7292,-3.683,-3.6189,-3.78,-3.8497,-3.858,-3.9369,-3.8731,-3.7117,-3.5422,-3.3749,-3.2168,-3.1289,-3.0938,-3.0903,-3.0956,-3.1522,-3.2333,-3.3141,-3.3349,-3.3091,-3.2236,-3.17,-3.1183,-3.0214,-2.9623,-2.9283,-2.9206,-2.8504,-2.7542,-2.6488,-2.6759,-2.7123,-2.673,-2.7354,-2.8002,-2.8224,-2.814,-2.8122,-2.8321,-2.7997,-2.7538,-2.7003,0.0,0.0,0.0,0.0,0.0,0.0,-2.7244,-2.6857,0.0,0.0,0.0,0.0,0.0,-2.2443,-2.0318,-2.2213,-2.2765,-2.1587,-2.2408,-2.2362,-2.1382,-2.1901,-2.2178,-2.212,-2.1764,-2.0939,-1.9661,-1.9651,-1.9651,-1.9661,-1.9596,-1.9933,-2.0344,-1.8936,-1.8613,-1.8895,-1.7967,-1.7035,-1.6263,0.0,0.0,-4.1839,-4.2257,-4.2559,-4.281,-4.2941,-4.2787,-4.24,-4.1736,-4.0977,-4.027,-3.9602,-3.8841,-3.8117,-3.7504,-3.6716,-3.6168,-3.6019,-3.5474,-3.5171,-3.5185,-3.5166,-3.5249,-3.545,-3.5533,-3.5573,-3.5631,-3.5721,-3.6326,-3.7391,-3.7249,-3.7546,-3.819,-3.8193,-3.8071,-3.7946,-3.8963,-3.9056,-3.8578,-3.9427,-3.9136,-3.8014,-3.6336,-3.5018,-3.3964,-3.3105,-3.2352,-3.1892,-3.2558,-3.2926,-3.3113,-3.3214,-3.3604,-3.3858,-3.2938,-3.2497,-3.1894,-3.0103,-2.9906,-3.0005,-2.9173,-2.859,-2.8057,-2.7584,-2.7566,-2.7771,-2.8106,-2.8347,-2.8483,-2.8558,-2.845,-2.8069,-2.7179,-2.7022,-2.6844,-2.6305,-2.6411,0.0,0.0,-2.6674,-2.6679,-2.6014,-2.6032,-2.5981,0.0,0.0,0.0,0.0,-2.3903,-2.2769,-2.0557,-2.1751,-2.2101,-2.1385,-2.1801,-2.2464,-2.3491,-2.3807,-2.4068,-2.4263,-2.3391,-2.2464,-2.1483,-2.102,-2.102,-2.1232,-2.0899,-2.0962,-2.1181,-2.0364,-1.9803,-1.933,-1.8844,-1.8636,-1.8309,-4.2253,-4.2444,-4.258,-4.3032,-4.3267,-4.3458,-4.3557,-4.3029,-4.2449,-4.2039,-4.1169,-4.0395,-3.9958,-3.9261,-3.8461,-3.7583,-3.6673,-3.5989,-3.5661,-3.5343,-3.5278,-3.5469,-3.548,-3.5553,-3.5693,-3.5753,-3.582,-3.589,-3.5856,-3.6083,-3.6551,-3.6587,-3.6868,-3.7318,-3.7343,-3.7362,-3.7415,-3.8229,-3.8319,-3.8021,-3.9291,-3.9039,-3.7819,-3.6921,-3.5818,-3.4591,-3.3719,-3.3102,-3.2754,-3.3172,-3.3574,-3.3887,-3.3755,-3.3935,-3.4075,-3.3378,-3.3051,-3.2483,-3.0507,-3.0166,-3.0088,-2.8956,-2.8515,-2.8353,-2.8397,-2.8488,-2.8768,-2.9431,-2.9301,-2.9134,-2.9281,-2.8685,-2.7829,-2.6744,-2.6475,-2.6056,-2.5184,-2.5427,0.0,-2.5647,-2.604,-2.6215,-2.5837,-2.5742,-2.5786,-2.6008,0.0,0.0,-2.4235,-2.4,-2.3132,-2.1561,-2.2375,-2.256,-2.1865,-2.2215,-2.329,-2.5063,-2.4798,-2.4747,-2.495,-2.4126,-2.3278,-2.2359,-2.2372,-2.2311,-2.2286,-2.2163,-2.2027,-2.1842,-2.1204,-2.0632,-2.0194,-1.9758,-1.9583,-1.9479,-4.2795,-4.3213,-4.3477,-4.3814,-4.3897,-4.3961,-4.4017,-4.3079,-4.2308,-4.2219,-4.1284,-4.0592,-4.0438,-3.9875,-3.9174,-3.835,-3.7229,-3.6162,-3.5244,-3.5405,-3.5591,-3.5702,-3.5718,-3.5725,-3.5753,-3.5864,-3.5942,-3.5974,-3.5932,-3.5894,-3.5898,-3.5896,-3.5914,-3.5914,-3.5965,-3.6005,-3.6048,-3.6875,-3.7143,-3.7185,-3.9056,-3.8839,-3.7433,-3.7614,-3.6682,-3.5162,-3.4295,-3.3887,-3.3746,-3.3639,-3.4069,-3.4629,-3.4466,-3.4327,-3.4141,-3.3578,-3.3428,-3.3034,-3.1151,-3.0406,-2.9954,-2.8935,-2.8652,-2.8755,-2.908,-2.946,-2.9919,-3.0543,-3.0179,-2.9805,-2.9935,-2.881,-2.7564,-2.6752,-2.5971,-2.5128,-2.4067,0.0,-2.4626,-2.4496,-2.5294,-2.5823,-2.5618,-2.5591,-2.5646,-2.5797,-2.5633,-2.5104,0.0,-2.4066,-2.3722,-2.3116,-2.3293,-2.3132,-2.2562,-2.3032,-2.4123,-2.5852,-2.5131,-2.481,-2.49,-2.4377,-2.3662,-2.2921,-2.3471,-2.3412,-2.3017,-2.3267,-2.304,-2.2469,-2.1779,-2.1455,-2.1267,-2.0801,-2.0561,-2.0561,-4.3013,-4.3477,-4.3646,-4.373,-4.3923,-4.4091,-4.425,-4.3863,-4.3316,-4.2697,-4.2057,-4.1388,-4.0636,-4.0472,-4.0048,-3.9193,-3.8323,-3.7166,-3.562,-3.5609,-3.5697,-3.5774,-3.584,-3.5899,-3.5955,-3.5962,-3.595,-3.5929,-3.5916,-3.5898,-3.5895,-3.5894,-3.5925,-3.5978,-3.6009,-3.6005,-3.6068,-3.6929,-3.6855,-3.6406,-3.8812,-3.9227,-3.8453,-3.9154,-3.8787,-3.7791,-3.6913,-3.6108,-3.5421,-3.5404,-3.5418,-3.5375,-3.5072,-3.4952,-3.4704,-3.3433,-3.3548,-3.364,-3.1771,-3.0729,-3.0149,-2.9954,-2.9887,-2.9849,-2.9839,-3.0404,-3.0933,-3.1007,-3.0679,-3.0208,-2.9629,-2.856,-2.756,-2.6718,-2.5006,-2.3709,-2.3533,0.0,-2.2359,-2.2387,-2.2872,-2.3255,-2.3352,-2.3813,-2.4221,-2.4408,-2.5075,-2.5439,-2.5244,-2.5077,-2.5151,-2.5427,-2.309,-2.2094,-2.2689,-2.3345,-2.4105,-2.4888,-2.4719,-2.4823,-2.5127,-2.455,-2.4118,-2.3897,-2.3917,-2.3741,-2.3518,-2.3518,-2.3386,-2.3148,-2.2641,-2.2482,-2.2418,-2.2237,-2.257,-2.294,-4.2708,-4.343,-4.3968,-4.4109,-4.4229,-4.4364,-4.4495,-4.3739,-4.3037,-4.2738,-4.1886,-4.1152,-4.0746,-4.0738,-4.0424,-3.9592,-3.8739,-3.7734,-3.6483,-3.5996,-3.5772,-3.585,-3.5919,-3.5978,-3.5991,-3.5991,-3.5976,-3.5957,-3.5914,-3.5901,-3.5907,-3.5903,-3.5942,-3.6001,-3.5958,-3.5958,-3.5978,-3.6382,-3.6305,-3.6083,-3.7749,-3.7921,-3.7343,-3.8613,-3.8554,-3.7791,-3.7796,-3.7517,-3.7039,-3.6306,-3.6029,-3.584,-3.502,-3.4775,-3.4641,-3.3873,-3.3506,-3.3135,-3.2272,-3.1788,-3.1292,-3.0363,-3.0448,-3.0677,-3.0396,-3.0784,-3.1179,-3.1077,-3.0543,-2.9908,-2.9134,-2.8161,-2.7047,-2.5931,-2.4246,0.0,0.0,-2.2244,-2.1949,-2.275,-2.2997,-2.316,-2.3245,-2.3636,-2.3859,-2.3813,-2.4478,-2.5005,-2.5328,-2.4681,-2.4731,-2.5643,-2.3838,-2.3084,-2.363,-2.3584,-2.3961,-2.462,-2.4453,-2.4368,-2.4238,-2.3653,-2.3339,-2.3292,-2.3327,-2.3327,-2.3245,-2.3518,-2.3518,-2.3305,-2.2848,-2.2921,-2.3155,-2.2725,-2.2803,-2.3013,-4.2373,-4.341,-4.4202,-4.4224,-4.4233,-4.4288,-4.4403,-4.3244,-4.243,-4.2718,-4.161,-4.0834,-4.0834,-4.0868,-4.0577,-3.9781,-3.8896,-3.8027,-3.7155,-3.6307,-3.5852,-3.5903,-3.5965,-3.5994,-3.5999,-3.5994,-3.5996,-3.5991,-3.5929,-3.5912,-3.5931,-3.5914,-3.5947,-3.5996,-3.5951,-3.5908,-3.5903,-3.5914,-3.6028,-3.6258,-3.6934,-3.6953,-3.6733,-3.8207,-3.8339,-3.7822,-3.8364,-3.8536,-3.8278,-3.6799,-3.6281,-3.6043,-3.4816,-3.442,-3.4375,-3.4154,-3.3529,-3.2941,-3.2948,-3.264,-3.1975,-3.0705,-3.0604,-3.0812,-3.0632,-3.0836,-3.1029,-3.1006,-3.0369,-2.9572,-2.8873,-2.7799,-2.6628,-2.5615,0.0,0.0,0.0,-2.1906,-2.1638,-2.2811,-2.3012,-2.3088,-2.322,-2.3505,-2.3669,-2.3505,-2.3989,-2.4523,-2.5077,-2.4439,-2.4425,-2.5217,-2.4474,-2.4067,-2.4096,-2.3779,-2.3796,-2.4208,-2.4079,-2.3754,-2.3243,-2.2739,-2.2567,-2.2702,-2.2713,-2.2725,-2.2714,-2.3352,-2.3352,-2.2896,-2.28,-2.309,-2.3479,-2.2858,-2.2756,-2.2786,-4.2295,-4.358,-4.4243,-4.352,-4.3388,-4.3423,-4.358,-4.246,-4.1892,-4.2766,-4.1732,-4.0898,-4.0898,-4.0907,-4.0577,-3.9781,-3.8902,-3.8031,-3.7155,-3.6342,-3.5884,-3.5908,-3.5965,-3.6001,-3.5994,-3.5995,-3.5992,-3.5991,-3.5931,-3.5927,-3.5989,-3.5932,-3.5932,-3.601,-3.5989,-3.596,-3.5903,-3.5966,-3.6411,-3.7113,-3.7179,-3.7652,-3.8409,-3.9209,-3.9481,-3.9409,-3.9333,-3.9239,-3.883,-3.6936,-3.6232,-3.5892,-3.461,-3.4221,-3.4173,-3.3815,-3.3805,-3.3931,-3.4056,-3.2766,-3.1356,-3.1228,-3.0377,-2.9707,-3.0367,-3.0577,-3.0729,-3.093,-3.0369,-2.9617,-2.8997,-2.77,-2.6761,-2.6762,0.0,0.0,-2.2675,-2.139,-2.056,-2.0885,-2.1295,-2.1702,-2.1987,-2.2628,-2.3088,-2.3314,-2.393,-2.4465,-2.4835,-2.5245,-2.5217,-2.4741,-2.4489,-2.3965,-2.3056,-2.3725,-2.3758,-2.3119,-2.3401,-2.3244,-2.2641,-2.2297,-2.2457,-2.3078,-2.2738,-2.2359,-2.2063,-2.3148,-2.2786,-2.1639,-2.2531,-2.3053,-2.3271,-2.2965,-2.3159,-2.3376,-4.0923,-4.2052,-4.2862,-4.2562,-4.2938,-4.3186,-4.2886,-4.2482,-4.2235,-4.2287,-4.1478,-4.0907,-4.0907,-4.0461,-4.0023,-3.9719,-3.8412,-3.7468,-3.718,-3.6363,-3.5912,-3.5962,-3.5988,-3.5996,-3.6003,-3.6522,-3.6816,-3.6816,-3.6747,-3.6723,-3.6733,-3.62,-3.5971,-3.5996,-3.5993,-3.5989,-3.6003,-3.6516,-3.6905,-3.7136,-3.7191,-3.7659,-3.8357,-3.8657,-3.9082,-3.9527,-3.9934,-4.0048,-3.9707,-3.7678,-3.6939,-3.6591,-3.4755,-3.4197,-3.4173,-3.4049,-3.4124,-3.4245,-3.4221,-3.3611,-3.282,-3.1901,-3.1675,-3.1482,-3.0703,-3.0679,-3.0738,-3.0361,-3.0117,-2.9816,-2.9177,-2.8128,-2.7306,-2.7293,0.0,-2.3262,-2.3774,-2.314,-2.2494,-2.2225,-2.3021,-2.3232,-2.2209,-2.2628,-2.298,-2.275,-2.3065,-2.3708,-2.4667,-2.5618,-2.5673,-2.461,-2.4432,-2.3758,-2.2455,-2.2647,-2.2464,-2.1997,-2.2462,-2.249,-2.2161,-2.1839,-2.1975,-2.2482,-2.1939,-2.1877,-2.2273,-2.2836,-2.2944,-2.275,-2.2836,-2.3365,-2.3923,-2.3168,-2.3093,-2.3219,-4.0085,-4.1063,-4.1863,-4.1653,-4.213,-4.2403,-4.2063,-4.1949,-4.1892,-4.1909,-4.1292,-4.0781,-4.0558,-4.0023,-3.9485,-3.8926,-3.7799,-3.7038,-3.6801,-3.6243,-3.5942,-3.5991,-3.5991,-3.5996,-3.6001,-3.6597,-3.6892,-3.6892,-3.6854,-3.6814,-3.6816,-3.6269,-3.5996,-3.5991,-3.5996,-3.5995,-3.6049,-3.6869,-3.7168,-3.7131,-3.7464,-3.7838,-3.8218,-3.8529,-3.893,-3.9425,-4.0165,-4.0447,-4.0145,-3.8099,-3.7392,-3.7028,-3.494,-3.4274,-3.433,-3.4591,-3.4573,-3.4469,-3.4494,-3.4358,-3.3827,-3.2267,-3.2187,-3.2136,-3.0837,-3.0853,-3.0907,-3.0027,-3.0158,-3.0192,-2.9427,-2.8644,-2.8065,-2.79,-2.5983,-2.4577,-2.4699,-2.4551,-2.4139,-2.3283,-2.4185,-2.4326,-2.2763,-2.3094,-2.318,-2.2836,-2.2887,-2.3495,-2.4654,-2.5494,-2.5508,-2.4567,-2.4452,-2.3708,-2.2197,-2.1999,-2.1851,-2.1702,-2.1987,-2.2173,-2.2334,-2.1901,-2.1975,-2.2309,-2.1776,-2.1765,-2.2161,-2.2604,-2.2848,-2.2944,-2.2957,-2.3484,-2.4099,-2.3294,-2.3121,-2.3258,-4.0025,-4.0948,-4.1493,-4.0877,-4.0797,-4.0898,-4.1158,-4.0572,-4.0538,-4.172,-4.1248,-4.0524,-3.9772,-3.968,-3.8992,-3.7253,-3.7161,-3.682,-3.5966,-3.5965,-3.5991,-3.5991,-3.5991,-3.6001,-3.5995,-3.6014,-3.6014,-3.6014,-3.6014,-3.6015,-3.6013,-3.5991,-3.601,-3.5991,-3.5994,-3.5992,-3.6049,-3.6869,-3.7168,-3.7189,-3.8117,-3.8393,-3.8315,-3.9112,-3.9328,-3.9323,-4.004,-4.031,-4.0005,-3.806,-3.7412,-3.7068,-3.5139,-3.4464,-3.457,-3.5454,-3.5165,-3.4695,-3.5076,-3.4816,-3.4017,-3.2343,-3.1515,-3.1043,-3.0768,-3.1117,-3.1209,-3.0152,-3.0542,-3.0773,-2.9635,-2.9275,-2.9042,-2.8706,-2.7488,-2.6284,-2.5349,-2.5331,-2.4895,-2.3513,-2.4172,-2.4421,-2.37,-2.3811,-2.3838,-2.3628,-2.3529,-2.3838,-2.4664,-2.4681,-2.4681,-2.4738,-2.4681,-2.3872,-2.2247,-2.1999,-2.2099,-2.2372,-2.2037,-2.2384,-2.3255,-2.2702,-2.2482,-2.2678,-2.2653,-2.2261,-2.1678,-2.2592,-2.2396,-2.1678,-2.2689,-2.3292,-2.3577,-2.3245,-2.3412,-2.3682,-3.8933,-3.9515,-3.9908,-3.972,-4.03,-4.0666,-4.034,-4.0667,-4.0711,-4.0092,-4.0468,-4.0227,-3.8736,-3.8703,-3.833,-3.7194,-3.6596,-3.6204,-3.5985,-3.5991,-3.5991,-3.5991,-3.5991,-3.5996,-3.6001,-3.6606,-3.6901,-3.6901,-3.6905,-3.6901,-3.6891,-3.6292,-3.5999,-3.5994,-3.6007,-3.5996,-3.6049,-3.6855,-3.7518,-3.8038,-3.8371,-3.9112,-3.9993,-3.9664,-3.9832,-4.0281,-4.0511,-4.0519,-4.0271,-3.9172,-3.8687,-3.8175,-3.6234,-3.5186,-3.4691,-3.483,-3.4902,-3.4868,-3.4506,-3.437,-3.413,-3.3378,-3.3013,-3.2862,-3.2882,-3.2588,-3.2293,-3.2164,-3.2136,-3.2074,-3.1801,-3.1254,-3.08,-3.0731,-2.9486,-2.841,-2.7855,-2.7802,-2.7409,-2.6253,-2.672,-2.6594,-2.5319,-2.5528,-2.5328,-2.4434,-2.5117,-2.544,-2.5135,-2.5717,-2.5825,-2.5397,-2.5063,-2.4355,-2.3339,-2.2836,-2.2285,-2.1702,-2.2099,-2.2408,-2.2641,-2.2469,-2.2714,-2.3352,-2.3267,-2.3135,-2.3075,-2.3833,-2.3623,-2.3005,-2.415,-2.4337,-2.3943,-2.3813,-2.3623,-2.3386,-3.8332,-3.8658,-3.897,-3.9183,-3.9746,-4.0121,-3.9921,-4.0395,-4.0367,-3.9353,-3.9769,-3.9522,-3.7815,-3.7754,-3.7506,-3.6623,-3.6144,-3.5927,-3.5991,-3.5981,-3.5951,-3.5951,-3.5914,-3.5923,-3.5991,-3.6521,-3.6794,-3.6794,-3.6794,-3.6794,-3.6774,-3.6247,-3.5991,-3.5994,-3.5973,-3.5975,-3.6042,-3.6859,-3.7283,-3.7474,-3.8215,-3.9015,-3.977,-3.9646,-4.0061,-4.0694,-4.0694,-4.0642,-4.0472,-3.9676,-3.8824,-3.789,-3.6719,-3.57,-3.5002,-3.5191,-3.5192,-3.5077,-3.4782,-3.454,-3.4401,-3.4443,-3.4267,-3.4022,-3.3757,-3.37,-3.3551,-3.3158,-3.3055,-3.301,-3.2836,-3.2341,-3.2004,-3.2004,-3.087,-2.9888,-2.9578,-2.949,-2.9088,-2.7952,-2.8436,-2.8194,-2.6703,-2.6799,-2.6465,-2.5241,-2.5638,-2.5715,-2.5296,-2.5697,-2.5832,-2.5619,-2.5273,-2.4811,-2.4137,-2.4137,-2.3598,-2.2543,-2.2628,-2.2932,-2.3424,-2.3065,-2.3053,-2.3412,-2.3623,-2.3554,-2.3231,-2.3623,-2.3592,-2.3341,-2.4219,-2.4366,-2.4176,-2.4208,-2.4195,-2.4066,-3.8135,-3.8332,-3.8615,-3.9073,-3.9156,-3.9343,-3.9804,-3.9889,-3.9734,-3.9243,-3.9246,-3.8686,-3.7063,-3.7013,-3.6716,-3.5776,-3.5806,-3.5904,-3.5962,-3.5929,-3.5883,-3.5883,-3.5779,-3.5788,-3.5962,-3.5985,-3.5985,-3.5965,-3.5988,-3.5988,-3.5988,-3.5991,-3.5991,-3.5994,-3.5937,-3.5933,-3.6055,-3.6789,-3.6679,-3.6158,-3.774,-3.8376,-3.8433,-3.9207,-3.9976,-4.0607,-4.0537,-4.0544,-4.0474,-3.9746,-3.8312,-3.6845,-3.6804,-3.6074,-3.5343,-3.6094,-3.5772,-3.5246,-3.5446,-3.5015,-3.4665,-3.5327,-3.5148,-3.4654,-3.4054,-3.4607,-3.4897,-3.3564,-3.3623,-3.3742,-3.3129,-3.2891,-3.2734,-3.2671,-3.1736,-3.0873,-3.0614,-3.0543,-3.0041,-2.9037,-2.9545,-2.9371,-2.7917,-2.7676,-2.721,-2.6151,-2.5575,-2.5279,-2.5253,-2.5161,-2.5189,-2.5383,-2.5481,-2.5273,-2.4697,-2.5631,-2.5536,-2.4323,-2.3669,-2.3904,-2.4978,-2.4092,-2.3518,-2.3245,-2.3897,-2.3631,-2.2725,-2.2591,-2.2777,-2.3189,-2.35,-2.3887,-2.4234,-2.4408,-2.4781,-2.5063,-3.7828,-3.8119,-3.8364,-3.8615,-3.8855,-3.9192,-3.9599,-3.9693,-3.9591,-3.9178,-3.9753,-3.9335,-3.7007,-3.746,-3.7297,-3.5764,-3.5706,-3.5753,-3.5767,-3.5753,-3.5745,-3.5745,-3.5729,-3.5718,-3.5767,-3.5827,-3.5827,-3.5767,-3.5875,-3.5914,-3.5929,-3.5981,-3.5991,-3.5994,-3.5973,-3.5996,-3.6015,-3.6184,-3.6509,-3.6953,-3.7326,-3.8277,-3.9396,-3.8926,-3.9262,-3.9914,-3.9227,-3.9315,-3.9813,-4.0144,-3.9238,-3.7927,-3.7709,-3.6554,-3.5296,-3.5422,-3.5316,-3.5095,-3.4939,-3.4717,-3.454,-3.4702,-3.4882,-3.5244,-3.6011,-3.5983,-3.5769,-3.5642,-3.5172,-3.4816,-3.4822,-3.4349,-3.379,-3.3323,-3.2736,-3.2136,-3.1533,-3.101,-3.0708,-3.0728,-3.0463,-3.0208,-2.9886,-2.8624,-2.7764,-2.7577,-2.6972,-2.6348,-2.5729,-2.6197,-2.6088,-2.5215,-2.598,-2.5783,-2.4553,-2.6215,-2.6318,-2.4761,-2.4968,-2.5093,-2.5149,-2.477,-2.4425,-2.406,-2.4708,-2.4513,-2.3806,-2.4366,-2.4094,-2.3449,-2.4323,-2.4173,-2.3424,-2.4002,-2.3943,-2.359,-3.7392,-3.7721,-3.7998,-3.846,-3.8676,-3.898,-3.9575,-3.967,-3.9567,-3.9143,-3.9186,-3.86,-3.6891,-3.6839,-3.6571,-3.5684,-3.5621,-3.5669,-3.5693,-3.5678,-3.565,-3.565,-3.5621,-3.56,-3.56,-3.5679,-3.5697,-3.5693,-3.5801,-3.5878,-3.5889,-3.5938,-3.5978,-3.5994,-3.5974,-3.5976,-3.5996,-3.5971,-3.6202,-3.6635,-3.6635,-3.7397,-3.8508,-3.8051,-3.8417,-3.9117,-3.8624,-3.8914,-3.9675,-4.0463,-3.9622,-3.8208,-3.802,-3.6738,-3.5266,-3.5179,-3.5129,-3.5038,-3.4773,-3.4588,-3.4549,-3.4815,-3.483,-3.5059,-3.5966,-3.6149,-3.6174,-3.6233,-3.5871,-3.556,-3.5424,-3.5038,-3.4526,-3.3941,-3.334,-3.2933,-3.2697,-3.197,-3.1628,-3.2028,-3.154,-3.097,-3.0466,-2.9242,-2.8457,-2.8414,-2.8056,-2.7581,-2.6867,-2.6791,-2.6756,-2.6693,-2.6763,-2.6638,-2.6287,-2.7398,-2.744,-2.6414,-2.5969,-2.5807,-2.5859,-2.5439,-2.4937,-2.4509,-2.5147,-2.5038,-2.4377,-2.4294,-2.4195,-2.4096,-2.4139,-2.4256,-2.4452,-2.4408,-2.4105,-2.393,-3.6685,-3.7175,-3.765,-3.8314,-3.8523,-3.8807,-3.9464,-3.9491,-3.9334,-3.9069,-3.8372,-3.7594,-3.6795,-3.5979,-3.5509,-3.5581,-3.5574,-3.5618,-3.566,-3.5609,-3.5574,-3.5585,-3.5534,-3.5515,-3.5515,-3.5577,-3.5618,-3.5678,-3.5741,-3.5799,-3.584,-3.5872,-3.5904,-3.5985,-3.5914,-3.5937,-3.5996,-3.5933,-3.5951,-3.5995,-3.5995,-3.6483,-3.7206,-3.7049,-3.7536,-3.8272,-3.8057,-3.8585,-3.9518,-4.0429,-3.9607,-3.816,-3.7855,-3.6618,-3.5261,-3.5127,-3.5075,-3.502,-3.4812,-3.4609,-3.4577,-3.5008,-3.4806,-3.463,-3.5287,-3.5889,-3.6295,-3.6343,-3.6241,-3.6011,-3.5633,-3.5391,-3.5018,-3.4414,-3.3744,-3.3324,-3.3489,-3.2768,-3.2363,-3.2695,-3.2221,-3.1509,-3.0553,-2.9717,-2.9134,-2.8876,-2.8789,-2.8534,-2.7993,-2.7277,-2.7331,-2.8282,-2.7617,-2.7554,-2.814,-2.8449,-2.8565,-2.8544,-2.7063,-2.6491,-2.6672,-2.6094,-2.5467,-2.4794,-2.5412,-2.5285,-2.4598,-2.3763,-2.3985,-2.4759,-2.3763,-2.435,-2.566,-2.5077,-2.4724,-2.4781,-3.5428,-3.6482,-3.7376,-3.7756,-3.8168,-3.8554,-3.8952,-3.8651,-3.8501,-3.8727,-3.8246,-3.7574,-3.6801,-3.5974,-3.5507,-3.5515,-3.5515,-3.5515,-3.5541,-3.5515,-3.5509,-3.5509,-3.5496,-3.5528,-3.5591,-3.5608,-3.5601,-3.562,-3.5679,-3.5698,-3.565,-3.5713,-3.5801,-3.5899,-3.589,-3.5935,-3.5999,-3.5982,-3.5982,-3.6001,-3.6001,-3.6528,-3.7192,-3.645,-3.6695,-3.7343,-3.6528,-3.7209,-3.8606,-3.9439,-3.9038,-3.8017,-3.7088,-3.6059,-3.5203,-3.5054,-3.4964,-3.4927,-3.4945,-3.4649,-3.4335,-3.4414,-3.4431,-3.4618,-3.5403,-3.5953,-3.6412,-3.6738,-3.6563,-3.6316,-3.6199,-3.5722,-3.516,-3.4415,-3.3977,-3.3432,-3.2666,-3.2364,-3.2191,-3.213,-3.1697,-3.1336,-3.1161,-3.0286,-2.9524,-2.9002,-2.8597,-2.8195,-2.7867,-2.7999,-2.7982,-2.7776,-2.844,-2.8523,-2.8026,-2.8619,-2.9409,-3.0351,-2.869,-2.7615,-2.7136,-2.6878,-2.6111,-2.5005,-2.5729,-2.5439,-2.4503,-2.4503,-2.4503,-2.4503,-2.4288,-2.4557,-2.5133,-2.5231,-2.5106,-2.5078,-3.5454,-3.6255,-3.6978,-3.7632,-3.8,-3.82,-3.8312,-3.8252,-3.8154,-3.8042,-3.7519,-3.7053,-3.6724,-3.5988,-3.5493,-3.5493,-3.5493,-3.5493,-3.5493,-3.5493,-3.5501,-3.5502,-3.5547,-3.5572,-3.5608,-3.5631,-3.5662,-3.567,-3.5643,-3.5637,-3.5611,-3.5631,-3.5741,-3.5908,-3.5908,-3.5938,-3.5991,-3.5991,-3.5991,-3.5991,-3.5991,-3.6228,-3.654,-3.615,-3.6237,-3.664,-3.7156,-3.7736,-3.8373,-3.9273,-3.8961,-3.8013,-3.6949,-3.5983,-3.52,-3.5019,-3.4927,-3.4908,-3.4927,-3.4751,-3.4517,-3.4524,-3.4822,-3.5356,-3.615,-3.678,-3.7134,-3.6955,-3.6882,-3.6701,-3.6216,-3.6002,-3.5708,-3.5015,-3.4801,-3.4432,-3.3565,-3.3265,-3.2793,-3.2064,-3.1697,-3.1452,-3.1336,-3.0747,-3.0176,-2.9794,-2.9435,-2.9324,-2.9373,-2.8781,-2.8816,-2.9686,-2.9368,-2.9275,-2.9373,-2.9907,-3.0412,-3.0848,-2.9952,-2.9177,-2.8469,-2.7622,-2.6698,-2.5865,-2.5934,-2.577,-2.537,-2.4751,-2.4851,-2.5314,-2.4247,-2.4337,-2.5148,-2.5783,-2.6187,-2.6553]}]]